[[{"header":{"parameterUnit":"m.s-1","parameterCategory":1,"la1":31.0,"la2":29.5877,"lo1":-88.7671,"lo2":-86.6584,"dx":0.0162,"dy":0.0185,"nx":115,"ny":88,"refTime":"2022-12-15T06:00:00:Z","depth":0,"parameterNumber":2,"parameterNumberName":"U-component_of_WINDS"},"data":[0.0,0.0,0.0,0.0,0.0,0.0,0.0,0.0,0.0,0.0,0.0,0.0,0.0,0.0,0.0,0.0,0.0,0.0,0.0,0.0,0.0,0.0,0.0,0.0,0.0,0.0,0.0,0.0,0.0,0.0,0.0,0.0,0.0,0.0,0.0,0.0,0.0,0.0,0.0,0.0,0.0,0.0,0.0,0.0,0.0,0.0,0.0,0.0,0.0,0.0,0.0,0.0,0.0,0.0,0.0,0.0,0.0,0.0,0.0,0.0,0.0,0.0,0.0,0.0,0.0,0.0,0.0,0.0,0.0,0.0,0.0,0.0,0.0,0.0,0.0,0.0,0.0,0.0,0.0,0.0,0.0,0.0,0.0,0.0,0.0,0.0,0.0,0.0,0.0,0.0,0.0,0.0,0.0,0.0,0.0,0.0,0.0,0.0,0.0,0.0,0.0,0.0,0.0,0.0,0.0,0.0,0.0,0.0,0.0,0.0,0.0,0.0,0.0,0.0,0.0,0.0,0.0,0.0,0.0,0.0,0.0,0.0,0.0,0.0,0.0,0.0,0.0,0.0,0.0,0.0,0.0,0.0,0.0,0.0,0.0,0.0,0.0,0.0,0.0,0.0,0.0,0.0,0.0,0.0,0.0,0.0,0.0,0.0,0.0,0.0,0.0,0.0,0.0,0.0,0.0,0.0,0.0,0.0,0.0,0.0,0.0,0.0,0.0,0.0,0.0,0.0,0.0,0.0,0.0,0.0,0.0,0.0,0.0,0.0,0.0,0.0,0.0,0.0,0.0,0.0,0.0,0.0,0.0,0.0,0.0,0.0,0.0,0.0,0.0,0.0,0.0,0.0,0.0,0.0,0.0,0.0,0.0,0.0,0.0,0.0,0.0,0.0,0.0,0.0,0.0,0.0,0.0,0.0,0.0,0.0,0.0,0.0,0.0,0.0,0.0,0.0,0.0,0.0,0.0,0.0,0.0,0.0,0.0,0.0,0.0,0.0,0.0,0.0,0.0,0.0,0.0,0.0,0.0,0.0,0.0,0.0,0.0,0.0,0.0,0.0,0.0,0.0,0.0,0.0,0.0,0.0,0.0,0.0,0.0,0.0,0.0,0.0,0.0,0.0,0.0,0.0,0.0,0.0,0.0,0.0,0.0,0.0,0.0,0.0,0.0,0.0,0.0,0.0,0.0,0.0,0.0,0.0,0.0,0.0,0.0,0.0,0.0,0.0,0.0,0.0,0.0,0.0,0.0,0.0,0.0,0.0,0.0,0.0,0.0,0.0,0.0,0.0,0.0,0.0,0.0,0.0,0.0,0.0,0.0,0.0,0.0,0.0,0.0,0.0,0.0,0.0,0.0,0.0,0.0,0.0,0.0,0.0,0.0,0.0,0.0,0.0,0.0,0.0,0.0,0.0,0.0,0.0,0.0,0.0,0.0,0.0,0.0,0.0,0.0,0.0,0.0,0.0,0.0,0.0,0.0,0.0,0.0,0.0,0.0,0.0,0.0,0.0,0.0,0.0,0.0,0.0,0.0,0.0,0.0,0.0,0.0,0.0,0.0,0.0,0.0,0.0,0.0,0.0,0.0,0.0,0.0,0.0,0.0,0.0,0.0,0.0,0.0,0.0,0.0,0.0,0.0,0.0,0.0,0.0,0.0,0.0,0.0,0.0,0.0,0.0,0.0,0.0,0.0,0.0,0.0,0.0,0.0,0.0,0.0,0.0,0.0,0.0,0.0,0.0,0.0,0.0,0.0,0.0,0.0,0.0,0.0,0.0,0.0,0.0,0.0,0.0,0.0,0.0,0.0,0.0,0.0,0.0,0.0,0.0,0.0,0.0,0.0,0.0,0.0,0.0,0.0,0.0,0.0,0.0,0.0,0.0,0.0,0.0,0.0,0.0,0.0,0.0,0.0,0.0,0.0,0.0,0.0,0.0,0.0,0.0,0.0,0.0,0.0,0.0,0.0,0.0,0.0,0.0,0.0,0.0,0.0,0.0,0.0,0.0,0.0,0.0,0.0,0.0,0.0,0.0,0.0,0.0,0.0,0.0,0.0,0.0,0.0,0.0,0.0,0.0,0.0,0.0,0.0,0.0,0.0,0.0,0.0,0.0,0.0,0.0,0.0,0.0,0.0,0.0,0.0,0.0,0.0,0.0,0.0,0.0,0.0,0.0,0.0,0.0,0.0,0.0,0.0,0.0,0.0,0.0,0.0,0.0,0.0,0.0,0.0,0.0,0.0,0.0,0.0,0.0,0.0,0.0,0.0,0.0,0.0,0.0,0.0,0.0,0.0,0.0,0.0,0.0,0.0,0.0,0.0,0.0,0.0,0.0,0.0,0.0,0.0,0.0,0.0,0.0,0.0,0.0,0.0,0.0,0.0,0.0,0.0,0.0,0.0,0.0,0.0,0.0,0.0,0.0,0.0,0.0,0.0,0.0,0.0,0.0,0.0,0.0,0.0,0.0,0.0,0.0,0.0,0.0,0.0,0.0,0.0,0.0,0.0,0.0,0.0,0.0,0.0,0.0,0.0,0.0,0.0,0.0,0.0,0.0,0.0,0.0,0.0,0.0,0.0,0.0,0.0,0.0,0.0,0.0,0.0,0.0,0.0,0.0,0.0,0.0,0.0,0.0,0.0,0.0,0.0,0.0,0.0,0.0,0.0,0.0,0.0,0.0,0.0,0.0,0.0,0.0,0.0,0.0,0.0,0.0,0.0,0.0,0.0,0.0,0.0,0.0,0.0,0.0,0.0,0.0,0.0,0.0,0.0,0.0,0.0,0.0,0.0,0.0,0.0,0.0,0.0,0.0,0.0,0.0,0.0,0.0,0.0,0.0,0.0,0.0,0.0,0.0,0.0,0.0,0.0,0.0,0.0,0.0,0.0,0.0,0.0,0.0,0.0,0.0,0.0,0.0,0.0,0.0,0.0,0.0,0.0,0.0,0.0,0.0,0.0,0.0,0.0,0.0,0.0,0.0,0.0,0.0,0.0,0.0,0.0,0.0,0.0,0.0,0.0,0.0,0.0,0.0,0.0,0.0,0.0,0.0,0.0,0.0,0.0,0.0,0.0,0.0,0.0,0.0,0.0,0.0,0.0,0.0,0.0,0.0,0.0,0.0,0.0,0.0,0.0,0.0,0.0,0.0,0.0,0.0,0.0,0.0,0.0,0.0,0.0,0.0,0.0,0.0,0.0,0.0,0.0,0.0,0.0,0.0,0.0,0.0,0.0,0.0,0.0,0.0,0.0,0.0,0.0,0.0,0.0,0.0,0.0,0.0,0.0,0.0,0.0,0.0,0.0,0.0,0.0,0.0,0.0,0.0,0.0,0.0,0.0,0.0,0.0,0.0,0.0,0.0,0.0,0.0,0.0,0.0,0.0,0.0,0.0,0.0,0.0,0.0,0.0,0.0,0.0,0.0,0.0,0.0,0.0,0.0,0.0,0.0,0.0,0.0,0.0,0.0,0.0,0.0,0.0,0.0,0.0,0.0,0.0,0.0,0.0,0.0,0.0,0.0,0.0,0.0,0.0,0.0,0.0,0.0,0.0,0.0,0.0,0.0,0.0,0.0,0.0,0.0,0.0,0.0,0.0,0.0,0.0,0.0,0.0,0.0,0.0,0.0,0.0,0.0,0.0,0.0,0.0,0.0,0.0,0.0,0.0,0.0,0.0,0.0,0.0,0.0,0.0,0.0,0.0,0.0,0.0,0.0,0.0,0.0,0.0,0.0,0.0,0.0,0.0,0.0,0.0,0.0,0.0,0.0,0.0,0.0,0.0,0.0,0.0,0.0,0.0,0.0,0.0,0.0,0.0,0.0,0.0,0.0,0.0,0.0,0.0,0.0,0.0,0.0,0.0,0.0,0.0,0.0,0.0,0.0,0.0,0.0,0.0,0.0,0.0,0.0,0.0,0.0,0.0,0.0,0.0,0.0,0.0,0.0,0.0,0.0,0.0,0.0,0.0,0.0,0.0,0.0,0.0,0.0,0.0,0.0,0.0,0.0,0.0,0.0,0.0,0.0,0.0,0.0,0.0,0.0,0.0,0.0,0.0,0.0,0.0,0.0,0.0,0.0,0.0,0.0,0.0,0.0,0.0,0.0,0.0,0.0,0.0,0.0,0.0,0.0,0.0,0.0,0.0,0.0,0.0,0.0,0.0,0.0,0.0,0.0,0.0,0.0,0.0,0.0,0.0,0.0,0.0,0.0,0.0,0.0,0.0,0.0,0.0,0.0,0.0,0.0,0.0,0.0,-0.2142,0.0,0.0,0.0,-0.3118,0.0,0.0,0.0,0.0,0.0,0.0,0.0,0.0,0.0,0.0,0.0,0.0,0.0,0.0,0.0,0.0,0.0,0.0,0.0,0.0,0.0,0.0,0.0,0.0,0.0,0.0,0.0,0.0,0.0,0.0,0.0,0.0,0.0,0.0,0.0,0.0,0.0,0.0,0.0,0.0,0.0,0.0,0.0,0.0,0.0,0.0,0.0,0.0,0.0,0.0,0.0,0.0,0.0,0.0,0.0,0.0,0.0,0.0,0.0,0.0,0.0,0.0,0.0,0.0,0.0,0.0,0.0,0.0,0.0,0.0,0.0,0.0,0.0,0.0,0.0,0.0,0.0,0.0,0.0,0.0,0.0,0.0,0.0,0.0,0.0,0.0,0.0,0.0,0.0,0.0,0.0,0.0,0.0,0.0,0.0,0.0,0.0,0.0,0.0,0.0,0.0,0.0,0.0,0.0,0.0,0.0,0.0,0.0,0.0,0.0,-0.1759,-0.1959,-0.2638,-0.2832,-0.2488,0.0,0.0,0.0,0.0,0.0,0.0,0.0,0.0,0.0,0.0,0.0,0.0,0.0,0.0,0.0,0.0,0.0,0.0,0.0,0.0,0.0,0.0,0.0,0.0,0.0,0.0,0.0,0.0,0.0,0.0,0.0,0.0,0.0,0.0,0.0,0.0,0.0,0.0,0.0,0.0,0.0,0.0,0.0,0.0,0.0,0.0,0.0,0.0,0.0,0.0,0.0,0.0,0.0,0.0,0.0,0.0,0.0,0.0,0.0,0.0,0.0,0.0,0.0,0.0,0.0,0.0,0.0,0.0,0.0,0.0,0.0,0.0,0.0,0.0,0.0,0.0,0.0,0.0,0.0,0.0,0.0,0.0,0.0,0.0,0.0,0.0,0.0,0.0,0.0,0.0,0.0,0.0,0.0,0.0,0.0,0.0,0.0,0.0,0.0,0.0,0.0,0.0,0.0,0.0,0.0,0.0,0.0,0.0,0.0,0.0,0.0,0.0,-0.179,-0.2122,-0.1577,0.0,0.0,0.0,0.0,0.0,0.0,0.0,0.0,0.0,0.0,0.0,0.0,0.0,0.0,0.0,0.0,0.0,0.0,0.0,0.0,0.0,0.0,0.0,0.0,0.0,0.0,0.0,0.0,0.0,0.0,0.0,0.0,0.0,0.0,0.0,0.0,0.0,0.0,0.0,0.0,0.0,0.0,0.0,0.0,0.0,0.0,0.0,0.0,0.0,0.0,0.0,0.0,0.0,0.0,0.0,0.0,0.0,0.0,0.0,0.0,0.0,0.0,0.0,0.0,0.0,0.0,0.0,0.0,0.0,0.0,0.0,0.0,0.0,0.0,0.0,0.0,0.0,0.0,0.0,0.0,0.0,0.0,0.0,0.0,0.0,0.0,0.0,0.0,0.0,0.0,0.0,0.0,0.0,0.0,0.0,0.0,0.0,0.0,0.0,0.0,0.0,0.0,0.0,0.0,0.0,0.0,0.0,0.0,0.0,0.0,0.0306,0.0511,-0.0,0.0,0.006,0.0,0.0,0.0,0.0,0.0,0.0,0.0,0.0,0.0,0.0,0.0,0.0,0.0,0.0,0.0,0.0,0.0,0.0,0.0,0.0,0.0,0.0,0.0,0.0,0.0,0.0,0.0,0.0,0.0,0.0,0.0,0.0,0.0,0.0,0.0,0.0,0.0,0.0,0.0,0.0,0.0,0.0,0.0,0.0,0.0,0.0,0.0,0.0,0.0,0.0,0.0,0.0,0.0,0.0,0.0,0.0,0.0,0.0,0.0,0.0,0.0,0.0,0.0,0.0,0.0,0.0,0.0,0.0,0.0,0.0,0.0,0.0,0.0,0.0,0.0,0.0,0.0,0.0,0.0,0.0,0.0,0.0,0.0,0.0,0.0,0.0,0.0,0.0,0.0,0.0,0.0,0.0,0.0,0.0,0.0,0.0,0.0,0.0,0.0,0.0,0.0,0.0,0.0,0.0,0.0,0.0,0.0,0.0,0.0,0.0,0.2069,0.1613,0.1124,0.1165,0.0,0.0,0.0,0.0,0.0,0.0,0.0,0.0,0.0,0.0,0.0,0.0,0.0,0.0,0.0,0.0,0.0,0.0,0.0,0.0,0.0,0.0,0.0,0.0,0.0,0.0,0.0,0.0,0.0,0.0,0.0,0.0,0.0,0.0,0.0,0.0,0.0,0.0,0.0,0.0,0.0,0.0,0.0,0.0,0.0,0.0,0.0,0.0,0.0,0.0,0.0,0.0,0.0,0.0,0.0,0.0,0.0,0.0,0.0,0.0,0.0,0.0,0.0,0.0,0.0,0.0,0.0,0.0,0.0,0.0,0.0,0.0,0.0,0.0,0.0,0.0,0.0,0.0,0.0,0.0,0.0,0.0,0.0,0.0,0.0,0.0,0.0,0.0,0.0,0.0,0.0,0.0,0.0,0.0,0.0,0.0,0.0,0.0,0.0,0.0,0.0,0.0,0.0,0.0,0.0,0.0,0.0,0.0,0.0,0.0,0.3307,0.3253,0.2666,0.2335,0.2323,0.2705,0.0,0.0,0.0,0.0,0.0,0.0,0.0,0.0,0.0,0.0,0.0,0.0,0.0,0.0,0.0,0.0,0.0,0.0,0.0,0.0,0.0,0.0,0.0,0.0,0.0,0.0,0.0,0.0,0.0,0.0,0.0,0.0,0.0,0.0,0.0,0.0,0.0,0.0,0.0,0.0,0.0,0.0,0.0,0.0,0.0,0.0,0.0,0.0,0.0,0.0,0.0,0.0,0.0,0.0,0.0,0.0,0.0,0.0,0.0,0.0,0.0,0.0,0.0,0.0,0.0,0.0,0.0,0.0,0.0,0.0,0.0,0.0,0.0,0.0,0.0,0.0,0.0,0.0,0.0,0.0,0.0,0.0,0.0,0.0,0.0,0.0,0.0,0.0,0.0,0.0,0.0,0.0,0.0,0.0,0.0,0.0,0.0,0.0,0.0,0.0,0.0,0.0,0.0,0.0,0.0,0.0,0.0,0.0,0.3881,0.3576,0.3568,0.3874,0.3737,0.3354,0.0,0.0,0.0,0.0,0.0,0.0,0.0,0.0,0.0,0.0,0.0,0.0,0.0,0.0,0.0,0.0,0.0,0.0,0.0,0.0,0.0,0.0,0.0,0.0,0.0,0.0,0.0,0.0,0.0,0.0,0.0,0.0,0.0,0.0,0.0,0.0,0.0,0.0,0.0,0.0,0.0,0.0,0.0,0.0,0.0,0.0,0.0,0.0,0.0,0.0,0.0,0.0,0.0,0.0,0.0,0.0,0.0,0.0,0.0,0.0,0.0,0.0,0.0,0.0,0.0,0.0,0.0,0.0,0.0,0.0,0.0,0.0,0.0,0.0,0.0,0.0,0.0,0.0,0.0,0.0,0.0,0.0,0.0,0.0,0.0,0.0,0.0,0.0,0.0,0.0,0.0,0.0,0.0,0.0,0.0,0.0,0.0,0.0,0.0,0.0,0.0,0.0,0.0,0.0,0.0,0.0,0.0,0.0,0.0,0.3328,0.4057,0.5167,0.6591,0.5391,0.4761,0.0,0.0,0.0,0.0,0.0,0.0,0.0,0.0,0.0,0.0,0.0,0.0,0.0,0.0,0.0,0.0,0.0,0.0,0.0,0.0,0.0,0.0,0.0,0.0,0.0,0.0,0.0,0.0,0.0,0.0,0.0,0.0,0.0,0.0,0.0,0.0,0.0,0.0,0.0,0.0,0.0,0.0,0.0,0.0,0.0,0.0,0.0,0.0,0.0,0.0,0.0,0.0,0.0,0.0,0.0,0.0,0.0,0.0,0.0,0.0,0.0,0.0,0.0,0.0,0.0,0.0,0.0,0.0,0.0,0.0,0.0,0.0,0.0,0.0,0.0,0.0,0.0,0.0,0.0,0.0,0.0,0.0,0.0,0.0,0.0,0.0,0.0,0.0,0.0,0.0,0.0,0.0,0.0,0.0,0.0,0.0,0.0,0.0,0.0,0.0,0.0,0.0,0.0,0.0,0.0,0.0,0.0,0.0,0.0,0.4274,0.5875,0.7249,0.8158,0.6765,0.5875,0.0,0.0,0.0,0.0,0.0,0.0,0.0,0.0,0.0,0.0,0.0,0.0,0.0,0.0,0.0,0.0,0.0,0.0,0.0,0.0,0.0,0.0,0.0,0.0,0.0,0.0,0.0,0.0,0.0,0.0,0.0,0.0,0.0,0.0,0.0,0.0,0.0,0.0,0.0,0.0,0.0,0.0,0.0,0.0,0.0,0.0,0.0,0.0,0.0,0.0,0.0,0.0,0.0,0.0,0.0,0.0,0.0,0.0,0.0,0.0,0.0,0.0,0.0,0.0,0.0,0.0,0.0,0.0,0.0,0.0,0.0,0.0,0.0,0.0,0.0,0.0,0.0,0.0,0.0,0.0,0.0,0.0,0.0,0.0,0.0,0.0,0.0,0.0,0.0,0.0,0.0,0.0,0.0,0.0,0.0,0.0,0.0,0.0,0.0,0.0,0.0,0.0,0.0,0.0,0.0,0.0,0.0,0.0,0.4641,0.7018,0.9151,0.9607,0.8401,0.7842,0.6599,0.0,0.0,0.0,0.0,0.0,0.0,0.0,0.0,0.0,0.0,0.0,0.0,0.0,0.0,0.0,0.0,0.0,0.0,0.0,0.0,0.0,0.0,0.0,0.0,0.0,0.0,0.0,0.0,0.0,0.0,0.0,0.0,0.0,0.0,0.0,0.0,0.0,0.0,0.0,0.0,0.0,0.0,0.0,0.0,0.0,0.0,0.0,0.0,0.0,0.0,0.0,0.0,0.0,0.0,0.0,0.0,0.0,0.0,0.0,0.0,0.0,0.0,0.0,0.0,0.0,0.0,0.0,0.0,0.0,0.0,0.0,0.0,0.0,0.0,0.0,0.0,0.0,0.0,0.0,0.0,0.0,0.0,0.0,0.0,0.0,0.0,0.0,0.0,0.0,0.0,0.0,0.0,0.0,0.0,0.0,0.0,0.0,0.0,0.0,0.0,0.0,0.0,0.0,0.0,0.0,0.0,0.0,0.0,0.0,0.7114,0.8849,1.0189,1.0978,0.894,0.7792,0.0,0.0,0.0,0.0,0.0,0.0,0.0,0.0,0.0,0.0,0.0,0.0,0.0,0.0,0.0,0.0,0.0,0.0,0.0,0.0,0.0,0.0,0.0,0.0,0.0,0.0,0.0,0.0,0.0,0.0,0.0,0.0,0.0,0.0,0.0,0.0,0.0,0.0,0.0,0.0,0.0,0.0,0.0,0.0,0.0,0.0,0.0,0.0,0.0,0.0,0.0,0.0,0.0,0.0,0.0,0.0,0.0,0.0,0.0,0.0,0.0,0.0,0.0,0.0,0.0,0.0,0.0,0.0,0.0,0.0,0.0,0.0,0.0,0.0,0.0,0.0,0.0,0.0,0.0,0.0,0.0,0.0,0.0,0.0,0.0,0.0,0.0,0.0,0.0,0.0,0.0,0.0,0.0,0.0,0.0,0.0,0.0,0.0,0.0,0.0,0.0,0.0,0.0,0.0,0.0,0.0,0.0,0.0,0.0,0.8716,1.0447,1.1842,1.2782,1.0447,0.9215,0.9394,0.0,0.0,0.0,0.0,0.0,0.0,0.0,0.0,0.0,0.0,0.0,0.0,0.0,0.0,0.0,0.0,0.0,0.0,0.0,0.0,0.0,0.0,0.0,0.0,0.0,0.0,0.0,0.0,0.0,0.0,0.0,0.0,0.0,0.0,0.0,0.0,0.0,0.0,0.0,0.0,0.0,0.0,0.0,0.0,0.0,0.0,0.0,0.0,0.0,0.0,0.0,0.0,0.0,0.0,0.0,0.0,0.0,0.0,0.0,0.0,0.0,0.0,0.0,0.0,0.0,0.0,0.0,0.0,0.0,0.0,0.0,0.0,0.0,0.0,0.0,0.0,0.0,0.0,0.0,0.0,0.0,0.0,0.0,0.0,0.0,0.0,0.0,0.0,0.0,0.0,0.0,0.0,0.0,0.0,0.0,0.0,0.0,0.0,0.0,0.0,0.0,0.0,0.0,0.0,0.0,0.0,0.0,0.0,1.1269,1.3493,1.4337,1.377,1.2107,1.0854,0.0,0.0,0.0,0.0,0.0,0.0,0.0,0.0,0.0,0.0,0.0,0.0,0.0,0.0,0.0,0.0,0.0,0.0,0.0,0.0,0.0,0.0,0.0,0.0,0.0,0.0,0.0,0.0,0.0,0.0,0.0,0.0,0.0,0.0,0.0,0.0,0.0,0.0,0.0,0.0,0.0,0.0,0.0,0.0,0.0,0.0,0.0,0.0,0.0,0.0,0.0,0.0,0.0,0.0,0.0,0.0,0.0,0.0,0.0,0.0,0.0,0.0,0.0,0.0,0.0,0.0,0.0,0.0,0.0,0.0,0.0,0.0,0.0,0.0,0.0,0.0,0.0,0.0,0.0,0.0,0.0,0.0,0.0,0.0,0.0,0.0,0.0,0.0,0.0,0.0,0.0,0.0,0.0,0.0,0.0,0.0,0.0,0.0,0.0,0.0,0.0,0.0,0.0,0.0,0.0,0.0,0.0,0.0,0.0,1.2513,1.4712,1.5496,1.461,1.2754,1.154,0.0,0.0,0.0,0.0,0.0,0.0,0.0,0.0,0.0,0.0,0.0,0.0,0.0,0.0,0.0,0.0,0.0,0.0,0.0,0.0,0.0,0.0,0.0,0.0,0.0,0.0,0.0,0.0,0.0,0.0,0.0,0.0,0.0,0.0,0.0,0.0,0.0,0.0,0.0,0.0,0.0,0.0,0.0,0.0,0.0,0.0,0.0,0.0,0.0,0.0,0.0,0.0,0.0,0.0,0.0,0.0,0.0,0.0,0.0,0.0,0.0,0.0,0.0,0.0,0.0,0.0,0.0,0.0,0.0,0.0,0.0,0.0,0.0,0.0,0.0,0.0,0.0,0.0,0.0,0.0,0.0,0.0,0.0,0.0,0.0,0.0,0.0,0.0,0.0,0.0,0.0,0.0,0.0,0.0,0.0,0.0,0.0,0.0,0.0,0.0,0.0,0.0,0.0,0.0,0.0,0.0,0.0,0.0,1.1629,1.3693,1.5717,1.6586,1.617,1.4715,1.3791,0.0,0.0,0.0,0.0,0.0,0.0,0.0,0.0,0.0,0.0,0.0,0.0,0.0,0.0,0.0,0.0,0.0,0.0,0.0,0.0,0.0,0.0,0.0,0.0,0.0,0.0,0.0,0.0,0.0,0.0,0.0,0.0,0.0,0.0,0.0,0.0,0.0,0.0,0.0,0.0,0.0,0.0,0.0,0.0,0.0,0.0,0.0,0.0,0.0,0.0,0.0,0.0,0.0,0.0,0.0,0.0,0.0,0.0,0.0,0.0,0.0,0.0,0.0,0.0,0.0,0.0,0.0,0.0,0.0,0.0,0.0,0.0,0.0,0.0,0.0,0.0,0.0,0.0,0.0,0.0,0.0,0.0,0.0,0.0,0.0,0.0,0.0,0.0,0.0,0.0,0.0,0.0,0.0,0.0,0.0,0.0,0.0,0.0,0.0,0.0,0.0,0.0,0.0,0.0,0.0,0.0,0.0,0.0,1.288,1.503,1.6696,1.7803,1.8197,1.7266,1.6566,0.0,0.0,0.0,0.0,0.0,0.0,0.0,0.0,0.0,0.0,0.0,0.0,0.0,0.0,0.0,0.0,0.0,0.0,0.0,0.0,0.0,0.0,0.0,0.0,0.0,0.0,0.0,0.0,0.0,0.0,0.0,0.0,0.0,0.0,0.0,0.0,0.0,0.0,0.0,0.0,0.0,0.0,0.0,0.0,0.0,0.0,0.0,0.0,0.0,0.0,0.0,0.0,0.0,0.0,0.0,0.0,0.0,0.0,0.0,0.0,0.0,0.0,0.0,0.0,0.0,0.0,0.0,0.0,0.0,0.0,0.0,0.0,0.0,0.0,0.0,0.0,0.0,0.0,0.0,0.0,0.0,0.0,0.0,0.0,0.0,0.0,0.0,0.0,0.0,0.0,0.0,0.0,0.0,0.0,0.0,0.0,0.0,0.0,0.0,0.0,0.0,0.0,0.0,0.0,0.0,0.0,0.0,0.0,1.377,1.6759,1.8212,1.9488,2.0873,1.8619,1.6991,0.0,0.0,0.0,0.0,0.0,0.0,0.0,0.0,0.0,0.0,0.0,0.0,0.0,0.0,0.0,0.0,0.0,0.0,0.0,0.0,0.0,0.0,0.0,0.0,0.0,0.0,0.0,0.0,0.0,0.0,0.0,0.0,0.0,0.0,0.0,0.0,0.0,0.0,0.0,0.0,0.0,0.0,0.0,0.0,0.0,0.0,0.0,0.0,1.0906,0.0,0.0,0.0,0.0,0.0,0.0,0.0,0.0,0.0,0.0,0.0,0.0,0.0,0.0,0.0,0.0,0.0,0.0,0.0,0.0,0.0,0.0,0.0,0.0,0.0,0.0,0.0,0.0,0.0,0.0,0.0,0.0,0.0,0.0,0.0,0.0,0.0,0.0,0.0,0.0,0.0,0.0,0.0,0.0,0.0,0.0,0.0,0.0,0.0,0.0,0.0,0.0,0.0,0.0,0.0,0.0,0.0,0.0,0.0,1.5523,1.7924,1.9783,2.1266,2.2153,2.0922,1.9257,0.0,0.0,0.0,0.0,0.0,0.0,0.0,0.0,0.0,0.0,0.0,0.0,0.0,0.0,0.0,0.0,0.0,0.0,0.0,0.0,0.0,0.0,0.0,0.0,0.0,0.0,0.0,0.0,0.0,0.0,0.0,0.0,0.0,0.0,0.0,0.0,0.0,0.0,0.0,0.0,0.0,0.0,0.0,0.0,0.0,0.0,0.0,0.0,0.0,0.0,0.0,0.0,0.0,0.0,0.0,0.0,0.0,0.0,0.0,0.0,0.0,0.0,0.0,0.0,0.0,0.0,0.0,0.0,0.0,0.0,0.0,0.0,0.0,0.0,0.0,0.0,0.0,0.0,0.0,0.0,0.0,0.0,0.0,0.0,0.0,0.0,0.0,0.0,0.0,0.0,0.0,0.0,0.0,0.0,0.0,0.0,0.0,0.0,0.0,0.0,0.0,0.0,0.0,0.0,0.0,0.0,0.0,1.4512,1.7235,1.899,2.1212,2.2631,2.3149,2.3294,2.1875,1.8926,0.0,0.0,0.0,0.0,0.0,0.0,0.0,0.0,0.0,0.0,0.0,0.0,0.0,0.0,0.0,0.0,0.0,0.0,0.0,0.0,0.0,0.0,0.0,0.0,0.0,0.0,0.0,0.0,0.0,0.0,0.0,0.0,0.0,0.0,0.0,0.0,0.0,0.0,1.0184,1.3068,0.0,0.0,0.0,0.0,0.0,0.0,0.0,0.0,1.3203,0.0,0.0,0.0,0.0,0.0,0.0,0.0,0.0,0.0,0.0,0.0,0.0,0.0,0.0,0.0,0.0,0.0,0.0,0.0,0.0,0.0,0.0,0.0,0.0,0.0,0.0,0.0,0.0,0.0,0.0,0.0,0.0,0.0,0.0,0.0,0.0,0.0,0.0,0.0,0.0,0.0,0.0,0.0,0.0,0.0,0.0,0.0,0.0,0.0,0.0,0.0,0.0,0.0,0.0,0.0,0.0,1.3108,1.5121,1.7706,2.0961,2.2262,2.3299,2.4117,2.3855,2.2441,1.9785,0.0,0.0,0.0,0.0,0.0,0.0,0.0,0.0,0.0,0.0,0.0,0.0,0.0,0.0,0.0,0.0,0.0,0.0,0.0,0.0,0.0,0.0,0.0,0.0,0.0,0.0,0.0,0.0,0.0,0.0,0.0,0.0,0.0,0.0,0.0,0.0,0.0,0.0,0.0,1.7049,1.8178,0.0,0.0,0.0,0.0,0.0,0.0,0.0,0.0,1.4387,0.0,0.0,0.0,0.0,0.0,0.0,0.0,0.0,0.0,0.0,0.0,0.0,0.0,0.0,0.0,0.0,0.0,0.0,0.0,0.0,0.0,0.0,0.0,0.0,0.0,0.0,0.0,0.0,0.0,0.0,0.0,0.0,0.0,0.0,0.0,0.0,0.0,0.0,0.0,0.0,0.0,0.0,0.0,0.0,0.0,0.0,0.0,0.0,0.0,0.0,0.0,0.0,0.0,0.0,0.0,1.363,1.7199,2.0035,2.1943,2.3353,2.4392,2.5078,2.4473,2.291,0.0,0.0,0.0,0.0,0.0,0.0,0.0,0.0,0.0,0.0,0.0,0.0,0.0,0.0,0.0,0.0,0.0,0.0,0.0,0.0,0.0,0.0,0.0,0.0,0.0,0.0,0.0,0.0,0.0,0.0,0.0,0.0,0.0,0.0,0.0,0.0,0.0,0.0,0.0,0.0,1.7996,1.9658,2.1256,0.0,0.0,0.0,0.0,0.0,0.0,1.6136,1.5714,0.0,0.0,0.0,0.0,0.0,0.0,0.0,0.0,0.0,0.0,0.0,0.0,0.0,0.0,0.0,0.0,0.0,0.0,0.0,0.0,0.0,0.0,0.0,0.0,0.0,0.0,0.0,0.0,0.0,0.0,0.0,0.0,0.0,0.0,0.0,0.0,0.0,0.0,0.0,0.0,0.0,0.0,0.0,0.0,0.0,0.0,0.0,0.0,0.0,0.0,0.0,0.0,0.0,0.0,0.0,1.4013,1.8938,2.1967,2.2809,2.4504,2.5508,2.584,2.5,2.3301,0.0,0.0,0.0,0.0,0.0,0.0,0.0,0.0,0.0,0.0,0.0,0.0,0.0,0.0,0.0,0.0,0.0,0.0,0.0,0.0,0.0,0.0,0.0,0.0,0.0,0.0,0.0,0.0,0.0,0.0,0.0,0.0,0.0,0.0,0.0,0.0,0.0,0.0,0.0,0.0,0.0,2.0819,2.2805,2.155,0.0,0.0,0.0,0.0,1.8511,1.8385,0.0,0.0,0.0,0.0,0.0,0.0,0.0,0.0,0.0,0.0,0.0,0.0,0.0,0.0,0.0,0.0,0.0,0.0,0.0,0.0,0.0,0.0,0.0,0.0,0.0,0.0,0.0,0.0,0.0,0.0,0.0,0.0,0.0,0.0,0.0,0.0,0.0,0.0,0.0,0.0,0.0,0.0,0.0,0.0,0.0,0.0,0.0,0.0,0.0,0.0,0.0,0.0,0.0,0.0,0.0,0.0,1.5106,1.8667,2.1472,2.3551,2.5391,2.6269,2.6309,2.5469,2.3594,0.0,0.0,0.0,0.0,0.0,0.0,0.0,0.0,0.0,0.0,0.0,0.0,0.0,0.0,0.0,0.0,0.0,0.0,0.0,0.0,0.0,0.0,0.0,0.0,0.0,0.0,0.0,0.0,0.0,0.0,0.0,0.0,0.0,0.0,0.0,0.0,0.0,0.0,0.0,0.0,0.0,2.2418,2.3007,2.3331,2.3416,0.0,0.0,2.2289,2.4267,2.4205,0.0,0.0,0.0,0.0,0.0,0.0,0.0,0.0,0.0,0.0,0.0,0.0,0.0,0.0,0.0,0.0,0.0,0.0,0.0,0.0,0.0,0.0,0.0,0.0,0.0,0.0,0.0,0.0,0.0,0.0,0.0,0.0,0.0,0.0,0.0,0.0,0.0,0.0,0.0,0.0,0.0,0.0,0.0,0.0,0.0,0.0,0.0,0.0,0.0,0.0,0.0,0.0,0.0,0.0,0.0,1.4122,1.6172,2.014,2.2999,2.4492,2.5742,2.6504,2.6738,2.6366,2.4337,0.0,0.0,0.0,0.0,0.0,0.0,0.0,0.0,0.0,0.0,0.0,0.0,0.0,0.0,0.0,0.0,0.0,0.0,0.0,0.0,0.0,0.0,0.0,0.0,0.0,0.0,0.0,0.0,0.0,0.0,0.0,0.0,0.0,0.0,0.0,0.0,0.0,0.0,0.0,0.0,0.0,0.0,2.4393,2.4821,0.0,0.0,0.0,2.4883,2.5511,0.0,0.0,0.0,0.0,0.0,0.0,0.0,0.0,0.0,0.0,0.0,0.0,0.0,0.0,0.0,0.0,0.0,0.0,0.0,0.0,0.0,0.0,0.0,0.0,0.0,0.0,0.0,0.0,0.0,0.0,0.0,0.0,0.0,0.0,0.0,0.0,0.0,0.0,0.0,0.0,0.0,0.0,0.0,0.0,0.0,0.0,0.0,0.0,0.0,0.0,0.0,0.0,0.0,0.0,0.0,0.0,0.0,1.6953,2.1562,2.4375,2.5215,2.6191,2.6855,2.7148,2.7299,0.0,0.0,0.0,0.0,0.0,0.0,0.0,0.0,0.0,0.0,0.0,0.0,0.0,0.0,0.0,0.0,0.0,0.0,0.0,0.0,0.0,0.0,0.0,0.0,0.0,0.0,0.0,0.7263,0.0,0.0,0.0,0.0,0.0,0.0,0.0,0.0,0.0,0.0,0.0,0.0,0.0,0.0,2.3132,2.5924,2.65,2.7193,0.0,0.0,2.7544,2.767,2.9076,2.9328,0.0,0.0,0.0,0.0,0.0,0.0,0.0,0.0,0.0,0.0,0.0,0.0,0.0,0.0,0.0,0.0,0.0,0.0,0.0,0.0,0.0,0.0,0.0,0.0,0.0,0.0,0.0,0.0,0.6272,0.0,0.0,0.0,0.0,0.0,0.0,0.0,0.0,0.0,0.0,0.0,0.0,0.0,0.0,0.0,0.0,0.0,0.0,0.0,0.0,0.0,0.0,0.0,0.0,0.0,1.5625,1.7422,2.1973,2.4805,2.5684,2.6934,2.7598,2.7721,2.843,2.6535,0.0,0.0,0.0,0.0,0.0,0.0,0.0,0.0,0.0,0.0,0.0,0.0,0.0,0.0,0.0,0.0,0.0,0.0,0.0,0.0,0.0,0.0,0.0,0.0,0.0,0.0,0.0,0.0,0.0,0.0,0.0,0.0,0.0,0.0,0.0,0.0,0.0,0.0,0.0,0.0,0.0,2.4202,2.7405,2.8795,3.0432,0.0,3.1687,3.1035,3.3018,3.342,3.1938,2.7264,0.0,0.0,0.0,0.0,0.0,0.0,0.0,0.0,0.0,0.0,0.0,0.0,0.0,0.0,0.0,0.0,0.0,0.0,0.0,0.0,0.0,0.0,0.0,0.0,0.0,0.6016,0.6183,0.0,0.6413,0.0,0.0,0.0,0.0,0.0,0.0,0.0,0.0,0.0,0.0,0.0,0.0,0.0,0.0,0.0,0.0,0.0,0.0,0.0,0.0,0.0,0.0,0.0,0.0,1.6016,1.7793,2.2422,2.5254,2.6133,2.7129,2.7773,2.8047,2.9411,2.8199,0.0,0.0,0.0,0.0,0.0,0.0,0.0,0.0,0.0,0.0,0.0,0.0,0.0,0.0,0.0,0.0,0.0,0.0,0.0,0.0,0.0,0.0,0.0,0.0,0.0,0.0,0.0,0.0,1.3257,1.3552,1.1867,0.0,0.0,0.0,0.0,0.0,0.0,0.0,0.0,0.0,0.0,2.5721,2.8366,2.9866,0.0,0.0,3.3194,3.2918,3.3771,3.3621,3.239,2.9478,2.7243,0.0,0.0,0.0,0.0,0.0,0.0,0.0,0.0,0.0,0.0,0.0,0.0,0.0,0.0,0.0,0.0,0.0,0.0,0.0,0.0,0.0,0.0,0.0,0.0,0.0,0.0,0.6525,0.6577,0.0,0.0,0.0,0.0,0.0,0.0,0.0,0.0,0.0,0.0,0.0,0.0,0.0,0.0,0.0,0.0,0.0,0.0,0.0,0.0,0.0,0.0,0.0,0.0,1.6651,1.8594,2.3162,2.619,2.7539,2.8104,2.8705,2.9303,3.0932,3.0164,0.0,0.0,0.0,0.0,0.0,0.0,0.0,0.0,0.0,0.0,0.0,0.0,0.0,0.0,0.0,0.0,0.0,0.0,0.0,0.0,0.0,0.0,0.0,0.0,0.0,0.0,0.0,0.0,1.4644,1.4732,1.2791,0.0,0.0,0.0,0.0,0.0,0.0,0.0,0.0,0.0,0.0,2.6846,2.9856,3.1079,3.2122,3.3671,3.3621,3.3395,3.3395,3.3495,3.2842,3.0708,0.0,0.0,0.0,0.0,0.0,0.0,0.0,0.0,0.0,0.0,0.0,0.0,0.0,0.0,0.0,0.0,0.0,0.0,0.0,0.0,0.0,0.0,0.0,0.0,0.0,0.0,0.0,0.6654,0.0,0.0,0.6629,0.0,0.0,0.0,0.0,0.0,0.0,0.0,0.0,0.0,0.0,0.0,0.0,0.0,0.0,0.0,0.0,0.0,0.0,0.0,0.0,0.0,0.0,1.7592,2.007,2.4226,2.7598,2.9829,2.9947,3.0411,3.1462,3.3078,3.2323,2.9044,0.0,0.0,0.0,0.0,0.0,0.0,0.0,0.0,0.0,0.0,0.0,0.0,0.0,0.0,0.0,0.0,0.0,0.0,0.0,0.0,0.0,0.0,0.0,0.0,0.0,0.0,1.0373,1.2002,1.3308,0.0,0.0,0.0,0.0,0.0,0.0,0.0,0.0,0.0,2.4718,2.5448,2.7285,3.2256,3.2382,3.2516,3.3721,3.3043,3.2315,3.2365,3.3621,3.3571,0.0,0.0,0.0,0.0,0.0,0.0,0.0,0.0,0.0,0.0,0.0,0.0,0.0,0.0,0.0,0.0,0.0,0.0,0.0,0.0,0.0,0.0,0.0,0.0,0.0,0.0,0.0,1.1069,1.0831,0.0,0.0,0.0,0.0,0.0,0.0,0.0,0.0,0.0,0.0,0.0,2.1275,2.3194,0.0,0.0,0.0,0.0,0.0,0.0,0.0,0.0,0.0,0.0,0.0,0.0,1.9228,2.129,2.613,2.916,3.0046,3.068,3.1257,3.1891,3.3277,3.2911,3.0636,0.0,0.0,0.0,0.0,0.0,0.0,0.0,0.0,0.0,0.0,0.0,0.0,0.0,0.0,0.0,0.0,0.0,0.0,0.0,0.0,0.0,0.0,0.0,0.0,0.0,1.3298,0.0,0.0,0.0,0.0,0.0,0.0,0.0,0.0,0.0,0.0,2.0461,2.3691,2.6866,2.8475,3.0318,3.2767,3.3532,3.4212,0.0,0.0,0.0,0.0,0.0,0.0,0.0,0.0,0.0,0.0,0.0,0.0,0.0,3.222,3.2295,2.7683,2.6475,2.6128,2.6079,0.0,0.0,0.0,0.0,0.0,0.0,0.0,0.0,0.0,0.0,0.0,0.0,0.0,0.0,1.5098,1.4711,1.4852,0.0,0.0,0.0,0.0,0.0,0.0,0.0,0.0,2.2613,2.4787,2.5691,2.7598,2.7482,2.5728,2.5325,2.3461,0.0,0.0,0.0,0.0,0.0,0.0,0.0,0.0,2.1342,2.3872,2.7827,3.0404,3.1399,3.1901,3.2497,3.3277,3.419,3.419,3.3194,3.1512,2.9377,0.0,0.0,0.0,0.0,0.0,0.0,0.0,0.0,0.0,0.0,0.0,0.0,0.0,0.0,0.0,0.0,0.0,0.0,0.0,0.0,0.0,0.0,0.0,1.5904,0.0,0.0,0.0,0.0,0.0,0.0,0.0,0.0,0.0,2.0366,2.3552,2.6841,2.9227,3.0959,3.2315,3.3244,0.0,0.0,0.0,0.0,0.0,0.0,0.0,3.3068,3.3571,3.2215,3.1196,3.1547,3.3966,3.5425,3.4266,0.0,0.0,3.2159,3.1131,3.0983,3.0837,3.1721,3.234,3.1806,3.2775,3.3674,0.0,0.0,0.0,0.0,1.5016,0.0,0.0,0.0,1.8435,1.8654,0.0,1.9591,0.0,0.0,0.0,0.0,1.562,1.8523,0.0,0.0,2.762,2.9603,3.0658,3.0708,3.1439,3.262,3.147,3.0276,2.8651,2.331,1.9074,0.0,0.0,0.0,0.0,0.0,2.3909,2.7584,2.932,3.1414,3.3839,3.3458,3.3982,3.5549,3.5886,3.6148,3.6282,3.3822,3.1612,2.988,2.3828,0.0,0.0,0.0,0.0,0.0,0.0,0.0,0.0,0.0,0.0,0.0,0.0,0.0,0.0,0.0,0.0,0.0,0.0,0.0,0.0,1.7997,0.0,0.0,0.0,0.0,0.0,0.0,0.0,0.0,0.0,2.5552,2.3025,2.5912,2.9227,3.1813,0.0,0.0,0.0,0.0,3.4212,3.4123,3.4098,3.3997,3.352,3.5504,3.696,3.6533,0.0,0.0,3.5745,3.7612,3.8425,3.5114,3.7923,4.018,3.8477,3.6751,3.57,3.57,3.6336,3.6916,3.7063,3.8532,4.0081,2.3963,0.0,0.0,0.0,0.0,1.9323,2.094,2.4178,2.3913,2.3814,2.3821,2.4493,0.0,0.0,0.0,0.0,0.0,0.0,2.5413,2.8672,3.0062,3.1712,3.3545,3.3545,3.3507,3.3512,3.3267,3.2962,3.2568,3.0655,2.5824,1.8533,0.0,0.0,0.0,0.0,2.6992,2.8418,3.1064,3.315,3.4563,3.4795,3.5599,3.7023,3.7244,3.744,3.7513,3.6383,3.4625,3.2265,3.1813,0.0,0.0,0.0,0.0,0.0,0.0,0.0,0.0,0.0,0.0,0.0,0.0,0.0,0.0,0.0,0.0,0.0,0.0,0.0,1.6453,2.0458,2.2381,0.0,0.0,0.0,0.0,0.0,0.0,0.0,0.0,0.0,2.8197,2.9854,3.1336,0.0,0.0,3.3571,3.3345,3.5002,3.6408,3.6759,3.7513,0.0,3.8341,3.7713,3.7538,3.8567,3.9597,3.9823,3.8592,3.9848,4.0598,3.9138,4.0653,4.1925,4.1435,4.0684,4.0047,3.991,4.0213,4.0488,4.0416,4.1105,4.182,2.895,2.5344,2.3526,2.3798,2.5205,2.4055,2.5614,2.8987,2.869,2.8602,2.8834,2.9547,2.8078,2.5079,2.4611,0.0,0.0,0.0,2.9061,3.2201,3.253,3.3545,3.4977,3.4826,3.4776,3.4851,3.4198,3.4085,3.4366,3.3682,2.996,2.3685,0.0,2.4849,2.3879,2.7092,2.9301,3.0473,3.2511,3.4155,3.5065,3.6031,3.6947,3.7767,3.7916,3.799,3.799,3.7688,3.6734,3.5127,3.5881,3.3766,0.0,0.0,0.0,0.0,0.0,0.0,0.0,0.0,0.0,0.0,0.0,1.3568,1.1055,0.0,0.0,0.0,2.0593,2.2152,2.2669,2.5459,0.0,0.0,0.0,0.0,0.0,0.0,0.0,2.7307,2.9428,3.1185,3.2306,3.3294,3.3872,3.3872,3.417,3.4595,3.5002,0.0,3.8015,3.8592,3.9446,4.0124,4.045,3.9747,3.9572,4.0802,4.1254,4.1279,4.0777,4.1377,4.1511,4.1132,4.208,4.3108,4.2549,4.3048,4.3286,4.2595,4.262,4.2734,4.2678,4.2763,4.3021,3.2416,3.2089,2.8819,2.84,2.9802,2.8682,2.9605,3.1889,3.2455,3.2802,3.296,3.4232,3.3252,3.0411,2.817,0.0,3.2444,3.1627,3.2813,3.5536,3.5086,3.5193,3.5437,3.5077,3.5353,3.6232,3.4801,3.4349,3.4776,3.3796,3.2265,3.0357,3.0443,3.0289,2.9932,3.0055,3.1185,3.3169,3.3696,3.4525,3.5562,3.7287,3.814,3.814,3.814,3.814,3.814,3.804,3.799,3.7965,3.7036,3.506,3.2087,0.0,0.0,0.0,0.0,0.0,0.0,0.0,0.0,0.0,0.0,0.0,0.0,0.0,0.0,2.4462,2.9163,0.0,3.196,3.1521,0.0,0.0,0.0,2.6582,2.794,2.9176,3.0315,3.1315,0.0,0.0,3.5512,3.6157,3.6558,3.6784,3.6098,3.6177,3.7741,3.8392,3.9068,3.9747,4.035,4.0727,4.1003,4.1656,4.2359,4.2886,4.3112,4.2886,4.2459,4.2359,4.1932,4.1367,4.2944,4.4273,4.3084,4.4881,4.5774,4.4265,4.4095,4.4153,4.4269,4.4298,4.4501,3.4123,3.3997,3.2751,3.2281,3.223,3.1978,3.2399,3.3381,3.3553,3.3781,3.4274,3.5219,3.5459,3.5056,3.4672,3.5292,3.6557,3.6681,3.707,3.7564,3.7206,3.6544,3.5554,3.583,3.5881,3.5755,3.5755,3.5855,3.5931,3.5303,3.4901,3.4751,3.3997,3.2533,3.0583,3.2491,3.3796,3.4324,3.4449,3.5253,3.6784,3.8417,3.9295,3.9295,3.9295,3.9295,3.9295,3.8467,3.799,3.799,3.7764,3.6896,3.5478,3.3052,0.0,0.0,0.0,0.0,0.0,0.0,0.0,0.0,0.0,2.1463,1.7695,0.0,2.7658,0.0,3.3244,3.4396,3.0631,3.2378,0.0,0.0,3.1076,3.129,3.5324,3.332,3.2691,3.5269,3.5429,3.5931,3.7606,3.7711,3.8241,3.9873,3.8517,3.754,3.8015,3.9597,4.0671,4.1003,4.1756,4.2534,4.2911,4.3589,4.4041,4.4217,4.4217,4.4166,4.4066,4.4041,4.4282,4.4849,4.5739,4.6451,4.6578,4.7543,4.7643,4.6964,4.6137,4.5752,4.6182,4.639,4.6633,3.4349,3.4349,3.4299,3.4098,3.3796,3.3545,3.3897,3.4625,3.4625,3.4801,3.5102,3.5851,3.6556,3.709,3.7308,3.809,3.9058,3.8727,3.8697,3.8858,3.7608,3.6625,3.6055,3.5764,3.5855,3.6257,3.6081,3.6132,3.6307,3.5805,3.5579,3.5629,3.5278,3.4324,3.2918,3.4098,3.469,3.4705,3.5776,3.7091,3.8444,3.918,3.9367,3.8907,3.8868,3.8718,3.8241,3.809,3.7663,3.696,3.6533,3.6223,3.596,3.323,3.1698,0.0,0.0,0.0,0.0,0.0,0.0,0.0,0.0,0.0,0.0,0.0,3.1622,3.0223,3.5275,3.6951,3.2893,3.5438,3.736,3.7287,3.5999,3.6453,3.975,3.7494,3.6035,3.7052,3.7913,3.9207,4.1063,4.1141,4.1282,4.2311,4.131,4.0415,4.0077,4.1493,4.2528,4.2434,4.3162,4.3815,4.4141,4.4418,4.4618,4.4618,4.5081,4.54,4.54,4.5623,4.6003,4.6724,4.7242,4.7509,4.764,4.8195,4.8499,4.8085,4.7549,4.7157,4.7281,4.7594,4.7869,3.3796,3.3847,3.4324,3.455,3.4575,3.4098,3.4474,3.5429,3.5454,3.5429,3.5386,3.5931,3.6599,3.7404,3.7677,3.8639,4.0067,3.9054,3.8891,3.9397,3.7402,3.656,3.6776,3.5596,3.5814,3.7267,3.615,3.5974,3.6521,3.5974,3.5403,3.4977,3.5495,3.5789,3.5713,3.54,3.5188,3.5166,3.7395,3.8943,3.9789,3.9453,3.8825,3.7938,3.814,3.7855,3.7013,3.7703,3.743,3.6084,3.483,3.4581,3.5435,3.453,3.3367,0.0,3.2046,0.0,0.0,0.0,0.0,0.0,0.0,0.0,0.0,3.3117,3.3154,3.0818,3.6603,3.9461,3.699,3.9401,4.1227,4.1412,4.1122,4.1331,4.227,4.114,3.9747,3.828,4.0576,4.3094,4.5002,4.5084,4.4576,4.4204,4.4124,4.3833,4.3099,4.3466,4.3827,4.3865,4.4367,4.4669,4.5067,4.5143,4.5219,4.5425,4.6228,4.6829,4.6882,4.7184,4.7541,4.7807,4.8083,4.8134,4.7659,4.8419,4.8876,4.8692,4.8509,4.8461,4.8151,4.8254,4.85,3.3219,3.3244,3.3345,3.3646,3.4048,3.3947,3.4274,3.4876,3.4876,3.4876,3.4901,3.4977,3.5118,3.539,3.6849,3.7687,3.8084,3.9247,3.9434,3.8891,3.8726,3.8106,3.7063,3.7,3.7339,3.7838,3.6734,3.6726,3.7546,3.6607,3.6157,3.615,3.697,3.7157,3.6831,0.0,0.0,0.0,3.8272,3.8602,3.8826,3.874,3.8668,3.846,3.8921,0.0,3.9653,3.8972,3.871,3.8819,3.5765,0.0,3.8084,0.0,0.0,0.0,0.0,0.0,0.0,0.0,0.0,0.0,3.4896,3.4986,3.4244,3.7613,3.8732,3.6327,3.9906,4.1981,4.0742,4.1895,4.2524,4.1782,4.262,4.3546,4.4036,4.3304,4.2726,4.2768,4.3245,4.4869,4.7969,4.6883,4.5505,4.584,4.6274,4.6571,4.625,4.4908,4.4143,4.4392,4.5203,4.574,4.6616,4.7094,4.7597,4.8672,4.9013,4.9185,4.9077,4.8868,4.9091,4.9792,4.9721,4.9568,4.9839,5.0208,5.0144,4.9805,4.9688,4.9659,4.9446,4.9388,4.9572,3.3093,3.3093,3.3093,3.3244,0.0,3.3495,3.3646,3.3947,3.45,3.4726,3.4726,3.5124,3.5302,3.5454,3.725,3.8007,3.809,3.9373,3.9693,3.9211,3.8949,3.8559,3.8136,3.7891,3.8256,3.897,3.816,3.8201,3.8831,3.8083,3.7795,3.7795,3.8225,3.8362,3.8185,3.9435,3.9953,3.9563,3.9766,4.0106,4.047,4.024,3.9907,3.9546,4.0172,0.0,0.0,0.0,0.0,0.0,0.0,0.0,0.0,3.6465,3.624,3.7622,3.6383,3.5978,3.6846,3.6877,3.7559,3.9219,3.9687,3.942,3.8411,4.0492,4.1294,4.0068,4.2,4.3271,4.3189,4.3708,4.4036,4.3864,4.4153,4.4588,4.5049,4.4608,4.4767,4.5884,4.5977,4.6894,4.9338,4.861,4.7483,4.7225,4.7426,4.7576,4.7242,4.6777,4.6578,4.7127,4.7466,4.7906,4.8425,4.8486,4.8679,4.9328,4.9666,4.983,4.9803,4.9844,5.0114,5.0709,5.0325,5.0083,5.0475,5.0584,5.0496,5.0367,5.0279,5.0279,5.022,5.022,5.0346,3.3093,3.3093,3.3093,3.3093,3.3093,3.3093,3.3154,3.3401,3.4111,0.0,0.0,3.5435,3.5757,3.6016,3.7676,3.8415,3.8527,3.931,3.9715,3.975,3.8999,3.8978,3.9592,3.8882,3.9169,4.0247,3.9605,3.9543,4.0068,3.9516,3.9183,3.921,3.9387,3.9618,3.9815,4.0928,4.1449,4.1141,4.1312,4.1796,4.2453,4.182,4.1334,4.0828,4.1424,4.1079,3.9869,4.0761,4.043,3.8749,3.8555,3.8331,3.8201,3.8173,3.8945,4.0538,4.1025,4.1644,4.2633,4.3002,4.3366,4.3796,4.3148,4.2437,4.191,4.2393,4.2761,4.288,4.3872,4.463,4.4929,4.5201,4.5432,4.5692,4.5314,4.5314,4.5924,4.5605,4.6003,4.7837,4.7961,4.8345,4.9481,4.9663,4.9375,4.8553,4.8494,4.8415,4.8121,4.8409,4.8622,4.9054,4.8996,4.9409,4.9717,4.9501,4.9228,4.961,4.9895,5.0086,5.0209,5.0427,5.0813,5.0942,5.0525,5.03,5.0405,5.056,5.0501,5.0596,5.0596,5.0567,5.0793,5.0793,5.0793,3.3093,3.3093,3.3093,3.3093,3.3093,3.3093,3.3496,3.4173,3.3563,3.3725,3.4464,3.4549,3.5024,3.571,3.6702,3.7433,3.7749,3.8546,3.9283,3.983,4.0187,4.0502,4.0862,4.0576,4.0916,4.1537,4.0173,3.9826,4.0343,3.9678,3.9183,3.9271,4.0,4.097,4.2081,4.2765,4.3054,4.2851,4.2047,4.182,4.2051,4.1615,4.1499,4.1851,4.2414,4.2993,4.3515,4.3141,4.3084,4.3338,4.2797,4.2596,4.2967,4.2965,4.3394,4.4157,4.4353,4.4548,4.4863,4.4972,4.5049,4.5095,4.4504,4.3337,4.167,4.3,4.4287,4.4855,4.6215,4.6963,4.6432,4.6577,4.634,4.5374,4.5488,4.5982,4.6592,4.6592,4.6877,4.7808,4.8316,4.8827,4.9513,4.9756,4.9669,4.9531,4.9721,5.0356,5.0309,4.9348,4.83,4.8272,4.8272,4.8709,4.9681,4.9755,5.0094,5.1087,5.1206,5.1135,5.1135,5.0946,5.0895,5.1022,5.069,5.0464,5.0501,5.0501,5.0567,5.0728,5.0728,5.0822,5.1011,5.1135,5.1135,3.3093,3.3093,3.3093,3.3093,3.3154,3.3556,3.4288,3.5032,3.4963,3.491,3.5141,3.5763,3.6334,3.6739,3.7821,3.853,3.8945,3.9556,4.0112,4.067,4.1198,4.1517,4.1791,4.1724,4.1922,4.2281,4.1616,4.1449,4.1645,4.131,4.1113,4.1141,4.1877,4.2589,4.3244,4.403,4.4442,4.4356,4.369,4.3257,4.3222,4.3486,4.3833,4.4179,4.4733,4.5055,4.5194,4.5079,4.4902,4.4857,4.4604,4.4435,4.4549,4.4549,4.4634,4.4832,4.4832,4.4935,4.5182,4.5314,4.5314,4.5314,4.5071,4.4496,4.3599,4.4534,4.5371,4.5873,4.7339,4.8059,4.7377,4.7051,4.6726,4.6342,4.6665,4.6868,4.7007,4.7541,4.7858,4.8188,4.8727,4.9326,4.994,5.0057,5.0086,5.0116,5.0408,5.0701,5.0964,5.014,4.9558,5.002,5.0294,5.0606,5.1091,5.0933,5.0962,5.1461,5.1198,5.1022,5.0964,5.0798,5.0778,5.0884,5.0744,5.0787,5.0852,5.0852,5.0947,5.0917,5.1011,5.1105,5.1229,5.1229,5.1229,3.324,3.3386,3.3411,3.3471,3.381,3.4835,3.5602,3.6276,3.7042,3.7123,3.6952,3.7476,3.7942,3.8399,3.9282,3.9888,4.0379,4.0764,4.1134,4.1661,4.2018,4.2252,4.2555,4.2555,4.2688,4.2769,4.2769,4.2769,4.2688,4.2688,4.2777,4.2953,4.3425,4.3808,4.4133,4.502,4.5405,4.5435,4.5341,4.5053,4.4726,4.5347,4.5874,4.6166,4.6668,4.6694,4.6334,4.6476,4.6292,4.5783,4.5753,4.5669,4.5501,4.5501,4.5416,4.5276,4.5276,4.5361,4.5531,4.5669,4.5753,4.5753,4.5753,4.5753,4.5783,4.6058,4.6356,4.6651,4.7605,4.8147,4.7822,4.7466,4.7288,4.7523,4.77,4.7698,4.7665,4.8139,4.861,4.8711,4.9163,4.9705,5.0235,5.0442,5.0501,5.0501,5.0501,5.0501,5.0501,5.0501,5.0943,5.1493,5.1876,5.1718,5.1945,5.1464,5.114,5.1208,5.0854,5.0581,5.0589,5.053,5.0567,5.0757,5.0852,5.0917,5.1135,5.1229,5.1229,5.1229,5.1229,5.1289,5.1468,5.1498,5.1379,3.3581,3.423,3.434,3.4868,3.5817,3.7195,3.7975,3.8375,3.9712,4.0393,4.0071,3.8774,3.9045,4.0373,4.0197,4.0546,4.128,4.1288,4.1719,4.2327,4.2496,4.2769,4.293,4.309,4.317,4.2981,4.301,4.293,4.2769,4.2718,4.3012,4.3484,4.3714,4.4196,4.511,4.5634,4.5872,4.581,4.6608,4.6695,4.6018,4.6137,4.6314,4.6814,4.6844,4.6989,4.7073,4.7219,4.7189,4.713,4.707,4.71,4.71,4.71,4.71,4.7013,4.7013,4.7043,4.71,4.713,4.707,4.713,4.704,4.704,4.707,4.713,4.7189,4.7279,4.7374,4.7614,4.7882,4.8298,4.8267,4.779,4.8204,4.8529,4.8466,4.8558,4.8761,4.9228,4.9498,4.9764,5.0508,5.0626,5.0501,5.0596,5.0596,5.0596,5.0596,5.0662,5.0757,5.0935,5.0869,5.0766,5.0766,5.0677,5.0744,5.0618,5.056,5.0596,5.0567,5.0662,5.0793,5.0917,5.1011,5.1105,5.1229,5.1229,5.1229,5.1229,5.1289,5.1409,5.1917,5.2097,5.1917,3.5116,3.5494,3.5927,3.6851,3.807,3.8752,3.9262,3.9926,4.0803,4.1332,4.1469,4.0723,4.0694,4.1204,4.1208,4.1558,4.2115,4.2195,4.2423,4.293,4.301,4.309,4.317,4.325,4.325,4.314,4.317,4.317,4.315,4.3477,4.3805,4.4162,4.4846,4.5446,4.5865,4.6453,4.6751,4.6638,4.7106,4.7135,4.6931,4.6844,4.6844,4.6931,4.7019,4.7193,4.7309,4.7309,4.7309,4.7309,4.7309,4.7309,4.7309,4.7309,4.7309,4.7309,4.7309,4.7309,4.7309,4.7309,4.7309,4.7309,4.7309,4.7309,4.7339,4.7815,4.8055,4.7878,4.7551,4.7493,4.803,4.8417,4.8537,4.8625,4.9161,4.9456,4.9393,4.9812,5.0169,5.0253,5.0406,5.0619,5.0917,5.0976,5.0947,5.0947,5.0947,5.0852,5.0947,5.1011,5.1011,5.1011,5.0947,5.0947,5.0947,5.0947,5.0947,5.0947,5.0947,5.0947,5.0947,5.0947,5.1011,5.1011,5.1105,5.1229,5.1229,5.1229,5.1229,5.1319,5.1648,5.1917,5.2157,5.2516,5.2576,3.6619,3.6967,3.7793,3.8888,3.9902,4.0155,4.0587,4.1252,4.1686,4.2139,4.2357,4.2401,4.2151,4.2019,4.2129,4.2415,4.285,4.285,4.301,4.325,4.3329,4.3329,4.3329,4.3329,4.3329,4.3329,4.3329,4.3419,4.3629,4.4047,4.4496,4.4945,4.5843,4.6411,4.6621,4.71,4.7309,4.7309,4.7309,4.7309,4.7309,4.7309,4.7222,4.7019,4.7222,4.7309,4.7309,4.7309,4.7309,4.7309,4.7309,4.7309,4.7309,4.7309,4.7399,4.7549,4.7578,4.7668,4.7818,4.7848,4.7848,4.7818,4.7698,4.7668,4.7878,4.8295,4.8535,4.8536,4.8117,4.8117,4.8446,4.8716,4.9045,4.9523,5.0122,5.0418,5.0262,5.0866,5.1075,5.0887,5.0952,5.1229,5.1229,5.1229,5.1135,5.1135,5.1229,5.1229,5.1229,5.1229,5.1229,5.1229,5.1229,5.1229,5.1229,5.1135,5.1229,5.1229,5.1135,5.1135,5.1229,5.1229,5.1199,5.1135,5.1229,5.1259,5.1289,5.1289,5.1807,5.2081,5.2507,5.3024,5.3705,5.3849,5.4152,3.7686,3.8589,4.0032,4.0772,4.1062,4.1685,4.2108,4.2342,4.2891,4.319,4.316,4.322,4.322,4.3081,4.282,4.285,4.325,4.325,4.325,4.3329,4.3329,4.3329,4.3329,4.3329,4.3329,4.3329,4.3329,4.3629,4.4197,4.4347,4.4975,4.6172,4.6322,4.6651,4.713,4.7279,4.7309,4.7309,4.7309,4.7309,4.7309,4.7309,4.7309,4.7309,4.7309,4.7309,4.7309,4.7309,4.7309,4.7309,4.7309,4.7309,4.7309,4.7339,4.7608,4.8147,4.8237,4.8506,4.9015,4.9075,4.9075,4.9045,4.8536,4.8476,4.8895,4.8686,4.8716,4.9164,4.9224,4.9224,4.9404,4.9764,5.0032,5.0212,5.075,5.1079,5.1139,5.1139,5.1229,5.1135,5.1229,5.1229,5.1229,5.1229,5.1229,5.1229,5.1229,5.1229,5.1229,5.1229,5.1229,5.1229,5.1229,5.1229,5.1229,5.1229,5.1229,5.1229,5.1229,5.1229,5.1229,5.1229,5.1229,5.1259,5.1349,5.1379,5.1379,5.1897,5.2846,5.3462,5.3894,5.4543,5.5131,5.5907,5.6217,3.9905,4.0978,4.1585,4.2097,4.2514,4.2753,4.2921,4.3,4.321,4.3329,4.3329,4.3329,4.3329,4.3329,4.317,4.317,4.325,4.3329,4.3329,4.3329,4.3329,4.3329,4.3329,4.3329,4.3329,4.3329,4.3329,4.3658,4.4377,4.5155,4.5843,4.6292,4.677,4.71,4.7279,4.7309,4.7309,4.7309,4.7309,4.7309,4.7309,4.7309,4.7309,4.7309,4.7309,4.7309,4.7309,4.7309,4.7309,4.7309,4.7309,4.7309,4.7339,4.7698,4.8207,4.8805,4.8925,4.9015,4.9224,4.9254,4.9254,4.9254,4.9075,4.9074,4.9254,4.9253,4.9463,4.9883,5.0301,5.0665,5.1152,5.0728,5.0421,5.081,5.1079,5.1323,5.1229,5.1229,5.1229,5.1229,5.1229,5.1229,5.1293,5.1229,5.1229,5.1229,5.1229,5.1229,5.1229,5.1229,5.1229,5.1229,5.1229,5.1229,5.1229,5.1229,5.1229,5.1229,5.1229,5.1229,5.1229,5.1383,5.1413,5.1813,5.178,5.2359,5.2698,5.3529,5.439,5.4885,5.5349,5.5845,5.6372,5.7086,5.7214,4.1683,4.2581,4.2671,4.291,4.3329,4.3329,4.3329,4.3329,4.3329,4.3329,4.3329,4.3329,4.3329,4.3329,4.3329,4.3329,4.3329,4.3329,4.3329,4.3329,4.3329,4.3329,4.3329,4.3329,4.3329,4.3389,4.3569,4.4077,4.4975,4.5873,4.6411,4.6681,4.713,4.7309,4.7309,4.7309,4.7309,4.7309,4.7309,4.7309,4.7309,4.7309,4.7309,4.7309,4.7309,4.7309,4.7309,4.7309,4.7309,4.7309,4.7309,4.7399,4.7638,4.8237,4.8895,4.9494,4.9583,4.9673,4.9883,4.9912,5.0004,5.0216,5.0035,5.0064,5.0455,5.0457,5.0668,5.1183,5.1424,5.2002,5.2603,5.2086,5.1606,5.2002,5.2094,5.2094,5.2094,5.2185,5.2154,5.2124,5.1545,5.1545,5.188,5.1479,5.1479,5.1572,5.1386,5.1229,5.1229,5.1229,5.1229,5.1229,5.1229,5.1229,5.1229,5.1229,5.1293,5.1293,5.1293,5.1293,5.1632,5.1693,5.1937,5.2243,5.2886,5.356,5.436,5.5193,5.584,5.6333,5.6832,5.7365,5.7645,5.7955,5.8145,4.2731,4.324,4.3329,4.3299,4.3329,4.3329,4.3329,4.3329,4.3329,4.3329,4.3329,4.3329,4.3329,4.3329,4.3329,4.3329,4.3329,4.3329,4.3329,4.3329,4.3329,4.3329,4.3329,4.3329,4.3389,4.3479,4.4018,4.5005,4.6112,4.6352,4.6711,4.716,4.7249,4.7309,4.7309,4.7309,4.7309,4.7309,4.7309,4.7309,4.7309,4.7396,4.7482,4.7366,4.7482,4.7452,4.7396,4.7309,4.7309,4.7309,4.7369,4.7638,4.8327,4.8925,4.9553,5.0214,5.0242,5.0541,5.1113,5.1236,5.1545,5.1941,5.1634,5.1778,5.244,5.2021,5.1959,5.2922,5.2931,5.2962,5.3836,5.3828,5.3742,5.3891,5.3632,5.3632,5.3805,5.3891,5.3891,5.3569,5.2502,5.2229,5.304,5.2606,5.1911,5.2336,5.2002,5.1572,5.1665,5.1665,5.1386,5.1386,5.1635,5.1911,5.1572,5.1323,5.1293,5.1386,5.1479,5.1572,5.2519,5.2793,5.3221,5.3619,5.4603,5.5345,5.6029,5.6864,5.7358,5.7883,5.8324,5.851,5.8722,5.8934,5.9177,4.315,4.3329,4.3329,4.3329,4.3329,4.3329,4.3329,4.3329,4.3329,4.3329,4.3329,4.3329,4.3329,4.3329,4.3329,4.3329,4.3329,4.3329,4.3329,4.3329,4.3329,4.3329,4.3329,4.3359,4.3569,4.4047,4.4676,4.5454,4.6262,4.677,4.713,4.7279,4.7309,4.7309,4.7396,4.7309,4.7309,4.7309,4.7309,4.7309,4.7366,4.7934,4.8187,4.824,4.8708,4.879,4.8271,4.7624,4.7309,4.7309,4.7728,4.8476,4.9404,4.9823,5.0516,5.1455,5.1638,5.1941,5.2544,5.2606,5.2695,5.2931,5.2745,5.2834,5.3227,5.3227,5.3253,5.3726,5.3796,5.4206,5.4685,5.487,5.4653,5.4062,5.3976,5.4062,5.4115,5.3755,5.3638,5.3976,5.3868,5.3899,5.3891,5.3196,5.3139,5.3459,5.3196,5.302,5.302,5.2931,5.3139,5.3139,5.3139,5.2843,5.2695,5.2606,5.2695,5.2516,5.2426,5.2516,5.3264,5.4059,5.4549,5.5354,5.6347,5.7006,5.767,5.8169,5.8659,5.8902,5.9145,5.9387,5.9596,5.9716,5.9716,4.3329,4.3329,4.3329,4.3329,4.3329,4.3329,4.3329,4.3329,4.3329,4.3329,4.3329,4.3329,4.3329,4.3329,4.3329,4.3329,4.3329,4.3329,4.3329,4.3329,4.3329,4.3329,4.3389,4.3599,4.4047,4.4706,4.5364,4.6022,4.6681,4.7327,4.7624,4.7709,4.7849,4.8019,4.8019,4.8019,4.8019,4.8103,4.7849,4.788,4.8157,4.849,4.8708,4.9035,4.9599,4.9487,4.9066,4.8706,4.8414,4.8309,4.8944,4.9851,5.0608,5.088,5.1486,5.2093,5.2547,5.2874,5.3227,5.3227,5.3403,5.3577,5.3664,5.3836,5.404,5.4229,5.4198,5.4613,5.4624,5.4992,5.562,5.5829,5.5588,5.5067,5.5067,5.5017,5.4952,5.4709,5.4645,5.4985,5.498,5.5044,5.4998,5.4232,5.4232,5.4317,5.4232,5.3976,5.3976,5.3976,5.4062,5.4062,5.3805,5.3719,5.3891,5.3976,5.4062,5.3891,5.3632,5.3773,5.4295,5.5162,5.5796,5.6981,5.8076,5.8325,5.887,5.9113,5.9476,5.9716,5.9716,5.9716,5.9716,5.9716,5.9716,4.3329,4.3329,4.3329,4.3329,4.3329,4.3329,4.3329,4.3329,4.3329,4.3329,4.3329,4.3329,4.3329,4.3329,4.3329,4.3329,4.3329,4.3329,4.3329,4.3329,4.3329,4.3329,4.3389,4.3978,4.4689,4.5214,4.607,4.6761,4.7332,4.7988,4.8385,4.8355,4.8821,4.9147,4.8984,4.9116,4.9116,4.9116,4.8656,4.8821,4.9599,4.9197,4.9197,4.9884,5.0041,5.0104,5.0058,5.0448,5.0414,4.975,5.058,5.1107,5.1478,5.2178,5.2395,5.2577,5.3082,5.3403,5.3403,5.3664,5.3868,5.438,5.4465,5.4749,5.5081,5.4749,5.4864,5.5653,5.5409,5.5539,5.6336,5.6603,5.6525,5.668,5.6336,5.6447,5.6603,5.6492,5.6303,5.6303,5.5988,5.5636,5.6336,5.5181,5.4902,5.5067,5.4819,5.4569,5.4485,5.4653,5.4317,5.4401,5.4653,5.4736,5.4985,5.4985,5.5067,5.5067,5.4902,5.4985,5.526,5.6091,5.714,5.8365,5.9185,5.9499,5.9596,5.9716,5.9716,5.9716,5.9716,5.9716,5.9716,5.9716,5.9804,4.3329,4.3329,4.3329,4.3329,4.3329,4.3329,4.3329,4.3329,4.3329,4.3329,4.3329,4.3329,4.3329,4.3329,4.3329,4.3329,4.3329,4.3329,4.3329,4.3329,4.3329,4.3329,4.3528,4.4467,4.5132,4.5582,4.6987,4.7763,4.8072,4.8738,4.8984,4.8984,4.9228,4.9309,4.9228,4.9278,4.9197,4.9278,4.9278,4.9439,4.9805,5.0306,5.0615,5.0919,5.1401,5.1544,5.1527,5.2525,5.2594,5.1616,5.1333,5.1796,5.2678,5.2781,5.3051,5.3695,5.3954,5.438,5.4717,5.48,5.4883,5.5081,5.5081,5.5246,5.5328,5.5246,5.5409,5.5927,5.5894,5.6053,5.6525,5.668,5.668,5.668,5.6757,5.6757,5.668,5.668,5.668,5.668,5.6447,5.6492,5.6447,5.6336,5.5988,5.6179,5.61,5.5829,5.5749,5.5749,5.5636,5.5908,5.61,5.61,5.61,5.61,5.6179,5.6257,5.6179,5.61,5.6479,5.7103,5.8138,5.935,5.937,5.9596,5.9716,5.9716,5.9716,5.9716,5.9804,5.9804,5.9716,5.9716,5.9946,4.3329,4.3329,4.3329,4.3329,4.3329,4.3329,4.3329,4.3329,4.3536,4.3566,4.3488,4.4004,4.3849,4.3329,4.3615,4.3645,4.3409,4.3771,4.3927,4.4004,4.4403,4.4435,4.4569,4.5571,4.6326,4.6651,4.8102,4.8792,4.9054,4.9726,5.0041,5.0119,5.0229,5.0338,5.0615,5.0306,5.0384,5.0583,5.0474,5.0506,5.1112,5.122,5.1516,5.1915,5.2445,5.2699,5.3128,5.424,5.4514,5.3873,5.3343,5.3354,5.3913,5.3922,5.4008,5.4497,5.4665,5.4998,5.5246,5.5409,5.5409,5.5409,5.5409,5.5409,5.5409,5.5409,5.5572,5.5846,5.6006,5.6244,5.6525,5.668,5.6834,5.6987,5.6987,5.6911,5.6757,5.668,5.668,5.668,5.668,5.6757,5.6834,5.6834,5.6834,5.6911,5.6911,5.6834,5.6834,5.6911,5.6911,5.6911,5.6911,5.6757,5.668,5.668,5.6647,5.6834,5.6834,5.6867,5.7376,5.7833,5.8576,5.9349,5.9567,5.9716,5.9804,5.9892,5.9892,5.9892,5.9892,5.9979,5.9979,6.0033,6.0292,4.3409,4.3409,4.3409,4.3488,4.3566,4.3566,4.3693,4.3771,4.4282,4.4205,4.4051,4.4962,4.4781,4.3615,4.4479,4.4327,4.3771,4.4631,4.4856,4.5227,4.5665,4.5991,4.5894,4.6975,4.7774,4.831,4.9457,4.9977,5.0197,5.0962,5.1336,5.1336,5.1582,5.1908,5.1875,5.1802,5.2092,5.2059,5.1631,5.1736,5.2274,5.2098,5.217,5.2694,5.3094,5.3732,5.4622,5.5555,5.5946,5.6062,5.5772,5.5361,5.5263,5.5377,5.5213,5.4966,5.5328,5.5572,5.5572,5.5653,5.5572,5.5653,5.5653,5.5491,5.5572,5.5653,5.5733,5.5927,5.6086,5.6369,5.6603,5.6834,5.7063,5.7214,5.7289,5.7139,5.6834,5.6757,5.6724,5.6757,5.6757,5.6834,5.6987,5.7063,5.7063,5.7139,5.7139,5.7139,5.7139,5.7139,5.7139,5.7214,5.7214,5.7289,5.7214,5.7214,5.7214,5.7214,5.7139,5.7306,5.7809,5.8303,5.8758,5.9329,5.9932,6.0173,6.012,6.012,6.012,6.0292,6.0378,6.0463,6.0463,6.06,6.0769,4.4343,4.4343,4.4343,4.4541,4.4887,4.4962,4.5153,4.553,4.5706,4.5634,4.5602,4.5889,4.585,4.553,4.5674,4.5674,4.5457,4.5778,4.5921,4.6032,4.6662,4.7221,4.758,4.8537,4.8997,4.9523,5.0936,5.1443,5.1336,5.1663,5.2059,5.2131,5.2164,5.2236,5.2307,5.2307,5.2236,5.2378,5.2274,5.2487,5.2834,5.2731,5.2731,5.3211,5.3908,5.4573,5.5319,5.6352,5.7096,5.7238,5.6778,5.6336,5.6257,5.6336,5.629,5.6132,5.6211,5.6369,5.6369,5.6369,5.6369,5.6369,5.629,5.629,5.6006,5.6211,5.629,5.6402,5.6603,5.6834,5.7063,5.7139,5.7289,5.7364,5.7364,5.7289,5.7181,5.6863,5.6863,5.7072,5.7139,5.7214,5.7214,5.7214,5.7289,5.7289,5.7289,5.7289,5.7364,5.7364,5.7364,5.7439,5.7439,5.7439,5.7439,5.7439,5.7439,5.7439,5.7439,5.7876,5.8385,5.8831,5.9278,5.9944,6.0654,6.0652,6.043,6.06,6.0685,6.0769,6.0853,6.0853,6.0936,6.102,6.1103,4.4918,4.5332,4.5036,4.5258,4.5737,4.5778,4.5921,4.6244,4.6486,4.6486,4.6416,4.6831,4.6763,4.6244,4.6523,4.6523,4.6384,4.6662,4.7104,4.7506,4.7967,4.8596,4.9459,4.9889,5.0245,5.051,5.1801,5.2241,5.2274,5.252,5.2903,5.2834,5.2661,5.2764,5.2764,5.2661,5.2694,5.2903,5.2972,5.3041,5.3144,5.3212,5.3212,5.3483,5.4219,5.4925,5.5538,5.6482,5.7296,5.7634,5.7514,5.7139,5.7063,5.7139,5.7063,5.6757,5.668,5.668,5.668,5.668,5.668,5.668,5.668,5.6636,5.6402,5.6447,5.6525,5.6603,5.6834,5.7139,5.7364,5.7439,5.7439,5.7588,5.7588,5.7588,5.748,5.7264,5.7047,5.7289,5.7323,5.7398,5.7473,5.7439,5.7514,5.7588,5.7662,5.7662,5.7662,5.7662,5.7662,5.7662,5.7662,5.7588,5.7588,5.7662,5.7662,5.7662,5.7662,5.8369,5.917,5.952,5.9834,6.0512,6.1068,6.0986,6.082,6.0986,6.1185,6.1268,6.1383,6.135,6.1432,6.1628,6.1628,4.5551,4.6346,4.5881,4.5992,4.6454,4.6523,4.6592,4.6763,4.7137,4.7272,4.69,4.7836,4.7671,4.7036,4.7306,4.7172,4.7036,4.7373,4.8161,4.8639,4.8736,4.9472,5.0416,5.0823,5.1128,5.1456,5.2499,5.287,5.3041,5.328,5.3348,5.3348,5.3212,5.3144,5.328,5.3212,5.3144,5.3348,5.3348,5.3416,5.345,5.345,5.3416,5.3585,5.4193,5.497,5.5612,5.6423,5.7171,5.7814,5.7881,5.7735,5.7588,5.7662,5.7662,5.6911,5.6987,5.6987,5.7063,5.6987,5.6987,5.6911,5.6911,5.6834,5.6757,5.6757,5.6757,5.6834,5.7063,5.7398,5.7588,5.7662,5.7735,5.7808,5.7881,5.7881,5.7808,5.7655,5.7547,5.7473,5.7547,5.7621,5.7621,5.7662,5.7735,5.7808,5.7881,5.7881,5.7881,5.7881,5.7808,5.7808,5.7735,5.7735,5.7735,5.7735,5.7808,5.791,5.7876,5.8754,5.9776,6.0198,6.055,6.0897,6.1227,6.1265,6.135,6.1513,6.1676,6.179,6.179,6.179,6.1951,6.2144,6.2064,4.7033,4.7169,4.7101,4.7372,4.7836,4.7868,4.8032,4.8513,4.8513,4.8673,4.8513,4.8736,4.8673,4.8513,4.8576,4.8576,4.8386,4.8576,4.8798,4.9018,4.9052,4.9593,5.0439,5.1014,5.1493,5.2201,5.2944,5.3348,5.3348,5.3518,5.3518,5.3518,5.3416,5.345,5.345,5.3416,5.3348,5.3518,5.3518,5.3518,5.3518,5.3518,5.3518,5.3551,5.4126,5.4837,5.5615,5.6393,5.7137,5.778,5.7881,5.7881,5.7808,5.7881,5.7808,5.7662,5.7588,5.7588,5.7588,5.7662,5.7662,5.7735,5.7662,5.7439,5.7364,5.7439,5.7364,5.7289,5.7514,5.7735,5.7808,5.7808,5.7808,5.7881,5.7881,5.7881,5.7881,5.7842,5.7769,5.7735,5.7769,5.7769,5.7808,5.7808,5.7808,5.7881,5.7881,5.7881,5.7881,5.7881,5.7881,5.7881,5.7881,5.7881,5.7881,5.7881,5.7915,5.8084,5.8287,5.9032,5.9911,6.0689,6.1221,6.1537,6.184,6.1963,6.203,6.203,6.203,6.2144,6.2223,6.2302,6.2302,6.2302,6.2302,4.7737,4.8194,4.7934,4.8129,4.8576,4.8576,4.8736,4.9018,4.9018,4.9018,4.9018,4.9018,4.9018,4.9018,4.9018,4.9018,4.9018,4.9018,4.9018,4.9018,4.9052,4.9627,5.0541,5.1082,5.1928,5.2739,5.3348,5.3518,5.3518,5.3518,5.3518,5.3518,5.3518,5.3518,5.3518,5.3518,5.3518,5.3518,5.3518,5.3518,5.3518,5.3518,5.3518,5.3619,5.3856,5.4397,5.5108,5.5852,5.6562,5.7205,5.7679,5.7848,5.7881,5.7881,5.7881,5.7881,5.7881,5.7881,5.7881,5.7881,5.7881,5.7881,5.7881,5.7808,5.7735,5.7735,5.7808,5.7735,5.7735,5.7881,5.7881,5.7881,5.7881,5.7881,5.7881,5.7881,5.7881,5.7881,5.792,5.792,5.7954,5.7954,5.7881,5.7881,5.7881,5.7881,5.7881,5.7881,5.7881,5.7881,5.7881,5.7881,5.7881,5.7881,5.7881,5.7881,5.7881,5.8051,5.8626,5.937,6.0047,6.0825,6.1535,6.2032,6.2347,6.2381,6.2381,6.2223,6.2302,6.2415,6.2381,6.2302,6.2381,6.2415,6.2415,4.8227,4.8956,4.8513,4.861,4.8956,4.9018,4.9018,4.9018,4.9018,4.9018,4.9018,4.9018,4.9018,4.9018,4.9018,4.9018,4.9018,4.9018,4.9018,4.9018,4.9052,4.9763,5.0845,5.1386,5.1961,5.3213,5.345,5.3518,5.3518,5.3518,5.3518,5.3518,5.3518,5.3518,5.3518,5.3518,5.3518,5.3518,5.3518,5.3518,5.3518,5.3518,5.3518,5.3518,5.3518,5.389,5.4668,5.5175,5.5987,5.6765,5.7442,5.7881,5.7881,5.7881,5.7881,5.7881,5.7881,5.7881,5.7881,5.7881,5.7881,5.7881,5.7881,5.7881,5.7881,5.7881,5.7881,5.7881,5.7881,5.7881,5.7881,5.7881,5.7881,5.7881,5.7881,5.7881,5.7954,5.7993,5.8072,5.8106,5.8174,5.8137,5.8099,5.7881,5.7881,5.7881,5.7881,5.7881,5.7881,5.7881,5.7881,5.7881,5.7881,5.7881,5.7881,5.7881,5.7881,5.7949,5.8761,5.9641,6.0283,6.096,6.1637,6.2391,6.2347,6.2415,6.2415,6.2415,6.2415,6.2415,6.2415,6.2415,6.2381,6.2415,6.2415,4.8861,4.8984,4.8956,4.8923,4.9018,4.9018,4.9018,4.9018,4.9018,4.9018,4.9018,4.9018,4.9018,4.9018,4.9018,4.9018,4.9018,4.9018,4.9018,4.9018,4.9052,4.9796,5.1048,5.1217,5.2131,5.3281,5.3518,5.3518,5.3518,5.3518,5.3518,5.3518,5.3518,5.3518,5.3518,5.3518,5.3518,5.3518,5.3518,5.3518,5.3518,5.3518,5.3518,5.3518,5.3551,5.3788,5.4397,5.4769,5.5378,5.6562,5.7442,5.7848,5.7881,5.7881,5.7881,5.7881,5.7881,5.7881,5.7881,5.7881,5.7881,5.7881,5.7881,5.7881,5.7881,5.7881,5.7881,5.7881,5.7881,5.7954,5.7993,5.7954,5.7954,5.8065,5.8209,5.8137,5.8099,5.8668,5.86,5.8599,5.8737,5.8564,5.8456,5.8171,5.7881,5.7881,5.7954,5.8027,5.8065,5.828,5.8351,5.8458,5.8458,5.8458,5.8528,5.8388,5.8487,5.8311,5.9157,6.0177,6.0782,6.1427,6.1995,6.2537,6.2459,6.2537,6.2615,6.2537,6.2459,6.2415,6.2415,6.2381,6.2381,6.2381,6.2537,4.8376,4.8409,4.8849,4.9018,4.9018,4.9018,4.9018,4.9018,4.9018,4.9018,4.9018,4.9018,4.9018,4.9018,4.9018,4.9018,4.9018,4.9018,4.9018,4.9018,4.912,4.9796,5.0913,5.1319,5.2029,5.3112,5.3518,5.3518,5.3518,5.3518,5.3518,5.3518,5.3518,5.3518,5.3518,5.3518,5.3518,5.3518,5.3518,5.3518,5.3518,5.3518,5.3518,5.3518,5.3518,5.3721,5.4025,5.4465,5.4803,5.5818,5.6867,5.7645,5.7509,5.7611,5.7881,5.7881,5.7881,5.7881,5.7881,5.7881,5.7881,5.7881,5.7881,5.7881,5.7881,5.7881,5.7881,5.7881,5.7881,5.8065,5.8317,5.8458,5.8737,5.8841,5.8875,5.8944,5.9012,5.9247,5.9443,5.9434,5.9394,5.9342,5.9317,5.9215,5.9045,5.8944,5.8944,5.9045,5.9113,5.9314,5.9314,5.9247,5.9247,5.9247,5.9314,5.9349,5.9596,5.9736,6.0428,6.1254,6.1502,6.2036,6.2582,6.2855,6.2931,6.2931,6.2889,6.2736,6.2615,6.2537,6.2415,6.2547,6.2634,6.2855,6.3007,4.7631,4.7733,4.8612,4.9018,4.9018,4.9018,4.9018,4.9018,4.9018,4.9018,4.9018,4.9018,4.9018,4.9018,4.9018,4.9018,4.9018,4.9018,4.9018,4.9018,4.9154,4.9763,5.0608,5.1116,5.1894,5.3247,5.3416,5.3484,5.3518,5.3518,5.3518,5.3518,5.3518,5.3518,5.3518,5.3518,5.3518,5.3518,5.3518,5.3518,5.3518,5.3518,5.3618,5.3685,5.3618,5.3685,5.4017,5.4226,5.46,5.5551,5.6405,5.7225,5.7431,5.8221,5.8528,5.8492,5.8492,5.8422,5.828,5.8137,5.7954,5.7881,5.7881,5.7881,5.7881,5.7881,5.7881,5.7881,5.7881,5.828,5.8703,5.8875,5.918,5.9513,5.9838,5.9966,6.003,6.0156,6.0078,5.9894,6.0052,6.0651,6.0635,6.06,6.0379,6.003,5.9966,6.003,6.003,6.0093,5.9966,5.9774,5.9774,5.9774,5.9774,6.0043,6.0428,6.0954,6.1625,6.2125,6.226,6.263,6.3107,6.3319,6.3422,6.3491,6.3526,6.3152,6.2813,6.2813,6.2855,6.2878,6.2993,6.3279,6.3496,4.6887,4.6989,4.8409,4.8984,4.9018,4.9018,4.9018,4.9018,4.9018,4.9018,4.9018,4.9018,4.9018,4.9018,4.9018,4.9018,4.9018,4.9018,4.9018,4.9018,4.9086,4.9526,5.027,5.098,5.1657,5.2503,5.3178,5.3551,5.3551,5.3751,5.3618,5.3518,5.3618,5.3551,5.3618,5.3751,5.3751,5.3751,5.3685,5.3685,5.3685,5.3685,5.3849,5.4106,5.3881,5.4045,5.5104,5.4814,5.4931,5.5959,5.628,5.7044,5.7863,5.8929,5.9314,5.9147,5.908,5.908,5.9012,5.8422,5.8027,5.7881,5.8027,5.8137,5.8209,5.8027,5.7954,5.8065,5.8209,5.8458,5.8841,5.9045,5.9644,6.0156,6.0564,6.0503,6.0626,6.0867,6.0749,6.0392,6.0675,6.1279,6.148,6.1292,6.1081,6.0747,6.0626,6.0626,6.0468,6.0468,6.0344,6.0219,6.0156,6.0093,6.0093,6.0368,6.0866,6.1467,6.2117,6.2564,6.2858,6.3345,6.3759,6.397,6.4074,6.4109,6.4215,6.4002,6.3823,6.3496,6.3353,6.3432,6.3722,6.4147,6.4182,4.638,4.6887,4.7936,4.8578,4.9018,4.9018,4.9018,4.9018,4.9018,4.9018,4.9018,4.9018,4.9018,4.9018,4.9018,4.9018,4.9018,4.9018,4.9018,4.9018,4.9086,4.9458,5.0135,5.0875,5.1589,5.2431,5.3341,5.3881,5.398,5.4141,5.4333,5.4333,5.4141,5.4205,5.4269,5.4269,5.4333,5.4333,5.4333,5.4362,5.4488,5.4488,5.4454,5.4328,5.4799,5.4551,5.4826,5.4948,5.5339,5.5749,5.6098,5.6997,5.7996,5.9334,5.9803,5.9613,5.9648,5.9648,5.9516,5.8909,5.8422,5.8492,5.8702,5.8806,5.8771,5.8806,5.8875,5.8875,5.8909,5.9249,5.9902,6.0156,6.0564,6.0986,6.1198,6.114,6.1198,6.1372,6.1394,6.1106,6.1384,6.1804,6.1895,6.1895,6.1636,6.1372,6.1315,6.1163,6.1045,6.0986,6.0927,6.0867,6.0867,6.0927,6.0927,6.1165,6.1462,6.2032,6.2631,6.3129,6.3612,6.4109,6.4532,6.4637,6.4672,6.4637,6.4775,6.4979,6.474,6.4076,6.3933,6.4041,6.4463,6.4878,6.4911,4.6428,4.7121,4.8014,4.8633,4.8984,4.9018,4.9018,4.9018,4.9018,4.9018,4.9018,4.9018,4.9018,4.9018,4.9168,4.9141,4.9202,4.929,4.935,4.9376,4.9505,4.9744,5.0351,5.1062,5.1871,5.2603,5.3479,5.4143,5.4579,5.4887,5.5129,5.5189,5.5009,5.4948,5.4738,5.4922,5.4922,5.4922,5.4887,5.4948,5.5069,5.5034,5.5249,5.4948,5.5249,5.5484,5.5484,5.5658,5.5773,5.629,5.6776,5.7349,5.829,5.9232,6.0016,6.01,5.9972,5.9972,5.9844,5.9349,5.8978,5.8978,5.9147,5.9349,5.9482,5.9447,5.9143,5.945,5.9683,6.0171,6.0757,6.0782,6.1081,6.1466,6.1636,6.1636,6.1692,6.184,6.184,6.1823,6.2041,6.2041,6.2041,6.2041,6.1895,6.1692,6.1692,6.1636,6.1636,6.1636,6.1692,6.1692,6.1692,6.184,6.1987,6.18,6.1825,6.2797,6.3428,6.3984,6.4479,6.4888,6.5145,6.518,6.518,6.5145,6.5247,6.5379,6.5011,6.4498,6.4567,6.4808,6.5011,6.5415,6.5545,4.7033,4.7648,4.8987,4.9368,4.9168,4.8984,4.908,4.908,4.908,4.908,4.9141,4.9141,4.9141,4.9168,4.953,4.953,4.9411,4.9942,5.008,4.993,5.0067,5.0439,5.0864,5.1437,5.2103,5.2834,5.3731,5.4618,5.5332,5.5507,5.5851,5.6166,5.5999,5.5658,5.5009,5.4948,5.4948,5.4948,5.5069,5.5249,5.5391,5.5449,5.5773,5.583,5.5887,5.6111,5.633,5.633,5.6528,5.6903,5.7925,5.853,5.8959,6.0178,6.0807,6.0878,6.0938,6.0974,6.0974,6.0036,5.9679,5.9547,5.9714,5.9779,5.9578,5.9408,5.9404,5.9908,6.0113,6.0466,6.0767,6.1022,6.1523,6.1784,6.195,6.2041,6.2041,6.2041,6.2041,6.2041,6.2041,6.2041,6.2041,6.2005,6.2005,6.195,6.2005,6.2041,6.2005,6.2041,6.2041,6.2041,6.2041,6.2041,6.2041,6.2041,6.231,6.3329,6.4016,6.4337,6.4832,6.5319,6.5504,6.5704,6.564,6.551,6.5575,6.574,6.5379,6.5011,6.5379,6.5575,6.574,6.574,6.5804,4.7264,4.8399,4.8925,4.9625,5.0244,4.9732,4.9471,4.9505,4.9471,4.9471,4.953,4.9767,4.9942,4.9999,5.0057,5.0114,5.0022,5.0102,5.0384,5.0349,5.0589,5.0697,5.1051,5.1705,5.2463,5.3294,5.4237,5.5147,5.6111,5.624,5.6599,5.6897,5.6845,5.6582,5.6366,5.6276,5.6438,5.6438,5.6438,5.6492,5.6599,5.6599,5.6546,5.6599,5.6652,5.6845,5.6948,5.6897,5.7138,5.7384,5.8408,5.897,5.9401,6.0469,6.1117,6.1211,6.127,6.135,6.135,6.0867,6.0564,6.0352,6.029,6.0415,6.0538,6.0503,6.0503,6.0503,6.0732,6.1069,6.1328,6.1523,6.1895,6.1895,6.2041,6.2041,6.2041,6.2041,6.2041,6.2041,6.2041,6.2005,6.2005,6.2114,6.2168,6.206,6.206,6.206,6.2005,6.2005,6.2041,6.2041,6.2041,6.2041,6.2041,6.2205,6.2549,6.3393,6.3883,6.4243,6.4839,6.5609,6.5697,6.574,6.5804,6.5804,6.5804,6.5804,6.5704,6.564,6.5804,6.5804,6.5804,6.5804,6.5804,4.7629,4.8994,4.9301,5.0254,5.1272,5.057,5.0215,5.0215,5.0215,5.0215,5.0272,5.0495,5.0605,5.0659,5.0803,5.0749,5.0714,5.1035,5.1052,5.1052,5.126,5.1515,5.1744,5.205,5.3003,5.3862,5.4768,5.5641,5.6825,5.7188,5.7289,5.7338,5.7388,5.7289,5.7138,5.7087,5.7087,5.7036,5.7,5.7087,5.7239,5.7289,5.7202,5.7202,5.7289,5.7437,5.7202,5.7289,5.7473,5.7751,5.8326,5.9023,5.9655,6.0516,6.1336,6.1466,6.1523,6.1692,6.1692,6.1692,6.1315,6.1022,6.1117,6.1093,6.1093,6.0938,6.0998,6.1058,6.135,6.1466,6.1615,6.184,6.195,6.2005,6.2005,6.2005,6.2005,6.2005,6.2005,6.2005,6.206,6.2114,6.2114,6.2222,6.2328,6.2222,6.2168,6.2114,6.206,6.206,6.206,6.206,6.206,6.2114,6.2259,6.2567,6.2985,6.347,6.3986,6.4531,6.5044,6.5851,6.5796,6.5804,6.5804,6.5867,6.5804,6.5804,6.5804,6.5804,6.5804,6.5804,6.5804,6.5804,6.5804,4.8366,4.9518,5.0307,5.1322,5.2159,5.153,5.1138,5.1086,5.1086,5.1086,5.1086,5.1121,5.1225,5.1276,5.1615,5.1565,5.1327,5.1897,5.1982,5.203,5.2126,5.2408,5.2545,5.2736,5.3479,5.4397,5.5243,5.5934,5.7316,5.7583,5.7583,5.7667,5.781,5.7715,5.7534,5.7437,5.7338,5.7388,5.7388,5.7437,5.7534,5.7486,5.7534,5.7534,5.7583,5.7631,5.7534,5.7583,5.7619,5.8045,5.8892,5.9496,6.0243,6.119,6.1734,6.1969,6.1969,6.1969,6.1969,6.1969,6.1914,6.1636,6.1408,6.127,6.1176,6.1234,6.114,6.1211,6.1386,6.1501,6.1651,6.1784,6.195,6.2005,6.2005,6.2005,6.2005,6.2005,6.2005,6.206,6.2222,6.2238,6.2291,6.2397,6.2485,6.2381,6.2328,6.2328,6.2275,6.2168,6.2168,6.2222,6.2222,6.2185,6.2457,6.2784,6.3421,6.3964,6.4701,6.5249,6.573,6.6074,6.611,6.6083,6.5931,6.5895,6.5824,6.5824,6.5931,6.5931,6.5958,6.5867,6.5931,6.5804,6.5804,4.9549,5.0472,5.1274,5.212,5.2857,5.268,5.2054,5.1189,5.1429,5.1615,5.1615,5.191,5.1958,5.2042,5.2137,5.2137,5.2185,5.2278,5.2408,5.2536,5.2627,5.2761,5.2893,5.301,5.3668,5.4444,5.5212,5.5944,5.6942,5.7454,5.7821,5.7904,5.795,5.7904,5.7857,5.781,5.7763,5.7715,5.7679,5.7679,5.7726,5.7774,5.781,5.7821,5.7821,5.7821,5.7821,5.781,5.7763,5.7971,5.9088,5.975,5.988,6.1171,6.2024,6.2238,6.2291,6.2291,6.2328,6.2328,6.2275,6.2114,6.1804,6.1804,6.1656,6.1415,6.13,6.1372,6.1537,6.1651,6.1784,6.1895,6.206,6.2168,6.2168,6.2168,6.2168,6.2168,6.2168,6.2222,6.2291,6.2397,6.2449,6.2552,6.2603,6.2537,6.2485,6.2449,6.2449,6.2328,6.2275,6.2328,6.2344,6.2344,6.2672,6.3,6.3748,6.4439,6.5234,6.5881,6.627,6.6476,6.6416,6.6391,6.6233,6.6064,6.5859,6.5966,6.6207,6.6269,6.6269,6.6083,6.5958,6.5958,6.5958,4.9738,5.0802,5.1316,5.216,5.3115,5.3225,5.268,5.2054,5.2232,5.2361,5.2408,5.259,5.2717,5.2717,5.2717,5.2717,5.2717,5.268,5.2806,5.285,5.285,5.2974,5.306,5.314,5.3616,5.4399,5.5207,5.597,5.6859,5.7556,5.7997,5.7997,5.7997,5.7997,5.7997,5.795,5.7997,5.795,5.7997,5.7997,5.7997,5.7997,5.7997,5.7997,5.7997,5.7997,5.7997,5.7904,5.7904,5.8014,5.9054,5.9748,6.0186,6.1433,6.2308,6.2552,6.2552,6.2552,6.2552,6.2552,6.2449,6.2344,6.2291,6.2291,6.2095,6.186,6.1732,6.1712,6.1784,6.1876,6.195,6.2114,6.2275,6.2381,6.2328,6.2275,6.2275,6.2275,6.2291,6.2344,6.2449,6.2552,6.2654,6.2755,6.2755,6.2654,6.2603,6.2654,6.2552,6.2449,6.2433,6.2449,6.2449,6.2485,6.2902,6.3341,6.4181,6.4949,6.5859,6.6494,6.678,6.6772,6.6655,6.6595,6.6618,6.6427,6.6271,6.6368,6.6536,6.6595,6.6595,6.6512,6.6391,6.633,6.6391,4.9334,5.0839,5.0949,5.194,5.3115,5.3225,5.3182,5.3225,5.3103,5.3146,5.3146,5.3146,5.3103,5.306,5.306,5.3103,5.306,5.3017,5.3017,5.3182,5.306,5.3103,5.3146,5.3261,5.3512,5.4326,5.5207,5.6088,5.6932,5.7593,5.7997,5.7997,5.7997,5.7997,5.7997,5.7997,5.7997,5.7997,5.7997,5.7997,5.7997,5.7997,5.7997,5.7997,5.7997,5.7997,5.7997,5.7997,5.7997,5.8253,5.8914,5.9748,6.0995,6.1825,6.2572,6.2755,6.2705,6.2705,6.2705,6.2705,6.2755,6.2755,6.2805,6.2705,6.2464,6.2202,6.2041,6.1933,6.206,6.206,6.2168,6.2238,6.2397,6.2449,6.2449,6.2397,6.2397,6.2397,6.2449,6.25,6.2603,6.2654,6.2705,6.2805,6.2805,6.2755,6.2755,6.2755,6.2705,6.2552,6.2552,6.2603,6.2603,6.2676,6.3057,6.3606,6.4574,6.551,6.6354,6.6738,6.6792,6.6749,6.6736,6.6852,6.7061,6.6998,6.6939,6.6961,6.6889,6.6831,6.6831,6.6831,6.6772,6.675,6.675,4.9884,5.0912,5.2123,5.2894,5.3188,5.3225,5.3225,5.3225,5.3225,5.3225,5.3225,5.3225,5.3225,5.3225,5.3225,5.3225,5.3146,5.3146,5.3146,5.3146,5.3146,5.3146,5.3225,5.3225,5.3371,5.3885,5.484,5.6271,5.7373,5.785,5.7997,5.7997,5.7997,5.7997,5.7997,5.7997,5.7997,5.7997,5.7997,5.7997,5.7997,5.7997,5.7997,5.7997,5.7997,5.7997,5.7997,5.7997,5.7997,5.818,5.9465,6.075,6.2181,6.2585,6.2768,6.2805,6.2805,6.2805,6.2805,6.2805,6.2805,6.2805,6.2805,6.2805,6.2705,6.2449,6.2291,6.2238,6.2238,6.2291,6.2344,6.2449,6.25,6.2552,6.2603,6.2552,6.2552,6.2603,6.2603,6.2654,6.2705,6.2755,6.2805,6.2805,6.2805,6.2805,6.2805,6.2805,6.2805,6.2705,6.2705,6.2705,6.2755,6.2902,6.3195,6.3855,6.4824,6.5595,6.637,6.6626,6.6809,6.7012,6.7174,6.7378,6.7524,6.7339,6.7283,6.7414,6.7322,6.7174,6.7174,6.721,6.7322,6.7322,6.721,4.9738,5.0949,5.2527,5.3225,5.3225,5.3225,5.3225,5.3225,5.3225,5.3225,5.3225,5.3225,5.3225,5.3225,5.3225,5.3225,5.3225,5.3225,5.3188,5.3225,5.3225,5.3225,5.3225,5.3225,5.3225,5.3628,5.4913,5.6308,5.774,5.7997,5.7997,5.7997,5.7997,5.7997,5.7997,5.7997,5.7997,5.7997,5.7997,5.7997,5.7997,5.7997,5.7997,5.7997,5.7997,5.7997,5.7997,5.7997,5.7997,5.84,5.9501,6.075,6.1887,6.2511,6.2768,6.2805,6.2805,6.2805,6.2805,6.2805,6.2805,6.2805,6.2805,6.2805,6.2805,6.2603,6.2603,6.2552,6.2552,6.2552,6.2552,6.2654,6.2654,6.2705,6.2705,6.2705,6.2705,6.2705,6.2705,6.2755,6.2755,6.2755,6.2805,6.2805,6.2805,6.2805,6.2805,6.2805,6.2805,6.2805,6.2805,6.2805,6.2805,6.2842,6.2938,6.3819,6.5007,6.5742,6.6292,6.6916,6.7266,6.7504,6.7687,6.7687,6.7633,6.7579,6.7579,6.7633,6.7633,6.7433,6.7488,6.7633,6.7741,6.7757,6.7596,4.9481,5.1096,5.2564,5.3225,5.3225,5.3225,5.3225,5.3225,5.3225,5.3225,5.3225,5.3225,5.3225,5.3225,5.3225,5.3225,5.3225,5.3225,5.3225,5.3225,5.3225,5.3225,5.3225,5.3225,5.3445,5.3995,5.5097,5.6492,5.7923,5.7997,5.7997,5.7997,5.7997,5.7997,5.7997,5.7997,5.7997,5.7997,5.7997,5.7997,5.7997,5.7997,5.7997,5.7997,5.7997,5.7997,5.7997,5.7997,5.7997,5.863,5.9595,6.1003,6.2056,6.2793,6.2988,6.3099,6.3147,6.3051,6.2953,6.2953,6.2904,6.2805,6.2855,6.2855,6.2904,6.2917,6.2917,6.2953,6.2904,6.2805,6.2805,6.2805,6.2805,6.2855,6.2805,6.2917,6.2965,6.2867,6.2855,6.2855,6.2855,6.2855,6.2855,6.2855,6.2855,6.2805,6.2805,6.2805,6.2805,6.2805,6.2805,6.2805,6.2805,6.2842,6.2879,6.3906,6.5118,6.5485,6.6072,6.699,6.7687,6.7687,6.7687,6.7687,6.7687,6.7687,6.7687,6.7687,6.7687,6.7741,6.7687,6.7741,6.8018,6.8018,6.7863,5.0288,5.183,5.2821,5.3225,5.3225,5.3225,5.3225,5.3225,5.3225,5.3225,5.3225,5.3225,5.3225,5.3225,5.3225,5.3225,5.3225,5.3225,5.3225,5.3225,5.3225,5.3225,5.3225,5.3261,5.4032,5.4766,5.55,5.6492,5.7776,5.7997,5.7997,5.7997,5.7997,5.7997,5.7997,5.7997,5.7997,5.7997,5.7997,5.7997,5.8042,5.8042,5.7997,5.7997,5.7997,5.7997,5.7997,5.7997,5.7997,5.8529,5.9743,6.1394,6.2521,6.3288,6.349,6.3482,6.3527,6.3437,6.3299,6.3289,6.3242,6.3002,6.3099,6.3289,6.3299,6.3334,6.3371,6.3437,6.3345,6.2953,6.2904,6.2917,6.2965,6.2965,6.2965,6.3317,6.3587,6.3224,6.3025,6.3073,6.3073,6.3025,6.2965,6.2965,6.2965,6.2965,6.3014,6.3014,6.3062,6.2917,6.2904,6.2953,6.2917,6.2805,6.2879,6.4053,6.5081,6.5411,6.5852,6.6806,6.7467,6.765,6.7687,6.7687,6.7687,6.7687,6.7687,6.7741,6.7826,6.793,6.7757,6.781,6.8084,6.8284,6.8185]},{"header":{"parameterUnit":"m.s-1","parameterCategory":1,"la1":31.0,"la2":29.5877,"lo1":-88.7671,"lo2":-86.6584,"dx":0.0162,"dy":0.0185,"nx":115,"ny":88,"refTime":"2022-12-15T06:00:00:Z","depth":0,"parameterNumber":3,"parameterNumberName":"V-component_of_WINDS"},"data":[0.0,0.0,0.0,0.0,0.0,0.0,0.0,0.0,0.0,0.0,0.0,0.0,0.0,0.0,0.0,0.0,0.0,0.0,0.0,0.0,0.0,0.0,0.0,0.0,0.0,0.0,0.0,0.0,0.0,0.0,0.0,0.0,0.0,0.0,0.0,0.0,0.0,0.0,0.0,0.0,0.0,0.0,0.0,0.0,0.0,0.0,0.0,0.0,0.0,0.0,0.0,0.0,0.0,0.0,0.0,0.0,0.0,0.0,0.0,0.0,0.0,0.0,0.0,0.0,0.0,0.0,0.0,0.0,0.0,0.0,0.0,0.0,0.0,0.0,0.0,0.0,0.0,0.0,0.0,0.0,0.0,0.0,0.0,0.0,0.0,0.0,0.0,0.0,0.0,0.0,0.0,0.0,0.0,0.0,0.0,0.0,0.0,0.0,0.0,0.0,0.0,0.0,0.0,0.0,0.0,0.0,0.0,0.0,0.0,0.0,0.0,0.0,0.0,0.0,0.0,0.0,0.0,0.0,0.0,0.0,0.0,0.0,0.0,0.0,0.0,0.0,0.0,0.0,0.0,0.0,0.0,0.0,0.0,0.0,0.0,0.0,0.0,0.0,0.0,0.0,0.0,0.0,0.0,0.0,0.0,0.0,0.0,0.0,0.0,0.0,0.0,0.0,0.0,0.0,0.0,0.0,0.0,0.0,0.0,0.0,0.0,0.0,0.0,0.0,0.0,0.0,0.0,0.0,0.0,0.0,0.0,0.0,0.0,0.0,0.0,0.0,0.0,0.0,0.0,0.0,0.0,0.0,0.0,0.0,0.0,0.0,0.0,0.0,0.0,0.0,0.0,0.0,0.0,0.0,0.0,0.0,0.0,0.0,0.0,0.0,0.0,0.0,0.0,0.0,0.0,0.0,0.0,0.0,0.0,0.0,0.0,0.0,0.0,0.0,0.0,0.0,0.0,0.0,0.0,0.0,0.0,0.0,0.0,0.0,0.0,0.0,0.0,0.0,0.0,0.0,0.0,0.0,0.0,0.0,0.0,0.0,0.0,0.0,0.0,0.0,0.0,0.0,0.0,0.0,0.0,0.0,0.0,0.0,0.0,0.0,0.0,0.0,0.0,0.0,0.0,0.0,0.0,0.0,0.0,0.0,0.0,0.0,0.0,0.0,0.0,0.0,0.0,0.0,0.0,0.0,0.0,0.0,0.0,0.0,0.0,0.0,0.0,0.0,0.0,0.0,0.0,0.0,0.0,0.0,0.0,0.0,0.0,0.0,0.0,0.0,0.0,0.0,0.0,0.0,0.0,0.0,0.0,0.0,0.0,0.0,0.0,0.0,0.0,0.0,0.0,0.0,0.0,0.0,0.0,0.0,0.0,0.0,0.0,0.0,0.0,0.0,0.0,0.0,0.0,0.0,0.0,0.0,0.0,0.0,0.0,0.0,0.0,0.0,0.0,0.0,0.0,0.0,0.0,0.0,0.0,0.0,0.0,0.0,0.0,0.0,0.0,0.0,0.0,0.0,0.0,0.0,0.0,0.0,0.0,0.0,0.0,0.0,0.0,0.0,0.0,0.0,0.0,0.0,0.0,0.0,0.0,0.0,0.0,0.0,0.0,0.0,0.0,0.0,0.0,0.0,0.0,0.0,0.0,0.0,0.0,0.0,0.0,0.0,0.0,0.0,0.0,0.0,0.0,0.0,0.0,0.0,0.0,0.0,0.0,0.0,0.0,0.0,0.0,0.0,0.0,0.0,0.0,0.0,0.0,0.0,0.0,0.0,0.0,0.0,0.0,0.0,0.0,0.0,0.0,0.0,0.0,0.0,0.0,0.0,0.0,0.0,0.0,0.0,0.0,0.0,0.0,0.0,0.0,0.0,0.0,0.0,0.0,0.0,0.0,0.0,0.0,0.0,0.0,0.0,0.0,0.0,0.0,0.0,0.0,0.0,0.0,0.0,0.0,0.0,0.0,0.0,0.0,0.0,0.0,0.0,0.0,0.0,0.0,0.0,0.0,0.0,0.0,0.0,0.0,0.0,0.0,0.0,0.0,0.0,0.0,0.0,0.0,0.0,0.0,0.0,0.0,0.0,0.0,0.0,0.0,0.0,0.0,0.0,0.0,0.0,0.0,0.0,0.0,0.0,0.0,0.0,0.0,0.0,0.0,0.0,0.0,0.0,0.0,0.0,0.0,0.0,0.0,0.0,0.0,0.0,0.0,0.0,0.0,0.0,0.0,0.0,0.0,0.0,0.0,0.0,0.0,0.0,0.0,0.0,0.0,0.0,0.0,0.0,0.0,0.0,0.0,0.0,0.0,0.0,0.0,0.0,0.0,0.0,0.0,0.0,0.0,0.0,0.0,0.0,0.0,0.0,0.0,0.0,0.0,0.0,0.0,0.0,0.0,0.0,0.0,0.0,0.0,0.0,0.0,0.0,0.0,0.0,0.0,0.0,0.0,0.0,0.0,0.0,0.0,0.0,0.0,0.0,0.0,0.0,0.0,0.0,0.0,0.0,0.0,0.0,0.0,0.0,0.0,0.0,0.0,0.0,0.0,0.0,0.0,0.0,0.0,0.0,0.0,0.0,0.0,0.0,0.0,0.0,0.0,0.0,0.0,0.0,0.0,0.0,0.0,0.0,0.0,0.0,0.0,0.0,0.0,0.0,0.0,0.0,0.0,0.0,0.0,0.0,0.0,0.0,0.0,0.0,0.0,0.0,0.0,0.0,0.0,0.0,0.0,0.0,0.0,0.0,0.0,0.0,0.0,0.0,0.0,0.0,0.0,0.0,0.0,0.0,0.0,0.0,0.0,0.0,0.0,0.0,0.0,0.0,0.0,0.0,0.0,0.0,0.0,0.0,0.0,0.0,0.0,0.0,0.0,0.0,0.0,0.0,0.0,0.0,0.0,0.0,0.0,0.0,0.0,0.0,0.0,0.0,0.0,0.0,0.0,0.0,0.0,0.0,0.0,0.0,0.0,0.0,0.0,0.0,0.0,0.0,0.0,0.0,0.0,0.0,0.0,0.0,0.0,0.0,0.0,0.0,0.0,0.0,0.0,0.0,0.0,0.0,0.0,0.0,0.0,0.0,0.0,0.0,0.0,0.0,0.0,0.0,0.0,0.0,0.0,0.0,0.0,0.0,0.0,0.0,0.0,0.0,0.0,0.0,0.0,0.0,0.0,0.0,0.0,0.0,0.0,0.0,0.0,0.0,0.0,0.0,0.0,0.0,0.0,0.0,0.0,0.0,0.0,0.0,0.0,0.0,0.0,0.0,0.0,0.0,0.0,0.0,0.0,0.0,0.0,0.0,0.0,0.0,0.0,0.0,0.0,0.0,0.0,0.0,0.0,0.0,0.0,0.0,0.0,0.0,0.0,0.0,0.0,0.0,0.0,0.0,0.0,0.0,0.0,0.0,0.0,0.0,0.0,0.0,0.0,0.0,0.0,0.0,0.0,0.0,0.0,0.0,0.0,0.0,0.0,0.0,0.0,0.0,0.0,0.0,0.0,0.0,0.0,0.0,0.0,0.0,0.0,0.0,0.0,0.0,0.0,0.0,0.0,0.0,0.0,0.0,0.0,0.0,0.0,0.0,0.0,0.0,0.0,0.0,0.0,0.0,0.0,0.0,0.0,0.0,0.0,0.0,0.0,0.0,0.0,0.0,0.0,0.0,0.0,0.0,0.0,0.0,0.0,0.0,0.0,0.0,0.0,0.0,0.0,0.0,0.0,0.0,0.0,0.0,0.0,0.0,0.0,0.0,0.0,0.0,0.0,0.0,0.0,0.0,0.0,0.0,0.0,0.0,0.0,0.0,0.0,0.0,0.0,0.0,0.0,0.0,0.0,0.0,0.0,0.0,0.0,0.0,0.0,0.0,0.0,0.0,0.0,0.0,0.0,0.0,0.0,0.0,0.0,0.0,0.0,0.0,0.0,0.0,0.0,0.0,0.0,0.0,0.0,0.0,0.0,0.0,0.0,0.0,0.0,0.0,0.0,0.0,0.0,0.0,0.0,0.0,0.0,0.0,0.0,0.0,0.0,0.0,0.0,0.0,0.0,0.0,0.0,0.0,0.0,0.0,0.0,0.0,0.0,0.0,0.0,0.0,0.0,0.0,0.0,0.0,0.0,0.0,0.0,0.0,0.0,0.0,0.0,0.0,0.0,0.0,0.0,0.0,0.0,0.0,0.0,0.0,0.0,0.0,0.0,0.0,0.0,0.0,0.0,0.0,0.0,0.0,0.0,0.0,0.0,0.0,-1.4333,0.0,0.0,0.0,-1.028,0.0,0.0,0.0,0.0,0.0,0.0,0.0,0.0,0.0,0.0,0.0,0.0,0.0,0.0,0.0,0.0,0.0,0.0,0.0,0.0,0.0,0.0,0.0,0.0,0.0,0.0,0.0,0.0,0.0,0.0,0.0,0.0,0.0,0.0,0.0,0.0,0.0,0.0,0.0,0.0,0.0,0.0,0.0,0.0,0.0,0.0,0.0,0.0,0.0,0.0,0.0,0.0,0.0,0.0,0.0,0.0,0.0,0.0,0.0,0.0,0.0,0.0,0.0,0.0,0.0,0.0,0.0,0.0,0.0,0.0,0.0,0.0,0.0,0.0,0.0,0.0,0.0,0.0,0.0,0.0,0.0,0.0,0.0,0.0,0.0,0.0,0.0,0.0,0.0,0.0,0.0,0.0,0.0,0.0,0.0,0.0,0.0,0.0,0.0,0.0,0.0,0.0,0.0,0.0,0.0,0.0,0.0,0.0,0.0,0.0,-1.407,-1.1554,-1.3892,-1.3615,-1.0169,0.0,0.0,0.0,0.0,0.0,0.0,0.0,0.0,0.0,0.0,0.0,0.0,0.0,0.0,0.0,0.0,0.0,0.0,0.0,0.0,0.0,0.0,0.0,0.0,0.0,0.0,0.0,0.0,0.0,0.0,0.0,0.0,0.0,0.0,0.0,0.0,0.0,0.0,0.0,0.0,0.0,0.0,0.0,0.0,0.0,0.0,0.0,0.0,0.0,0.0,0.0,0.0,0.0,0.0,0.0,0.0,0.0,0.0,0.0,0.0,0.0,0.0,0.0,0.0,0.0,0.0,0.0,0.0,0.0,0.0,0.0,0.0,0.0,0.0,0.0,0.0,0.0,0.0,0.0,0.0,0.0,0.0,0.0,0.0,0.0,0.0,0.0,0.0,0.0,0.0,0.0,0.0,0.0,0.0,0.0,0.0,0.0,0.0,0.0,0.0,0.0,0.0,0.0,0.0,0.0,0.0,0.0,0.0,0.0,0.0,0.0,0.0,-1.4578,-1.4415,-1.1218,0.0,0.0,0.0,0.0,0.0,0.0,0.0,0.0,0.0,0.0,0.0,0.0,0.0,0.0,0.0,0.0,0.0,0.0,0.0,0.0,0.0,0.0,0.0,0.0,0.0,0.0,0.0,0.0,0.0,0.0,0.0,0.0,0.0,0.0,0.0,0.0,0.0,0.0,0.0,0.0,0.0,0.0,0.0,0.0,0.0,0.0,0.0,0.0,0.0,0.0,0.0,0.0,0.0,0.0,0.0,0.0,0.0,0.0,0.0,0.0,0.0,0.0,0.0,0.0,0.0,0.0,0.0,0.0,0.0,0.0,0.0,0.0,0.0,0.0,0.0,0.0,0.0,0.0,0.0,0.0,0.0,0.0,0.0,0.0,0.0,0.0,0.0,0.0,0.0,0.0,0.0,0.0,0.0,0.0,0.0,0.0,0.0,0.0,0.0,0.0,0.0,0.0,0.0,0.0,0.0,0.0,0.0,0.0,0.0,0.0,-1.1676,-1.378,-1.4102,0.0,-1.3789,0.0,0.0,0.0,0.0,0.0,0.0,0.0,0.0,0.0,0.0,0.0,0.0,0.0,0.0,0.0,0.0,0.0,0.0,0.0,0.0,0.0,0.0,0.0,0.0,0.0,0.0,0.0,0.0,0.0,0.0,0.0,0.0,0.0,0.0,0.0,0.0,0.0,0.0,0.0,0.0,0.0,0.0,0.0,0.0,0.0,0.0,0.0,0.0,0.0,0.0,0.0,0.0,0.0,0.0,0.0,0.0,0.0,0.0,0.0,0.0,0.0,0.0,0.0,0.0,0.0,0.0,0.0,0.0,0.0,0.0,0.0,0.0,0.0,0.0,0.0,0.0,0.0,0.0,0.0,0.0,0.0,0.0,0.0,0.0,0.0,0.0,0.0,0.0,0.0,0.0,0.0,0.0,0.0,0.0,0.0,0.0,0.0,0.0,0.0,0.0,0.0,0.0,0.0,0.0,0.0,0.0,0.0,0.0,0.0,0.0,-1.2882,-1.3891,-1.39,-1.3661,0.0,0.0,0.0,0.0,0.0,0.0,0.0,0.0,0.0,0.0,0.0,0.0,0.0,0.0,0.0,0.0,0.0,0.0,0.0,0.0,0.0,0.0,0.0,0.0,0.0,0.0,0.0,0.0,0.0,0.0,0.0,0.0,0.0,0.0,0.0,0.0,0.0,0.0,0.0,0.0,0.0,0.0,0.0,0.0,0.0,0.0,0.0,0.0,0.0,0.0,0.0,0.0,0.0,0.0,0.0,0.0,0.0,0.0,0.0,0.0,0.0,0.0,0.0,0.0,0.0,0.0,0.0,0.0,0.0,0.0,0.0,0.0,0.0,0.0,0.0,0.0,0.0,0.0,0.0,0.0,0.0,0.0,0.0,0.0,0.0,0.0,0.0,0.0,0.0,0.0,0.0,0.0,0.0,0.0,0.0,0.0,0.0,0.0,0.0,0.0,0.0,0.0,0.0,0.0,0.0,0.0,0.0,0.0,0.0,0.0,-1.3909,-1.4523,-1.5118,-1.5173,-1.4463,-1.3003,0.0,0.0,0.0,0.0,0.0,0.0,0.0,0.0,0.0,0.0,0.0,0.0,0.0,0.0,0.0,0.0,0.0,0.0,0.0,0.0,0.0,0.0,0.0,0.0,0.0,0.0,0.0,0.0,0.0,0.0,0.0,0.0,0.0,0.0,0.0,0.0,0.0,0.0,0.0,0.0,0.0,0.0,0.0,0.0,0.0,0.0,0.0,0.0,0.0,0.0,0.0,0.0,0.0,0.0,0.0,0.0,0.0,0.0,0.0,0.0,0.0,0.0,0.0,0.0,0.0,0.0,0.0,0.0,0.0,0.0,0.0,0.0,0.0,0.0,0.0,0.0,0.0,0.0,0.0,0.0,0.0,0.0,0.0,0.0,0.0,0.0,0.0,0.0,0.0,0.0,0.0,0.0,0.0,0.0,0.0,0.0,0.0,0.0,0.0,0.0,0.0,0.0,0.0,0.0,0.0,0.0,0.0,0.0,-1.8064,-1.6132,-1.6094,-1.8425,-1.8573,-1.7056,0.0,0.0,0.0,0.0,0.0,0.0,0.0,0.0,0.0,0.0,0.0,0.0,0.0,0.0,0.0,0.0,0.0,0.0,0.0,0.0,0.0,0.0,0.0,0.0,0.0,0.0,0.0,0.0,0.0,0.0,0.0,0.0,0.0,0.0,0.0,0.0,0.0,0.0,0.0,0.0,0.0,0.0,0.0,0.0,0.0,0.0,0.0,0.0,0.0,0.0,0.0,0.0,0.0,0.0,0.0,0.0,0.0,0.0,0.0,0.0,0.0,0.0,0.0,0.0,0.0,0.0,0.0,0.0,0.0,0.0,0.0,0.0,0.0,0.0,0.0,0.0,0.0,0.0,0.0,0.0,0.0,0.0,0.0,0.0,0.0,0.0,0.0,0.0,0.0,0.0,0.0,0.0,0.0,0.0,0.0,0.0,0.0,0.0,0.0,0.0,0.0,0.0,0.0,0.0,0.0,0.0,0.0,0.0,0.0,-1.3864,-1.5008,-1.7169,-2.0284,-1.7632,-1.5945,0.0,0.0,0.0,0.0,0.0,0.0,0.0,0.0,0.0,0.0,0.0,0.0,0.0,0.0,0.0,0.0,0.0,0.0,0.0,0.0,0.0,0.0,0.0,0.0,0.0,0.0,0.0,0.0,0.0,0.0,0.0,0.0,0.0,0.0,0.0,0.0,0.0,0.0,0.0,0.0,0.0,0.0,0.0,0.0,0.0,0.0,0.0,0.0,0.0,0.0,0.0,0.0,0.0,0.0,0.0,0.0,0.0,0.0,0.0,0.0,0.0,0.0,0.0,0.0,0.0,0.0,0.0,0.0,0.0,0.0,0.0,0.0,0.0,0.0,0.0,0.0,0.0,0.0,0.0,0.0,0.0,0.0,0.0,0.0,0.0,0.0,0.0,0.0,0.0,0.0,0.0,0.0,0.0,0.0,0.0,0.0,0.0,0.0,0.0,0.0,0.0,0.0,0.0,0.0,0.0,0.0,0.0,0.0,0.0,-1.3766,-1.7064,-1.9518,-2.0843,-1.7738,-1.5611,0.0,0.0,0.0,0.0,0.0,0.0,0.0,0.0,0.0,0.0,0.0,0.0,0.0,0.0,0.0,0.0,0.0,0.0,0.0,0.0,0.0,0.0,0.0,0.0,0.0,0.0,0.0,0.0,0.0,0.0,0.0,0.0,0.0,0.0,0.0,0.0,0.0,0.0,0.0,0.0,0.0,0.0,0.0,0.0,0.0,0.0,0.0,0.0,0.0,0.0,0.0,0.0,0.0,0.0,0.0,0.0,0.0,0.0,0.0,0.0,0.0,0.0,0.0,0.0,0.0,0.0,0.0,0.0,0.0,0.0,0.0,0.0,0.0,0.0,0.0,0.0,0.0,0.0,0.0,0.0,0.0,0.0,0.0,0.0,0.0,0.0,0.0,0.0,0.0,0.0,0.0,0.0,0.0,0.0,0.0,0.0,0.0,0.0,0.0,0.0,0.0,0.0,0.0,0.0,0.0,0.0,0.0,0.0,-1.377,-1.8895,-2.2508,-2.2911,-2.0282,-1.9287,-1.6334,0.0,0.0,0.0,0.0,0.0,0.0,0.0,0.0,0.0,0.0,0.0,0.0,0.0,0.0,0.0,0.0,0.0,0.0,0.0,0.0,0.0,0.0,0.0,0.0,0.0,0.0,0.0,0.0,0.0,0.0,0.0,0.0,0.0,0.0,0.0,0.0,0.0,0.0,0.0,0.0,0.0,0.0,0.0,0.0,0.0,0.0,0.0,0.0,0.0,0.0,0.0,0.0,0.0,0.0,0.0,0.0,0.0,0.0,0.0,0.0,0.0,0.0,0.0,0.0,0.0,0.0,0.0,0.0,0.0,0.0,0.0,0.0,0.0,0.0,0.0,0.0,0.0,0.0,0.0,0.0,0.0,0.0,0.0,0.0,0.0,0.0,0.0,0.0,0.0,0.0,0.0,0.0,0.0,0.0,0.0,0.0,0.0,0.0,0.0,0.0,0.0,0.0,0.0,0.0,0.0,0.0,0.0,0.0,0.0,-1.739,-2.0474,-2.2358,-2.2634,-1.9063,-1.671,0.0,0.0,0.0,0.0,0.0,0.0,0.0,0.0,0.0,0.0,0.0,0.0,0.0,0.0,0.0,0.0,0.0,0.0,0.0,0.0,0.0,0.0,0.0,0.0,0.0,0.0,0.0,0.0,0.0,0.0,0.0,0.0,0.0,0.0,0.0,0.0,0.0,0.0,0.0,0.0,0.0,0.0,0.0,0.0,0.0,0.0,0.0,0.0,0.0,0.0,0.0,0.0,0.0,0.0,0.0,0.0,0.0,0.0,0.0,0.0,0.0,0.0,0.0,0.0,0.0,0.0,0.0,0.0,0.0,0.0,0.0,0.0,0.0,0.0,0.0,0.0,0.0,0.0,0.0,0.0,0.0,0.0,0.0,0.0,0.0,0.0,0.0,0.0,0.0,0.0,0.0,0.0,0.0,0.0,0.0,0.0,0.0,0.0,0.0,0.0,0.0,0.0,0.0,0.0,0.0,0.0,0.0,0.0,0.0,-2.0658,-2.3056,-2.4689,-2.5359,-2.1068,-1.8583,-1.8142,0.0,0.0,0.0,0.0,0.0,0.0,0.0,0.0,0.0,0.0,0.0,0.0,0.0,0.0,0.0,0.0,0.0,0.0,0.0,0.0,0.0,0.0,0.0,0.0,0.0,0.0,0.0,0.0,0.0,0.0,0.0,0.0,0.0,0.0,0.0,0.0,0.0,0.0,0.0,0.0,0.0,0.0,0.0,0.0,0.0,0.0,0.0,0.0,0.0,0.0,0.0,0.0,0.0,0.0,0.0,0.0,0.0,0.0,0.0,0.0,0.0,0.0,0.0,0.0,0.0,0.0,0.0,0.0,0.0,0.0,0.0,0.0,0.0,0.0,0.0,0.0,0.0,0.0,0.0,0.0,0.0,0.0,0.0,0.0,0.0,0.0,0.0,0.0,0.0,0.0,0.0,0.0,0.0,0.0,0.0,0.0,0.0,0.0,0.0,0.0,0.0,0.0,0.0,0.0,0.0,0.0,0.0,0.0,-2.7718,-2.9438,-2.9558,-2.7922,-2.4822,-2.1651,0.0,0.0,0.0,0.0,0.0,0.0,0.0,0.0,0.0,0.0,0.0,0.0,0.0,0.0,0.0,0.0,0.0,0.0,0.0,0.0,0.0,0.0,0.0,0.0,0.0,0.0,0.0,0.0,0.0,0.0,0.0,0.0,0.0,0.0,0.0,0.0,0.0,0.0,0.0,0.0,0.0,0.0,0.0,0.0,0.0,0.0,0.0,0.0,0.0,0.0,0.0,0.0,0.0,0.0,0.0,0.0,0.0,0.0,0.0,0.0,0.0,0.0,0.0,0.0,0.0,0.0,0.0,0.0,0.0,0.0,0.0,0.0,0.0,0.0,0.0,0.0,0.0,0.0,0.0,0.0,0.0,0.0,0.0,0.0,0.0,0.0,0.0,0.0,0.0,0.0,0.0,0.0,0.0,0.0,0.0,0.0,0.0,0.0,0.0,0.0,0.0,0.0,0.0,0.0,0.0,0.0,0.0,0.0,0.0,-3.1765,-3.3045,-3.2857,-3.1331,-2.7197,-2.3925,0.0,0.0,0.0,0.0,0.0,0.0,0.0,0.0,0.0,0.0,0.0,0.0,0.0,0.0,0.0,0.0,0.0,0.0,0.0,0.0,0.0,0.0,0.0,0.0,0.0,0.0,0.0,0.0,0.0,0.0,0.0,0.0,0.0,0.0,0.0,0.0,0.0,0.0,0.0,0.0,0.0,0.0,0.0,0.0,0.0,0.0,0.0,0.0,0.0,0.0,0.0,0.0,0.0,0.0,0.0,0.0,0.0,0.0,0.0,0.0,0.0,0.0,0.0,0.0,0.0,0.0,0.0,0.0,0.0,0.0,0.0,0.0,0.0,0.0,0.0,0.0,0.0,0.0,0.0,0.0,0.0,0.0,0.0,0.0,0.0,0.0,0.0,0.0,0.0,0.0,0.0,0.0,0.0,0.0,0.0,0.0,0.0,0.0,0.0,0.0,0.0,0.0,0.0,0.0,0.0,0.0,0.0,0.0,-2.8964,-3.4322,-3.5719,-3.6185,-3.5687,-3.085,-2.7213,0.0,0.0,0.0,0.0,0.0,0.0,0.0,0.0,0.0,0.0,0.0,0.0,0.0,0.0,0.0,0.0,0.0,0.0,0.0,0.0,0.0,0.0,0.0,0.0,0.0,0.0,0.0,0.0,0.0,0.0,0.0,0.0,0.0,0.0,0.0,0.0,0.0,0.0,0.0,0.0,0.0,0.0,0.0,0.0,0.0,0.0,0.0,0.0,0.0,0.0,0.0,0.0,0.0,0.0,0.0,0.0,0.0,0.0,0.0,0.0,0.0,0.0,0.0,0.0,0.0,0.0,0.0,0.0,0.0,0.0,0.0,0.0,0.0,0.0,0.0,0.0,0.0,0.0,0.0,0.0,0.0,0.0,0.0,0.0,0.0,0.0,0.0,0.0,0.0,0.0,0.0,0.0,0.0,0.0,0.0,0.0,0.0,0.0,0.0,0.0,0.0,0.0,0.0,0.0,0.0,0.0,0.0,0.0,-3.2081,-3.5843,-3.772,-3.9064,-3.97,-3.4821,-3.0831,0.0,0.0,0.0,0.0,0.0,0.0,0.0,0.0,0.0,0.0,0.0,0.0,0.0,0.0,0.0,0.0,0.0,0.0,0.0,0.0,0.0,0.0,0.0,0.0,0.0,0.0,0.0,0.0,0.0,0.0,0.0,0.0,0.0,0.0,0.0,0.0,0.0,0.0,0.0,0.0,0.0,0.0,0.0,0.0,0.0,0.0,0.0,0.0,0.0,0.0,0.0,0.0,0.0,0.0,0.0,0.0,0.0,0.0,0.0,0.0,0.0,0.0,0.0,0.0,0.0,0.0,0.0,0.0,0.0,0.0,0.0,0.0,0.0,0.0,0.0,0.0,0.0,0.0,0.0,0.0,0.0,0.0,0.0,0.0,0.0,0.0,0.0,0.0,0.0,0.0,0.0,0.0,0.0,0.0,0.0,0.0,0.0,0.0,0.0,0.0,0.0,0.0,0.0,0.0,0.0,0.0,0.0,0.0,-3.387,-3.7863,-3.8616,-3.9518,-4.0527,-3.6151,-3.2639,0.0,0.0,0.0,0.0,0.0,0.0,0.0,0.0,0.0,0.0,0.0,0.0,0.0,0.0,0.0,0.0,0.0,0.0,0.0,0.0,0.0,0.0,0.0,0.0,0.0,0.0,0.0,0.0,0.0,0.0,0.0,0.0,0.0,0.0,0.0,0.0,0.0,0.0,0.0,0.0,0.0,0.0,0.0,0.0,0.0,0.0,0.0,0.0,-1.4672,0.0,0.0,0.0,0.0,0.0,0.0,0.0,0.0,0.0,0.0,0.0,0.0,0.0,0.0,0.0,0.0,0.0,0.0,0.0,0.0,0.0,0.0,0.0,0.0,0.0,0.0,0.0,0.0,0.0,0.0,0.0,0.0,0.0,0.0,0.0,0.0,0.0,0.0,0.0,0.0,0.0,0.0,0.0,0.0,0.0,0.0,0.0,0.0,0.0,0.0,0.0,0.0,0.0,0.0,0.0,0.0,0.0,0.0,0.0,-3.4865,-3.888,-3.9896,-4.0851,-4.1664,-3.8734,-3.5282,0.0,0.0,0.0,0.0,0.0,0.0,0.0,0.0,0.0,0.0,0.0,0.0,0.0,0.0,0.0,0.0,0.0,0.0,0.0,0.0,0.0,0.0,0.0,0.0,0.0,0.0,0.0,0.0,0.0,0.0,0.0,0.0,0.0,0.0,0.0,0.0,0.0,0.0,0.0,0.0,0.0,0.0,0.0,0.0,0.0,0.0,0.0,0.0,0.0,0.0,0.0,0.0,0.0,0.0,0.0,0.0,0.0,0.0,0.0,0.0,0.0,0.0,0.0,0.0,0.0,0.0,0.0,0.0,0.0,0.0,0.0,0.0,0.0,0.0,0.0,0.0,0.0,0.0,0.0,0.0,0.0,0.0,0.0,0.0,0.0,0.0,0.0,0.0,0.0,0.0,0.0,0.0,0.0,0.0,0.0,0.0,0.0,0.0,0.0,0.0,0.0,0.0,0.0,0.0,0.0,0.0,0.0,-3.0946,-3.5533,-3.937,-4.1186,-4.2339,-4.2859,-4.1172,-3.7889,-3.278,0.0,0.0,0.0,0.0,0.0,0.0,0.0,0.0,0.0,0.0,0.0,0.0,0.0,0.0,0.0,0.0,0.0,0.0,0.0,0.0,0.0,0.0,0.0,0.0,0.0,0.0,0.0,0.0,0.0,0.0,0.0,0.0,0.0,0.0,0.0,0.0,0.0,0.0,-1.37,-1.6954,0.0,0.0,0.0,0.0,0.0,0.0,0.0,0.0,-1.6451,0.0,0.0,0.0,0.0,0.0,0.0,0.0,0.0,0.0,0.0,0.0,0.0,0.0,0.0,0.0,0.0,0.0,0.0,0.0,0.0,0.0,0.0,0.0,0.0,0.0,0.0,0.0,0.0,0.0,0.0,0.0,0.0,0.0,0.0,0.0,0.0,0.0,0.0,0.0,0.0,0.0,0.0,0.0,0.0,0.0,0.0,0.0,0.0,0.0,0.0,0.0,0.0,0.0,0.0,0.0,0.0,-2.944,-3.2989,-3.6303,-3.9422,-4.165,-4.2689,-4.2411,-4.1527,-3.887,-3.4269,0.0,0.0,0.0,0.0,0.0,0.0,0.0,0.0,0.0,0.0,0.0,0.0,0.0,0.0,0.0,0.0,0.0,0.0,0.0,0.0,0.0,0.0,0.0,0.0,0.0,0.0,0.0,0.0,0.0,0.0,0.0,0.0,0.0,0.0,0.0,0.0,0.0,0.0,0.0,-2.2319,-2.3372,0.0,0.0,0.0,0.0,0.0,0.0,0.0,0.0,-1.7146,0.0,0.0,0.0,0.0,0.0,0.0,0.0,0.0,0.0,0.0,0.0,0.0,0.0,0.0,0.0,0.0,0.0,0.0,0.0,0.0,0.0,0.0,0.0,0.0,0.0,0.0,0.0,0.0,0.0,0.0,0.0,0.0,0.0,0.0,0.0,0.0,0.0,0.0,0.0,0.0,0.0,0.0,0.0,0.0,0.0,0.0,0.0,0.0,0.0,0.0,0.0,0.0,0.0,0.0,0.0,-2.89,-3.3938,-3.7879,-4.0625,-4.2347,-4.3333,-4.3436,-4.2388,-3.9681,0.0,0.0,0.0,0.0,0.0,0.0,0.0,0.0,0.0,0.0,0.0,0.0,0.0,0.0,0.0,0.0,0.0,0.0,0.0,0.0,0.0,0.0,0.0,0.0,0.0,0.0,0.0,0.0,0.0,0.0,0.0,0.0,0.0,0.0,0.0,0.0,0.0,0.0,0.0,0.0,-2.41,-2.5388,-2.6366,0.0,0.0,0.0,0.0,0.0,0.0,-1.9401,-1.848,0.0,0.0,0.0,0.0,0.0,0.0,0.0,0.0,0.0,0.0,0.0,0.0,0.0,0.0,0.0,0.0,0.0,0.0,0.0,0.0,0.0,0.0,0.0,0.0,0.0,0.0,0.0,0.0,0.0,0.0,0.0,0.0,0.0,0.0,0.0,0.0,0.0,0.0,0.0,0.0,0.0,0.0,0.0,0.0,0.0,0.0,0.0,0.0,0.0,0.0,0.0,0.0,0.0,0.0,0.0,-2.7801,-3.4165,-3.8826,-4.1576,-4.309,-4.4181,-4.4756,-4.3301,-4.0358,0.0,0.0,0.0,0.0,0.0,0.0,0.0,0.0,0.0,0.0,0.0,0.0,0.0,0.0,0.0,0.0,0.0,0.0,0.0,0.0,0.0,0.0,0.0,0.0,0.0,0.0,0.0,0.0,0.0,0.0,0.0,0.0,0.0,0.0,0.0,0.0,0.0,0.0,0.0,0.0,0.0,-2.7255,-2.8928,-2.6731,0.0,0.0,0.0,0.0,-2.2758,-2.2204,0.0,0.0,0.0,0.0,0.0,0.0,0.0,0.0,0.0,0.0,0.0,0.0,0.0,0.0,0.0,0.0,0.0,0.0,0.0,0.0,0.0,0.0,0.0,0.0,0.0,0.0,0.0,0.0,0.0,0.0,0.0,0.0,0.0,0.0,0.0,0.0,0.0,0.0,0.0,0.0,0.0,0.0,0.0,0.0,0.0,0.0,0.0,0.0,0.0,0.0,0.0,0.0,0.0,0.0,0.0,0.0,-2.8113,-3.3332,-3.7759,-4.1205,-4.3978,-4.55,-4.5568,-4.4113,-4.0865,0.0,0.0,0.0,0.0,0.0,0.0,0.0,0.0,0.0,0.0,0.0,0.0,0.0,0.0,0.0,0.0,0.0,0.0,0.0,0.0,0.0,0.0,0.0,0.0,0.0,0.0,0.0,0.0,0.0,0.0,0.0,0.0,0.0,0.0,0.0,0.0,0.0,0.0,0.0,0.0,0.0,-3.0159,-2.9316,-2.8556,-2.803,0.0,0.0,-2.6681,-2.9049,-2.8846,0.0,0.0,0.0,0.0,0.0,0.0,0.0,0.0,0.0,0.0,0.0,0.0,0.0,0.0,0.0,0.0,0.0,0.0,0.0,0.0,0.0,0.0,0.0,0.0,0.0,0.0,0.0,0.0,0.0,0.0,0.0,0.0,0.0,0.0,0.0,0.0,0.0,0.0,0.0,0.0,0.0,0.0,0.0,0.0,0.0,0.0,0.0,0.0,0.0,0.0,0.0,0.0,0.0,0.0,0.0,-2.5088,-2.873,-3.5416,-4.0036,-4.2422,-4.4587,-4.5906,-4.6312,-4.4539,-4.111,0.0,0.0,0.0,0.0,0.0,0.0,0.0,0.0,0.0,0.0,0.0,0.0,0.0,0.0,0.0,0.0,0.0,0.0,0.0,0.0,0.0,0.0,0.0,0.0,0.0,0.0,0.0,0.0,0.0,0.0,0.0,0.0,0.0,0.0,0.0,0.0,0.0,0.0,0.0,0.0,0.0,0.0,-3.1504,-3.0516,0.0,0.0,0.0,-2.9654,-3.0402,0.0,0.0,0.0,0.0,0.0,0.0,0.0,0.0,0.0,0.0,0.0,0.0,0.0,0.0,0.0,0.0,0.0,0.0,0.0,0.0,0.0,0.0,0.0,0.0,0.0,0.0,0.0,0.0,0.0,0.0,0.0,0.0,0.0,0.0,0.0,0.0,0.0,0.0,0.0,0.0,0.0,0.0,0.0,0.0,0.0,0.0,0.0,0.0,0.0,0.0,0.0,0.0,0.0,0.0,0.0,0.0,0.0,-2.9364,-3.7347,-4.2219,-4.3673,-4.5365,-4.6515,-4.7022,-4.521,0.0,0.0,0.0,0.0,0.0,0.0,0.0,0.0,0.0,0.0,0.0,0.0,0.0,0.0,0.0,0.0,0.0,0.0,0.0,0.0,0.0,0.0,0.0,0.0,0.0,0.0,0.0,-0.8694,0.0,0.0,0.0,0.0,0.0,0.0,0.0,0.0,0.0,0.0,0.0,0.0,0.0,0.0,-3.001,-3.3481,-3.2725,-3.2407,0.0,0.0,-3.2826,-3.2976,-3.4651,-3.4644,0.0,0.0,0.0,0.0,0.0,0.0,0.0,0.0,0.0,0.0,0.0,0.0,0.0,0.0,0.0,0.0,0.0,0.0,0.0,0.0,0.0,0.0,0.0,0.0,0.0,0.0,0.0,0.0,-0.8137,0.0,0.0,0.0,0.0,0.0,0.0,0.0,0.0,0.0,0.0,0.0,0.0,0.0,0.0,0.0,0.0,0.0,0.0,0.0,0.0,0.0,0.0,0.0,0.0,0.0,-2.7063,-3.0176,-3.8058,-4.2963,-4.4485,-4.665,-4.78,-4.7774,-4.6167,-4.2055,0.0,0.0,0.0,0.0,0.0,0.0,0.0,0.0,0.0,0.0,0.0,0.0,0.0,0.0,0.0,0.0,0.0,0.0,0.0,0.0,0.0,0.0,0.0,0.0,0.0,0.0,0.0,0.0,0.0,0.0,0.0,0.0,0.0,0.0,0.0,0.0,0.0,0.0,0.0,0.0,0.0,-3.0562,-3.4453,-3.5087,-3.6267,0.0,-3.7764,-3.6985,-3.9349,-3.9828,-3.8063,-3.2348,0.0,0.0,0.0,0.0,0.0,0.0,0.0,0.0,0.0,0.0,0.0,0.0,0.0,0.0,0.0,0.0,0.0,0.0,0.0,0.0,0.0,0.0,0.0,0.0,0.0,-0.828,-0.8205,0.0,-0.8026,0.0,0.0,0.0,0.0,0.0,0.0,0.0,0.0,0.0,0.0,0.0,0.0,0.0,0.0,0.0,0.0,0.0,0.0,0.0,0.0,0.0,0.0,0.0,0.0,-2.774,-3.0818,-3.8836,-4.3741,-4.5263,-4.6989,-4.8105,-4.8578,-4.6614,-4.3215,0.0,0.0,0.0,0.0,0.0,0.0,0.0,0.0,0.0,0.0,0.0,0.0,0.0,0.0,0.0,0.0,0.0,0.0,0.0,0.0,0.0,0.0,0.0,0.0,0.0,0.0,0.0,0.0,-1.5183,-1.5183,-1.3179,0.0,0.0,0.0,0.0,0.0,0.0,0.0,0.0,0.0,0.0,-3.2048,-3.5185,-3.623,0.0,0.0,-3.9559,-3.923,-4.0247,-4.0068,-3.8601,-3.513,-3.2467,0.0,0.0,0.0,0.0,0.0,0.0,0.0,0.0,0.0,0.0,0.0,0.0,0.0,0.0,0.0,0.0,0.0,0.0,0.0,0.0,0.0,0.0,0.0,0.0,0.0,0.0,-0.7986,-0.7943,0.0,0.0,0.0,0.0,0.0,0.0,0.0,0.0,0.0,0.0,0.0,0.0,0.0,0.0,0.0,0.0,0.0,0.0,0.0,0.0,0.0,0.0,0.0,0.0,-2.841,-3.1254,-3.9716,-4.4461,-4.5384,-4.7005,-4.801,-4.8289,-4.6513,-4.3684,0.0,0.0,0.0,0.0,0.0,0.0,0.0,0.0,0.0,0.0,0.0,0.0,0.0,0.0,0.0,0.0,0.0,0.0,0.0,0.0,0.0,0.0,0.0,0.0,0.0,0.0,0.0,0.0,-1.6772,-1.6434,-1.4081,0.0,0.0,0.0,0.0,0.0,0.0,0.0,0.0,0.0,0.0,-3.33,-3.6542,-3.7203,-3.8112,-4.0127,-4.0068,-3.9798,-3.9798,-3.9918,-3.914,-3.6596,0.0,0.0,0.0,0.0,0.0,0.0,0.0,0.0,0.0,0.0,0.0,0.0,0.0,0.0,0.0,0.0,0.0,0.0,0.0,0.0,0.0,0.0,0.0,0.0,0.0,0.0,0.0,-0.793,0.0,0.0,-0.79,0.0,0.0,0.0,0.0,0.0,0.0,0.0,0.0,0.0,0.0,0.0,0.0,0.0,0.0,0.0,0.0,0.0,0.0,0.0,0.0,0.0,0.0,-2.8848,-3.1353,-4.0721,-4.5257,-4.4854,-4.6782,-4.7506,-4.6864,-4.5737,-4.3286,-3.9251,0.0,0.0,0.0,0.0,0.0,0.0,0.0,0.0,0.0,0.0,0.0,0.0,0.0,0.0,0.0,0.0,0.0,0.0,0.0,0.0,0.0,0.0,0.0,0.0,0.0,0.0,-1.2253,-1.4303,-1.5859,0.0,0.0,0.0,0.0,0.0,0.0,0.0,0.0,0.0,-2.9589,-3.1566,-3.4149,-3.8612,-3.8251,-3.824,-4.0187,-3.9379,-3.8512,-3.8571,-4.0068,-4.0008,0.0,0.0,0.0,0.0,0.0,0.0,0.0,0.0,0.0,0.0,0.0,0.0,0.0,0.0,0.0,0.0,0.0,0.0,0.0,0.0,0.0,0.0,0.0,0.0,0.0,0.0,0.0,-1.1412,-1.0879,0.0,0.0,0.0,0.0,0.0,0.0,0.0,0.0,0.0,0.0,0.0,-2.4153,-2.5423,0.0,0.0,0.0,0.0,0.0,0.0,0.0,0.0,0.0,0.0,0.0,0.0,-2.8777,-3.1862,-3.9854,-4.4266,-4.4756,-4.6352,-4.7001,-4.662,-4.5593,-4.2891,-3.8172,0.0,0.0,0.0,0.0,0.0,0.0,0.0,0.0,0.0,0.0,0.0,0.0,0.0,0.0,0.0,0.0,0.0,0.0,0.0,0.0,0.0,0.0,0.0,0.0,0.0,-1.4834,0.0,0.0,0.0,0.0,0.0,0.0,0.0,0.0,0.0,0.0,-2.4492,-2.8359,-3.2018,-3.439,-3.6616,-3.905,-3.9785,-4.0592,0.0,0.0,0.0,0.0,0.0,0.0,0.0,0.0,0.0,0.0,0.0,0.0,0.0,-2.9654,-2.8698,-2.3644,-2.2412,-2.2217,-2.2274,0.0,0.0,0.0,0.0,0.0,0.0,0.0,0.0,0.0,0.0,0.0,0.0,0.0,0.0,-1.523,-1.4456,-1.3971,0.0,0.0,0.0,0.0,0.0,0.0,0.0,0.0,-2.5786,-2.814,-2.9684,-3.0921,-3.0657,-2.908,-2.8499,-2.5603,0.0,0.0,0.0,0.0,0.0,0.0,0.0,0.0,-2.9783,-3.316,-3.9742,-4.3421,-4.3817,-4.5138,-4.5769,-4.5593,-4.4962,-4.2982,-3.9559,-3.7554,-3.5011,0.0,0.0,0.0,0.0,0.0,0.0,0.0,0.0,0.0,0.0,0.0,0.0,0.0,0.0,0.0,0.0,0.0,0.0,0.0,0.0,0.0,0.0,0.0,-1.7055,0.0,0.0,0.0,0.0,0.0,0.0,0.0,0.0,0.0,-2.4164,-2.8068,-3.1988,-3.4831,-3.6896,-3.8512,-3.9619,0.0,0.0,0.0,0.0,0.0,0.0,0.0,-3.9409,-4.0008,-3.8392,-3.685,-3.6291,-3.6265,-3.5892,-3.4566,0.0,0.0,-2.8202,-2.6824,-2.6697,-2.6806,-2.7575,-2.8113,-2.7893,-2.8743,-2.9792,0.0,0.0,0.0,0.0,-1.6387,0.0,0.0,0.0,-1.9769,-1.9401,0.0,-1.8511,0.0,0.0,0.0,0.0,-1.789,-2.1783,0.0,0.0,-3.2916,-3.528,-3.6537,-3.6596,-3.6487,-3.6228,-3.4951,-3.3186,-3.0859,-2.4997,-2.0188,0.0,0.0,0.0,0.0,0.0,-3.1873,-3.5306,-4.0356,-4.2648,-4.2162,-4.3406,-4.4087,-4.4096,-4.3922,-4.3657,-4.324,-4.0307,-3.7674,-3.5609,-2.8397,0.0,0.0,0.0,0.0,0.0,0.0,0.0,0.0,0.0,0.0,0.0,0.0,0.0,0.0,0.0,0.0,0.0,0.0,0.0,0.0,-1.8076,0.0,0.0,0.0,0.0,0.0,0.0,0.0,0.0,0.0,-3.0317,-2.744,-3.0881,-3.4831,-3.7913,0.0,0.0,0.0,0.0,-4.0592,-4.0666,-4.0636,-4.0516,-3.9948,-4.2312,-4.4047,-4.3539,0.0,0.0,-4.1852,-4.1773,-4.1026,-3.7491,-3.8256,-3.8297,-3.5257,-3.3091,-3.1863,-3.1863,-3.2147,-3.2375,-3.2504,-3.3791,-3.546,-2.8181,0.0,0.0,0.0,0.0,-2.2229,-2.3772,-2.627,-2.5983,-2.5649,-2.5322,-2.4175,0.0,0.0,0.0,0.0,0.0,0.0,-2.8473,-3.2265,-3.5198,-3.7793,-3.9978,-3.9978,-3.9755,-3.9238,-3.8779,-3.7752,-3.617,-3.3897,-2.8681,-2.0947,0.0,0.0,0.0,0.0,-3.3332,-3.5093,-3.9229,-4.1862,-4.2682,-4.3548,-4.4356,-4.5112,-4.498,-4.4817,-4.4706,-4.3359,-4.1265,-3.8452,-3.7913,0.0,0.0,0.0,0.0,0.0,0.0,0.0,0.0,0.0,0.0,0.0,0.0,0.0,0.0,0.0,0.0,0.0,0.0,0.0,-1.6027,-1.9414,-2.0962,0.0,0.0,0.0,0.0,0.0,0.0,0.0,0.0,0.0,-3.3604,-3.5579,-3.7345,0.0,0.0,-4.0008,-3.9738,-4.1713,-4.3389,-4.3808,-4.4706,0.0,-4.5693,-4.4945,-4.4736,-4.5963,-4.7189,-4.7459,-4.5789,-4.5638,-4.5287,-4.3658,-4.2467,-4.1379,-4.054,-3.8105,-3.6376,-3.6411,-3.6367,-3.6296,-3.6551,-3.7011,-3.7326,-3.4349,-2.9674,-2.7424,-2.7137,-2.8239,-2.7794,-2.9337,-3.2193,-3.1724,-3.1488,-3.1329,-3.0331,-2.8324,-2.5521,-2.4611,0.0,0.0,0.0,-3.2703,-3.5607,-3.792,-3.9978,-4.1683,-4.1504,-4.1444,-4.1534,-4.0756,-4.0085,-3.9534,-3.8576,-3.4617,-2.7854,0.0,-2.8966,-2.8457,-3.2287,-3.5075,-3.664,-3.9264,-4.125,-4.2727,-4.3904,-4.482,-4.541,-4.5387,-4.5274,-4.5274,-4.4915,-4.3778,-4.1863,-4.2761,-3.9535,0.0,0.0,0.0,0.0,0.0,0.0,0.0,0.0,0.0,0.0,0.0,-1.1899,-0.961,0.0,0.0,0.0,-1.751,-1.9172,-2.0591,-2.3329,0.0,0.0,0.0,0.0,0.0,0.0,0.0,-3.0865,-3.4456,-3.7165,-3.8672,-3.9679,-4.0367,-4.0367,-4.1085,-4.1595,-4.1713,0.0,-4.5304,-4.5992,-4.701,-4.7818,-4.8207,-4.7369,-4.716,-4.8626,-4.9164,-4.9194,-4.8596,-4.8446,-4.8176,-4.7109,-4.5522,-4.4059,-4.3678,-4.1571,-3.9664,-3.9031,-3.8714,-3.8647,-3.8766,-3.8673,-3.8736,-3.8631,-3.8242,-3.3743,-3.2815,-3.4133,-3.314,-3.451,-3.7337,-3.6846,-3.659,-3.6606,-3.639,-3.4735,-3.2047,-3.0877,0.0,-3.2022,-3.5125,-3.7416,-3.9122,-4.0719,-4.1756,-4.2419,-4.1803,-4.2132,-4.318,-4.1474,-4.0935,-4.1444,-4.0277,-3.8452,-3.6178,-3.4714,-3.4538,-3.5514,-3.5818,-3.7165,-3.9529,-4.0157,-4.1145,-4.2569,-4.4436,-4.5454,-4.5454,-4.5454,-4.5454,-4.5454,-4.5334,-4.5274,-4.5244,-4.4137,-4.0689,-3.4864,0.0,0.0,0.0,0.0,0.0,0.0,0.0,0.0,0.0,0.0,0.0,0.0,0.0,0.0,-2.0618,-2.4798,0.0,-2.7538,-2.8507,0.0,0.0,0.0,-2.5782,-2.6283,-2.982,-3.2939,-3.4932,0.0,0.0,-4.2509,-4.309,-4.3569,-4.3838,-4.3596,-4.3886,-4.5177,-4.5957,-4.6766,-4.7369,-4.8087,-4.8536,-4.8865,-4.9643,-5.0481,-5.1109,-5.1379,-5.1109,-5.0601,-5.0481,-4.9972,-4.8865,-4.7485,-4.6248,-4.5007,-4.3721,-4.2498,-4.0562,-4.0053,-3.9931,-4.0035,-4.0062,-4.0245,-4.0666,-4.0516,-3.8859,-3.8132,-3.8072,-3.7774,-3.8441,-3.9606,-3.946,-3.9728,-4.0129,-3.9459,-3.8025,-3.6143,-3.4823,-3.453,-3.5303,-3.6681,-3.8053,-3.9584,-4.114,-4.204,-4.2372,-4.2701,-4.2761,-4.2611,-4.2611,-4.2731,-4.2821,-4.2073,-4.1594,-4.1414,-4.0159,-3.843,-3.6447,-3.8721,-4.0277,-4.0905,-4.1055,-4.2013,-4.3838,-4.5783,-4.683,-4.683,-4.683,-4.683,-4.683,-4.5843,-4.5274,-4.5274,-4.5005,-4.282,-3.838,-3.2908,0.0,0.0,0.0,0.0,0.0,0.0,0.0,0.0,0.0,-1.738,-1.4522,0.0,-2.3311,0.0,-2.8019,-2.9377,-2.71,-2.8898,0.0,0.0,-2.9106,-2.9563,-3.3085,-3.3907,-3.5211,-3.7987,-4.0577,-4.2821,-4.4422,-4.4743,-4.5574,-4.7519,-4.6107,-4.4937,-4.5304,-4.7189,-4.8685,-4.8865,-4.9763,-5.069,-5.1139,-5.1947,-5.2486,-5.2695,-5.2695,-5.2636,-5.2516,-5.2486,-5.2077,-5.0916,-4.9481,-4.7892,-4.6173,-4.4724,-4.3466,-4.2472,-4.2277,-4.2292,-4.269,-4.2695,-4.2545,-4.0935,-4.0935,-4.0876,-4.0636,-4.0277,-3.9978,-4.0397,-4.1265,-4.1265,-4.1474,-4.1833,-4.1607,-4.0779,-3.9601,-3.8802,-3.809,-3.7718,-3.8224,-3.8697,-3.9199,-4.0506,-4.1397,-4.1844,-4.2246,-4.2731,-4.321,-4.3,-4.306,-4.3269,-4.2671,-4.2402,-4.2462,-4.2043,-4.0905,-3.923,-4.0636,-4.1159,-4.0634,-4.1155,-4.1924,-4.3073,-4.4873,-4.5486,-4.4955,-4.5913,-4.6142,-4.5574,-4.5394,-4.4885,-4.4047,-4.3539,-4.1853,-3.8732,-3.3668,-3.0212,0.0,0.0,0.0,0.0,0.0,0.0,0.0,0.0,0.0,0.0,0.0,-2.6183,-2.536,-2.9731,-3.1559,-2.8846,-3.1629,-3.3639,-3.3721,-3.3277,-3.3993,-3.6584,-3.6525,-3.7479,-4.0435,-4.1922,-4.3544,-4.5605,-4.5692,-4.6456,-4.8673,-4.7731,-4.6904,-4.7551,-4.9014,-5.0236,-5.0571,-5.1439,-5.2217,-5.2606,-5.2935,-5.3174,-5.3174,-5.2783,-5.2457,-5.2457,-5.1795,-5.1091,-5.0325,-4.8921,-4.7509,-4.6206,-4.4943,-4.3861,-4.3677,-4.357,-4.3592,-4.3515,-4.3231,-4.3101,-4.0277,-4.0337,-4.0905,-4.1175,-4.1205,-4.0636,-4.1085,-4.2222,-4.2252,-4.2222,-4.2359,-4.2821,-4.2663,-4.1907,-4.1662,-4.0717,-3.9202,-3.9225,-3.8891,-3.8378,-3.9414,-4.0249,-4.0844,-4.1311,-4.2306,-4.3634,-4.2891,-4.2682,-4.314,-4.2682,-4.2192,-4.1683,-4.2115,-4.2276,-4.2186,-4.1632,-4.0837,-3.9924,-4.0809,-4.1398,-4.1564,-4.3056,-4.3309,-4.232,-4.4069,-4.4519,-4.3337,-4.434,-4.4214,-4.2436,-4.1143,-3.9606,-3.7833,-3.5292,-3.2364,0.0,-2.7857,0.0,0.0,0.0,0.0,0.0,0.0,0.0,0.0,-2.6698,-2.7088,-2.5745,-3.1124,-3.3852,-3.1873,-3.5167,-3.7284,-3.6962,-3.7516,-3.8039,-3.8227,-3.8532,-3.9747,-4.2328,-4.3133,-4.4237,-4.6196,-4.628,-4.6769,-4.824,-4.8577,-4.8682,-4.9799,-5.0668,-5.1542,-5.2276,-5.2875,-5.3234,-5.3,-5.3089,-5.3179,-5.2951,-5.2251,-5.1555,-5.1613,-5.0378,-4.923,-4.8862,-4.7873,-4.6482,-4.5624,-4.4758,-4.4201,-4.4229,-4.4256,-4.4019,-4.3546,-4.3258,-4.3098,-3.9589,-3.9619,-3.9738,-4.0098,-4.0576,-4.0457,-4.0846,-4.1564,-4.1564,-4.1564,-4.1594,-4.1683,-4.1667,-4.1436,-4.0038,-3.9196,-3.8755,-3.7407,-3.7096,-3.7721,-3.8558,-3.9117,-3.9572,-4.1273,-4.1651,-4.0933,-4.2444,-4.2812,-4.2252,-4.2862,-4.309,-4.2891,-4.2342,-4.1814,-4.1266,0.0,0.0,0.0,-4.1222,-4.1396,-4.1454,-4.2649,-4.3135,-4.2902,-4.3799,0.0,-4.3085,-4.3282,-4.2992,-4.1994,-4.0071,0.0,-3.8755,0.0,0.0,0.0,0.0,0.0,0.0,0.0,0.0,0.0,-2.547,-2.6007,-2.6277,-3.0458,-3.2356,-3.0482,-3.3933,-3.6014,-3.5417,-3.7065,-3.8121,-3.7952,-3.8714,-3.9554,-4.0175,-4.0736,-4.1622,-4.2582,-4.3815,-4.5065,-4.5921,-4.6476,-4.7122,-4.7885,-4.855,-4.8861,-4.9165,-5.0759,-5.2144,-5.2905,-5.3396,-5.3555,-5.269,-5.2997,-5.2862,-5.2195,-5.1875,-5.1604,-5.1491,-5.0826,-4.9955,-4.9145,-4.8436,-4.7244,-4.5869,-4.5407,-4.4952,-4.4453,-4.4349,-4.4323,-4.4327,-4.4274,-4.4245,-3.9439,-3.9439,-3.9439,-3.9619,0.0,-3.9918,-4.0098,-4.0457,-4.1115,-4.1384,-4.1384,-4.0944,-4.079,-4.0606,-3.8912,-3.8173,-3.809,-3.6877,-3.6532,-3.7048,-3.7942,-3.8559,-3.8978,-4.0456,-4.1024,-4.0887,-4.1645,-4.1872,-4.1823,-4.1926,-4.1976,-4.1976,-4.1532,-4.1139,-4.077,-4.0658,-4.0479,-4.026,-4.0114,-4.0106,-4.0294,-4.1128,-4.1505,-4.131,-4.2332,0.0,0.0,0.0,0.0,0.0,0.0,0.0,0.0,-3.5678,-3.4391,-3.3875,-3.233,-3.0593,-2.8787,-2.8042,-2.8046,-2.8625,-2.9636,-3.0248,-3.0145,-3.3231,-3.465,-3.3621,-3.5872,-3.745,-3.7544,-3.867,-3.9477,-3.9669,-3.9931,-4.0324,-4.092,-4.1055,-4.1746,-4.3352,-4.3822,-4.4501,-4.6008,-4.5928,-4.6256,-4.7019,-4.7426,-4.7993,-4.8921,-5.0383,-5.173,-5.2339,-5.2717,-5.274,-5.2157,-5.1995,-5.1974,-5.1304,-5.054,-5.0048,-5.002,-4.8981,-4.7974,-4.7287,-4.6724,-4.5893,-4.5051,-4.4753,-4.4675,-4.4171,-4.4094,-4.4094,-4.4042,-4.4042,-4.3958,-3.9439,-3.9439,-3.9439,-3.9439,-3.9439,-3.9439,-3.9337,-3.9281,-4.0472,0.0,0.0,-4.0051,-3.9712,-3.9477,-3.7841,-3.7259,-3.7368,-3.6657,-3.6392,-3.6584,-3.7497,-3.8136,-3.8401,-3.9395,-4.0208,-4.0956,-4.0656,-4.077,-4.1131,-4.0742,-4.0575,-4.0603,-4.0432,-4.0315,-4.034,-4.022,-3.9852,-3.9384,-3.9033,-3.8975,-3.9243,-3.986,-3.9916,-3.9427,-4.0885,-4.09,-3.918,-4.0056,-3.9557,-3.7419,-3.7395,-3.7177,-3.641,-3.6383,-3.6476,-3.6823,-3.6456,-3.5567,-3.4064,-3.3597,-3.3126,-3.2555,-3.3409,-3.4059,-3.4089,-3.5102,-3.5881,-3.5981,-3.747,-3.8625,-3.9056,-3.999,-4.0728,-4.1141,-4.0801,-4.0801,-4.135,-4.1063,-4.1786,-4.3834,-4.3756,-4.3914,-4.5739,-4.5309,-4.5046,-4.5874,-4.622,-4.6754,-4.8332,-4.9693,-5.0791,-5.1243,-5.1406,-5.1389,-5.1036,-5.0593,-5.0314,-4.9827,-4.8818,-4.7947,-4.7647,-4.6614,-4.5552,-4.5467,-4.4701,-4.4307,-4.401,-4.3951,-4.3899,-4.3789,-4.3789,-4.3764,-4.3381,-4.3381,-4.3381,-3.9439,-3.9439,-3.9439,-3.9439,-3.9439,-3.9439,-3.9046,-3.8456,-3.9297,-3.9313,-3.8614,-3.8539,-3.8055,-3.7303,-3.6383,-3.6307,-3.6934,-3.6102,-3.5996,-3.6498,-3.7148,-3.744,-3.7279,-3.8505,-3.8827,-3.8565,-3.9651,-4.0,-3.9645,-4.0201,-4.0575,-4.049,-3.9826,-3.9392,-3.9241,-3.8845,-3.9107,-4.0134,-4.0075,-3.986,-3.9731,-4.0187,-4.025,-3.9715,-4.0426,-4.0268,-3.9181,-3.9879,-3.9826,-3.8851,-3.9388,-3.9548,-3.9029,-3.8856,-3.873,-3.8216,-3.8049,-3.7215,-3.5526,-3.5453,-3.5355,-3.5232,-3.6038,-3.6043,-3.481,-3.6081,-3.7161,-3.7638,-3.9297,-4.0466,-4.0363,-4.1027,-4.1178,-4.0676,-4.0958,-4.1402,-4.1951,-4.1951,-4.2393,-4.3808,-4.3888,-4.3964,-4.4778,-4.48,-4.4722,-4.4991,-4.5362,-4.5941,-4.6914,-4.8706,-5.0016,-5.0206,-5.0206,-4.9783,-4.9035,-4.8681,-4.8164,-4.7224,-4.6922,-4.6652,-4.6652,-4.5872,-4.5226,-4.5141,-4.4454,-4.4061,-4.3899,-4.3899,-4.3764,-4.3517,-4.3517,-4.3406,-4.3184,-4.3098,-4.3098,-3.9439,-3.9439,-3.9439,-3.9439,-3.9337,-3.8943,-3.8248,-3.7567,-3.8323,-3.8265,-3.7519,-3.7522,-3.7298,-3.6899,-3.6524,-3.6404,-3.6476,-3.6565,-3.6595,-3.6619,-3.7258,-3.7546,-3.73,-3.7899,-3.7913,-3.7572,-3.8134,-3.8315,-3.816,-3.8522,-3.8675,-3.8702,-3.8542,-3.8516,-3.8428,-3.8955,-3.9492,-4.0114,-3.9685,-3.9812,-4.0481,-4.0198,-4.0166,-4.0483,-4.0455,-4.0037,-3.9287,-3.9359,-3.9205,-3.8481,-3.8774,-3.8968,-3.8897,-3.8897,-3.88,-3.863,-3.863,-3.8209,-3.7245,-3.7023,-3.7023,-3.7023,-3.7319,-3.7337,-3.6584,-3.7535,-3.8239,-3.8492,-3.9722,-4.0505,-4.0643,-4.0901,-4.0977,-4.1,-4.1105,-4.1465,-4.1956,-4.2061,-4.2528,-4.3389,-4.349,-4.364,-4.4183,-4.4287,-4.4313,-4.4338,-4.4597,-4.4856,-4.5089,-4.5945,-4.7028,-4.7676,-4.7728,-4.7397,-4.6816,-4.6468,-4.6088,-4.5529,-4.5296,-4.5141,-4.5089,-4.4745,-4.4531,-4.4233,-4.3917,-4.3568,-4.3432,-4.3432,-4.3321,-4.3295,-4.3184,-4.3073,-4.2986,-4.2986,-4.2986,-3.9265,-3.909,-3.9119,-3.9017,-3.8723,-3.8016,-3.7353,-3.6754,-3.7204,-3.7123,-3.6631,-3.6989,-3.6961,-3.6599,-3.6631,-3.655,-3.6358,-3.6865,-3.7037,-3.6858,-3.7338,-3.7546,-3.732,-3.732,-3.7108,-3.7015,-3.7015,-3.7015,-3.7108,-3.7108,-3.7185,-3.7339,-3.7749,-3.8082,-3.8364,-3.9308,-3.9995,-4.0197,-3.9415,-3.9685,-4.0984,-4.0296,-4.023,-4.0844,-4.0389,-3.988,-3.9399,-3.9171,-3.8843,-3.8417,-3.8391,-3.8491,-3.869,-3.869,-3.8789,-3.9013,-3.9013,-3.8914,-3.8715,-3.8491,-3.8391,-3.8391,-3.8391,-3.8391,-3.8417,-3.8818,-3.907,-3.9145,-3.9769,-4.04,-4.0844,-4.0899,-4.0926,-4.1311,-4.1465,-4.1646,-4.1801,-4.2031,-4.2442,-4.3096,-4.3115,-4.3208,-4.3669,-4.3848,-4.3899,-4.3899,-4.3899,-4.3899,-4.3899,-4.3899,-4.4284,-4.496,-4.5294,-4.5356,-4.5155,-4.4934,-4.4652,-4.4515,-4.4207,-4.4164,-4.3976,-4.3925,-4.3764,-4.3543,-4.3432,-4.3295,-4.3098,-4.2986,-4.2986,-4.2986,-4.2986,-4.3037,-4.3187,-4.3212,-4.3112,-3.8973,-3.8352,-3.8306,-3.772,-3.6929,-3.6551,-3.6195,-3.5942,-3.5757,-3.5579,-3.5765,-3.728,-3.7053,-3.5719,-3.6035,-3.6348,-3.6522,-3.6689,-3.691,-3.7284,-3.7268,-3.7015,-3.6828,-3.664,-3.6546,-3.6709,-3.6734,-3.6828,-3.7015,-3.7134,-3.739,-3.78,-3.7833,-3.8589,-3.9561,-3.9495,-3.9876,-4.1067,-4.016,-4.0058,-4.0893,-4.0818,-4.0617,-4.016,-4.0185,-3.9955,-3.9674,-3.9622,-3.9597,-3.9546,-3.9496,-3.9521,-3.9521,-3.9521,-3.9521,-3.9624,-3.9624,-3.9649,-3.9521,-3.9546,-3.9496,-3.9546,-3.9471,-3.9471,-3.9496,-3.9546,-3.9597,-3.9672,-4.0105,-4.0487,-4.0895,-4.125,-4.1406,-4.1361,-4.1719,-4.2,-4.2131,-4.2025,-4.2387,-4.2982,-4.3028,-4.3259,-4.3713,-4.3815,-4.3899,-4.3789,-4.3789,-4.3789,-4.3789,-4.3653,-4.3543,-4.3695,-4.3832,-4.413,-4.413,-4.4053,-4.3917,-4.4002,-4.3951,-4.3789,-4.3764,-4.3653,-4.3381,-4.3295,-4.3184,-4.3073,-4.2986,-4.2986,-4.2986,-4.2986,-4.3037,-4.3137,-4.3564,-4.3714,-4.3564,-3.7329,-3.7078,-3.7366,-3.7174,-3.6604,-3.6454,-3.6135,-3.5635,-3.5941,-3.5929,-3.589,-3.7316,-3.7289,-3.6135,-3.6779,-3.7092,-3.6934,-3.6842,-3.6878,-3.6828,-3.6734,-3.664,-3.6546,-3.6452,-3.6452,-3.6521,-3.6546,-3.6546,-3.6691,-3.6969,-3.7248,-3.7551,-3.8133,-3.8815,-3.9346,-3.95,-3.9753,-4.0364,-3.9878,-3.9903,-4.0083,-4.0185,-4.0185,-4.0083,-3.9981,-3.9775,-3.9697,-3.9697,-3.9697,-3.9697,-3.9697,-3.9697,-3.9697,-3.9697,-3.9697,-3.9697,-3.9697,-3.9697,-3.9697,-3.9697,-3.9697,-3.9697,-3.9697,-3.9697,-3.9722,-3.9944,-4.0145,-4.0174,-4.0077,-4.0206,-4.066,-4.0807,-4.1089,-4.1347,-4.1802,-4.2239,-4.2373,-4.2544,-4.2848,-4.311,-4.3051,-4.3042,-4.3295,-4.3346,-4.3321,-4.3321,-4.3321,-4.3432,-4.3321,-4.3184,-4.3184,-4.3184,-4.3321,-4.3321,-4.3321,-4.3321,-4.3321,-4.3321,-4.3321,-4.3321,-4.3321,-4.3321,-4.3184,-4.3184,-4.3073,-4.2986,-4.2986,-4.2986,-4.2986,-4.3062,-4.3338,-4.3564,-4.3765,-4.4066,-4.4116,-3.6301,-3.617,-3.6497,-3.6423,-3.6245,-3.6315,-3.6067,-3.5545,-3.6237,-3.631,-3.6176,-3.7021,-3.7129,-3.6687,-3.7272,-3.7361,-3.6922,-3.6922,-3.6734,-3.6452,-3.6358,-3.6358,-3.6358,-3.6358,-3.6358,-3.6358,-3.6358,-3.6433,-3.6609,-3.696,-3.7337,-3.7713,-3.8467,-3.8944,-3.912,-3.9521,-3.9697,-3.9697,-3.9697,-3.9697,-3.9697,-3.9697,-3.98,-3.9981,-3.98,-3.9697,-3.9697,-3.9697,-3.9697,-3.9697,-3.9697,-3.9697,-3.9697,-3.9697,-3.9772,-3.9898,-3.9923,-3.9998,-4.0124,-4.0149,-4.0149,-4.0124,-4.0023,-3.9998,-4.0174,-4.0345,-4.0545,-4.0727,-4.0375,-4.0375,-4.0651,-4.0877,-4.1153,-4.1555,-4.2057,-4.2494,-4.2739,-4.2871,-4.3048,-4.327,-4.3134,-4.2986,-4.2986,-4.2986,-4.3098,-4.3098,-4.2986,-4.2986,-4.2986,-4.2986,-4.2986,-4.2986,-4.2986,-4.2986,-4.2986,-4.3098,-4.2986,-4.2986,-4.3098,-4.3098,-4.2986,-4.2986,-4.2961,-4.3098,-4.2986,-4.3011,-4.3037,-4.3037,-4.3087,-4.3123,-4.3283,-4.3515,-4.3296,-4.3801,-4.4048,-3.6552,-3.5827,-3.5574,-3.5442,-3.5226,-3.576,-3.5805,-3.5529,-3.615,-3.6402,-3.6377,-3.6427,-3.6427,-3.6471,-3.6896,-3.6922,-3.6452,-3.6452,-3.6452,-3.6358,-3.6358,-3.6358,-3.6358,-3.6358,-3.6358,-3.6358,-3.6358,-3.6609,-3.7086,-3.7211,-3.7739,-3.8743,-3.8868,-3.9145,-3.9546,-3.9672,-3.9697,-3.9697,-3.9697,-3.9697,-3.9697,-3.9697,-3.9697,-3.9697,-3.9697,-3.9697,-3.9697,-3.9697,-3.9697,-3.9697,-3.9697,-3.9697,-3.9697,-3.9722,-3.9948,-4.04,-4.0475,-4.0701,-4.1128,-4.1178,-4.1178,-4.1153,-4.0727,-4.0676,-4.1028,-4.0852,-4.0877,-4.1254,-4.1304,-4.1304,-4.1272,-4.1572,-4.1982,-4.2133,-4.2585,-4.2861,-4.2911,-4.2911,-4.2986,-4.3098,-4.2986,-4.2986,-4.2986,-4.2986,-4.2986,-4.2986,-4.2986,-4.2986,-4.2986,-4.2986,-4.2986,-4.2986,-4.2986,-4.2986,-4.2986,-4.2986,-4.2986,-4.2986,-4.2986,-4.2986,-4.2986,-4.2986,-4.2986,-4.3011,-4.3087,-4.3112,-4.3112,-4.3162,-4.3177,-4.31,-4.3061,-4.2998,-4.288,-4.2705,-4.2942,-3.5305,-3.5622,-3.5517,-3.5638,-3.5991,-3.6193,-3.6175,-3.6081,-3.6257,-3.6358,-3.6358,-3.6358,-3.6358,-3.6358,-3.6546,-3.6546,-3.6452,-3.6358,-3.6358,-3.6358,-3.6358,-3.6358,-3.6358,-3.6358,-3.6358,-3.6358,-3.6358,-3.6634,-3.7236,-3.7889,-3.8467,-3.8843,-3.9245,-3.9521,-3.9672,-3.9697,-3.9697,-3.9697,-3.9697,-3.9697,-3.9697,-3.9697,-3.9697,-3.9697,-3.9697,-3.9697,-3.9697,-3.9697,-3.9697,-3.9697,-3.9697,-3.9697,-3.9722,-4.0023,-4.045,-4.0953,-4.1053,-4.1128,-4.1304,-4.1329,-4.1329,-4.1329,-4.1178,-4.0996,-4.1329,-4.1512,-4.1688,-4.1856,-4.2208,-4.2138,-4.1422,-4.1817,-4.2308,-4.2635,-4.2861,-4.2874,-4.2986,-4.2986,-4.2986,-4.2986,-4.2986,-4.2986,-4.2849,-4.2986,-4.2986,-4.2986,-4.2986,-4.2986,-4.2986,-4.2986,-4.2986,-4.2986,-4.2986,-4.2986,-4.2986,-4.2986,-4.2986,-4.2986,-4.2986,-4.2986,-4.2986,-4.2925,-4.295,-4.2712,-4.2874,-4.297,-4.2865,-4.2579,-4.2686,-4.2496,-4.2471,-4.2658,-4.248,-4.2242,-4.2724,-3.4977,-3.573,-3.5805,-3.6006,-3.6358,-3.6358,-3.6358,-3.6358,-3.6358,-3.6358,-3.6358,-3.6358,-3.6358,-3.6358,-3.6358,-3.6358,-3.6358,-3.6358,-3.6358,-3.6358,-3.6358,-3.6358,-3.6358,-3.6358,-3.6358,-3.6408,-3.6558,-3.6985,-3.7739,-3.8492,-3.8944,-3.917,-3.9546,-3.9697,-3.9697,-3.9697,-3.9697,-3.9697,-3.9697,-3.9697,-3.9697,-3.9697,-3.9697,-3.9697,-3.9697,-3.9697,-3.9697,-3.9697,-3.9697,-3.9697,-3.9697,-3.9772,-3.9973,-4.0475,-4.1028,-4.153,-4.1605,-4.1681,-4.1856,-4.1882,-4.1773,-4.1395,-4.1246,-4.1087,-4.104,-4.1409,-4.1582,-4.1632,-4.2015,-4.1923,-4.0913,-4.0877,-4.1418,-4.1736,-4.181,-4.181,-4.181,-4.1696,-4.1672,-4.1647,-4.2114,-4.2114,-4.2012,-4.2625,-4.2625,-4.2513,-4.2737,-4.2986,-4.2986,-4.2986,-4.2986,-4.2986,-4.2986,-4.2986,-4.2986,-4.2986,-4.2849,-4.2849,-4.2849,-4.2849,-4.2562,-4.2612,-4.2623,-4.2495,-4.2445,-4.2603,-4.2471,-4.216,-4.1888,-4.1684,-4.1862,-4.2061,-4.2074,-4.1914,-4.2051,-3.5855,-3.6282,-3.6358,-3.6332,-3.6358,-3.6358,-3.6358,-3.6358,-3.6358,-3.6358,-3.6358,-3.6358,-3.6358,-3.6358,-3.6358,-3.6358,-3.6358,-3.6358,-3.6358,-3.6358,-3.6358,-3.6358,-3.6358,-3.6358,-3.6408,-3.6483,-3.6935,-3.7764,-3.8693,-3.8894,-3.9195,-3.9572,-3.9647,-3.9697,-3.9697,-3.9697,-3.9697,-3.9697,-3.9697,-3.9697,-3.9697,-3.9594,-3.949,-3.9569,-3.949,-3.9465,-3.9594,-3.9697,-3.9697,-3.9697,-3.9747,-3.9973,-4.0551,-4.1053,-4.158,-4.1948,-4.2158,-4.2409,-4.2699,-4.2613,-4.2114,-4.1501,-4.1071,-4.0636,-4.0421,-4.0643,-4.0595,-4.0243,-4.0616,-4.0639,-3.9474,-3.9288,-3.9405,-3.9334,-3.9686,-3.9686,-3.9451,-3.9334,-3.9334,-3.9639,-4.0469,-4.044,-4.0151,-4.11,-4.2037,-4.1444,-4.1923,-4.2513,-4.24,-4.24,-4.2737,-4.2737,-4.2375,-4.2037,-4.2513,-4.2874,-4.2849,-4.2737,-4.2625,-4.2513,-4.1589,-4.1432,-4.1581,-4.1516,-4.1709,-4.1895,-4.2221,-4.1885,-4.1673,-4.1479,-4.1602,-4.1542,-4.1309,-4.1075,-4.0862,-3.6207,-3.6358,-3.6358,-3.6358,-3.6358,-3.6358,-3.6358,-3.6358,-3.6358,-3.6358,-3.6358,-3.6358,-3.6358,-3.6358,-3.6358,-3.6358,-3.6358,-3.6358,-3.6358,-3.6358,-3.6358,-3.6358,-3.6358,-3.6383,-3.6558,-3.696,-3.7487,-3.814,-3.8818,-3.9245,-3.9546,-3.9672,-3.9697,-3.9697,-3.9594,-3.9697,-3.9697,-3.9697,-3.9697,-3.9697,-3.9569,-3.8816,-3.8502,-3.8372,-3.7713,-3.7607,-3.8396,-3.9258,-3.9697,-3.9697,-4.0049,-4.0676,-4.1455,-4.1806,-4.1828,-4.1854,-4.1815,-4.1501,-4.1052,-4.11,-4.0985,-4.0616,-4.0473,-4.0358,-4.0292,-4.0292,-4.0129,-3.9755,-3.9989,-3.9564,-3.8291,-3.7887,-3.8268,-3.9098,-3.9216,-3.9098,-3.8957,-3.9055,-3.915,-3.9216,-3.9498,-3.9521,-3.9334,-4.0268,-4.0408,-3.9919,-4.0268,-4.05,-4.05,-4.0616,-4.0408,-4.0408,-4.0408,-4.0731,-4.0985,-4.11,-4.0985,-4.1215,-4.1329,-4.1215,-4.0503,-4.0552,-4.0548,-4.0773,-4.0938,-4.1227,-4.1708,-4.1683,-4.1264,-4.1052,-4.0839,-4.0625,-4.0388,-4.0279,-4.0279,-3.6358,-3.6358,-3.6358,-3.6358,-3.6358,-3.6358,-3.6358,-3.6358,-3.6358,-3.6358,-3.6358,-3.6358,-3.6358,-3.6358,-3.6358,-3.6358,-3.6358,-3.6358,-3.6358,-3.6358,-3.6358,-3.6358,-3.6408,-3.6584,-3.696,-3.7513,-3.8065,-3.8617,-3.917,-3.9187,-3.9258,-3.9154,-3.8921,-3.8712,-3.8712,-3.8712,-3.8712,-3.8607,-3.8921,-3.8945,-3.8477,-3.8056,-3.7713,-3.7287,-3.6534,-3.6619,-3.7311,-3.8224,-3.903,-3.947,-3.9989,-4.073,-4.1533,-4.1756,-4.1692,-4.1623,-4.1239,-4.0755,-4.0292,-4.0292,-4.0059,-3.9826,-3.9709,-3.9474,-3.9262,-3.94,-3.9377,-3.8596,-3.8783,-3.8328,-3.6989,-3.6603,-3.6967,-3.767,-3.767,-3.7812,-3.7768,-3.7777,-3.7732,-3.779,-3.8141,-3.8185,-3.7976,-3.8862,-3.8862,-3.8744,-3.8862,-3.9216,-3.9216,-3.9216,-3.9098,-3.9098,-3.9451,-3.9569,-3.9334,-3.9216,-3.9098,-3.9334,-3.9686,-3.9428,-3.8908,-3.9711,-4.0167,-4.0457,-4.0666,-4.065,-4.103,-4.0817,-4.0495,-4.0279,-4.0279,-4.0279,-4.0279,-4.0279,-4.0279,-3.6358,-3.6358,-3.6358,-3.6358,-3.6358,-3.6358,-3.6358,-3.6358,-3.6358,-3.6358,-3.6358,-3.6358,-3.6358,-3.6358,-3.6358,-3.6358,-3.6358,-3.6358,-3.6358,-3.6358,-3.6358,-3.6358,-3.6408,-3.6739,-3.7167,-3.7939,-3.8316,-3.8891,-3.9365,-3.8687,-3.8315,-3.8291,-3.7631,-3.7203,-3.7418,-3.718,-3.718,-3.718,-3.7844,-3.7631,-3.6534,-3.7073,-3.7073,-3.6077,-3.5859,-3.5904,-3.6369,-3.7159,-3.7989,-3.9044,-3.9695,-4.0289,-4.0765,-4.095,-4.1305,-4.1263,-4.0548,-4.0059,-4.0059,-3.9709,-3.9498,-3.8789,-3.867,-3.8335,-3.7856,-3.8335,-3.8238,-3.7011,-3.7374,-3.711,-3.589,-3.5541,-3.5665,-3.5418,-3.589,-3.5788,-3.5541,-3.5644,-3.5869,-3.5869,-3.6359,-3.6824,-3.589,-3.7572,-3.791,-3.767,-3.8029,-3.8387,-3.8506,-3.8268,-3.8744,-3.8625,-3.8268,-3.8149,-3.779,-3.779,-3.767,-3.767,-3.791,-3.779,-3.7802,-3.8731,-3.9824,-4.0113,-4.0298,-4.0322,-4.0388,-4.0279,-4.0279,-4.0279,-4.0279,-4.0279,-4.0279,-4.0279,-4.0149,-3.6358,-3.6358,-3.6358,-3.6358,-3.6358,-3.6358,-3.6358,-3.6358,-3.6358,-3.6358,-3.6358,-3.6358,-3.6358,-3.6358,-3.6358,-3.6358,-3.6358,-3.6358,-3.6358,-3.6358,-3.6358,-3.6358,-3.6363,-3.6331,-3.6875,-3.7742,-3.7375,-3.7653,-3.8582,-3.7737,-3.7418,-3.7418,-3.7096,-3.6989,-3.7096,-3.6965,-3.7073,-3.6965,-3.6965,-3.675,-3.6185,-3.5553,-3.5113,-3.467,-3.4022,-3.4441,-3.5579,-3.6608,-3.7862,-3.9249,-3.9746,-4.0105,-4.0239,-4.0683,-4.0524,-3.9732,-3.938,-3.8789,-3.8313,-3.8194,-3.8074,-3.7856,-3.7856,-3.7616,-3.7495,-3.7616,-3.7374,-3.6667,-3.6646,-3.6401,-3.5665,-3.5418,-3.5418,-3.5418,-3.5294,-3.5294,-3.5418,-3.5418,-3.5418,-3.5418,-3.5788,-3.5644,-3.5788,-3.589,-3.6359,-3.6135,-3.6258,-3.6603,-3.6724,-3.6724,-3.6824,-3.6481,-3.6258,-3.6258,-3.6258,-3.6258,-3.6135,-3.6013,-3.6135,-3.6258,-3.6678,-3.7438,-3.8846,-3.9844,-4.0234,-4.0388,-4.0279,-4.0279,-4.0279,-4.0279,-4.0149,-4.0149,-4.0279,-4.0279,-3.9866,-3.6358,-3.6358,-3.6358,-3.6358,-3.6358,-3.6358,-3.6358,-3.6358,-3.6048,-3.6073,-3.6168,-3.5475,-3.5667,-3.6358,-3.5953,-3.5978,-3.6263,-3.5763,-3.5571,-3.5475,-3.4848,-3.5187,-3.577,-3.5764,-3.6194,-3.7108,-3.6578,-3.6767,-3.7133,-3.6294,-3.5859,-3.5749,-3.5663,-3.5576,-3.5113,-3.5553,-3.5443,-3.509,-3.5178,-3.5201,-3.4314,-3.4224,-3.3776,-3.3233,-3.2612,-3.309,-3.4666,-3.5392,-3.6254,-3.7199,-3.8225,-3.8942,-3.917,-3.9357,-3.9239,-3.8693,-3.8455,-3.7976,-3.7616,-3.7374,-3.7374,-3.7374,-3.7374,-3.7374,-3.7374,-3.7374,-3.7132,-3.6789,-3.6545,-3.6178,-3.5665,-3.5418,-3.517,-3.4922,-3.4922,-3.5046,-3.5294,-3.5418,-3.5418,-3.5418,-3.5418,-3.5294,-3.517,-3.517,-3.517,-3.5046,-3.5046,-3.517,-3.517,-3.5046,-3.5046,-3.5046,-3.5046,-3.5294,-3.5418,-3.5418,-3.5397,-3.517,-3.517,-3.519,-3.5852,-3.6666,-3.804,-3.9282,-3.9801,-4.0279,-4.0149,-4.0018,-4.0018,-4.0018,-4.0018,-3.9888,-3.9888,-3.9735,-3.9341,-3.6263,-3.6263,-3.6263,-3.6168,-3.6073,-3.6073,-3.5858,-3.5763,-3.5066,-3.5162,-3.5355,-3.419,-3.4362,-3.5953,-3.4751,-3.4945,-3.5763,-3.4557,-3.4264,-3.3773,-3.3178,-3.3261,-3.4899,-3.476,-3.519,-3.5911,-3.5933,-3.5813,-3.564,-3.4536,-3.3979,-3.3979,-3.3818,-3.3388,-3.3367,-3.348,-3.3027,-3.3006,-3.3529,-3.3438,-3.2664,-3.2871,-3.2758,-3.2133,-3.2377,-3.2606,-3.3472,-3.4044,-3.4452,-3.4187,-3.6046,-3.7166,-3.7451,-3.7352,-3.7594,-3.7954,-3.7495,-3.7132,-3.7132,-3.7011,-3.7132,-3.7011,-3.7011,-3.7253,-3.7132,-3.7011,-3.6889,-3.6667,-3.6423,-3.5911,-3.5541,-3.517,-3.4797,-3.4548,-3.4423,-3.4673,-3.517,-3.5294,-3.5273,-3.5294,-3.5294,-3.517,-3.4922,-3.4797,-3.4797,-3.4673,-3.4673,-3.4673,-3.4673,-3.4673,-3.4673,-3.4548,-3.4548,-3.4423,-3.4548,-3.4548,-3.4548,-3.4548,-3.4673,-3.4774,-3.5599,-3.6432,-3.7613,-3.8529,-3.9106,-3.9451,-3.9604,-3.9604,-3.9604,-3.9341,-3.921,-3.9078,-3.9078,-3.8793,-3.8528,-3.5114,-3.5114,-3.5114,-3.4799,-3.4288,-3.419,-3.3871,-3.3231,-3.3055,-3.3155,-3.3132,-3.2733,-3.2855,-3.3231,-3.3032,-3.3032,-3.333,-3.2955,-3.2755,-3.2532,-3.1622,-3.1701,-3.2701,-3.2893,-3.3675,-3.4356,-3.3874,-3.3888,-3.3979,-3.3551,-3.3006,-3.2892,-3.2913,-3.2799,-3.2685,-3.2685,-3.2799,-3.2571,-3.2664,-3.2322,-3.1903,-3.1998,-3.1998,-3.15,-3.2391,-3.2953,-3.3075,-3.386,-3.4138,-3.4053,-3.4964,-3.589,-3.6013,-3.589,-3.6034,-3.6279,-3.6156,-3.5911,-3.5911,-3.5911,-3.5911,-3.5911,-3.6034,-3.6034,-3.6545,-3.6156,-3.6034,-3.5932,-3.5541,-3.517,-3.4797,-3.4673,-3.4423,-3.4298,-3.4298,-3.4423,-3.4528,-3.4675,-3.4675,-3.4632,-3.4673,-3.4548,-3.4548,-3.4548,-3.4423,-3.4423,-3.4423,-3.4423,-3.4298,-3.4298,-3.4298,-3.4173,-3.4173,-3.4173,-3.4173,-3.4173,-3.4173,-3.4173,-3.4173,-3.4432,-3.5255,-3.5875,-3.6862,-3.7639,-3.827,-3.8639,-3.9057,-3.8793,-3.866,-3.8528,-3.8395,-3.8395,-3.8262,-3.8129,-3.7996,-3.4311,-3.3697,-3.4091,-3.3796,-3.3078,-3.2955,-3.2755,-3.223,-3.1949,-3.1949,-3.205,-3.144,-3.1542,-3.223,-3.1825,-3.1825,-3.2028,-3.1622,-3.103,-3.0411,-2.9828,-3.0072,-3.0756,-3.1174,-3.1856,-3.2959,-3.2684,-3.2644,-3.2664,-3.2342,-3.1787,-3.1903,-3.2113,-3.2018,-3.2018,-3.2113,-3.2133,-3.1787,-3.1672,-3.1556,-3.146,-3.1344,-3.1344,-3.1191,-3.2097,-3.2515,-3.2552,-3.3105,-3.3414,-3.3611,-3.4047,-3.4673,-3.4797,-3.4673,-3.4797,-3.5294,-3.5418,-3.5418,-3.5418,-3.5418,-3.5418,-3.5418,-3.5418,-3.5562,-3.5932,-3.5788,-3.5665,-3.5541,-3.517,-3.4673,-3.4298,-3.4173,-3.4173,-3.3922,-3.3922,-3.3922,-3.4027,-3.4238,-3.4447,-3.4423,-3.4443,-3.4318,-3.4193,-3.4173,-3.4047,-3.3922,-3.3796,-3.3796,-3.3796,-3.3796,-3.3796,-3.3796,-3.3796,-3.3922,-3.3922,-3.3796,-3.3796,-3.3796,-3.3796,-3.4211,-3.4854,-3.5411,-3.5952,-3.6719,-3.7606,-3.8109,-3.8374,-3.8109,-3.7863,-3.7729,-3.7616,-3.7595,-3.7461,-3.7213,-3.7213,-3.34,-3.2151,-3.2878,-3.2655,-3.1927,-3.1825,-3.1724,-3.1542,-3.1051,-3.0845,-3.1338,-3.0037,-3.0224,-3.1133,-3.0721,-3.0927,-3.1133,-3.0618,-2.9513,-2.8794,-2.8708,-2.8996,-2.9549,-2.9937,-3.0569,-3.1687,-3.1701,-3.1767,-3.1556,-3.1228,-3.1112,-3.1112,-3.1344,-3.146,-3.1228,-3.1344,-3.146,-3.1112,-3.1112,-3.0995,-3.1015,-3.1015,-3.0995,-3.1093,-3.1446,-3.1897,-3.227,-3.274,-3.3008,-3.3379,-3.3418,-3.367,-3.3922,-3.3796,-3.3796,-3.5046,-3.4922,-3.4922,-3.4797,-3.4922,-3.4922,-3.5046,-3.5046,-3.517,-3.5294,-3.5294,-3.5294,-3.517,-3.4797,-3.4318,-3.3922,-3.3796,-3.367,-3.3544,-3.3418,-3.3418,-3.3544,-3.3961,-3.4067,-3.4193,-3.4067,-3.3942,-3.3942,-3.3796,-3.367,-3.3544,-3.3418,-3.3418,-3.3418,-3.3418,-3.3544,-3.3544,-3.367,-3.367,-3.367,-3.367,-3.3544,-3.3603,-3.3583,-3.4093,-3.4512,-3.5107,-3.5666,-3.623,-3.6971,-3.736,-3.7595,-3.7327,-3.7059,-3.6944,-3.6944,-3.6944,-3.6674,-3.6423,-3.6559,-3.1278,-3.1073,-3.1176,-3.0764,-3.0037,-2.9911,-2.9723,-2.9006,-2.9006,-2.8814,-2.9006,-2.8708,-2.8814,-2.9006,-2.89,-2.89,-2.9217,-2.89,-2.8601,-2.8301,-2.832,-2.8633,-2.9121,-2.9453,-3.003,-3.0443,-3.0876,-3.1112,-3.1112,-3.0898,-3.0898,-3.0898,-3.0995,-3.1015,-3.1015,-3.0995,-3.1112,-3.0898,-3.0898,-3.0898,-3.0898,-3.0898,-3.0898,-3.0918,-3.125,-3.166,-3.2109,-3.2559,-3.2988,-3.3359,-3.3418,-3.3418,-3.3544,-3.3418,-3.3544,-3.3796,-3.3922,-3.3922,-3.3922,-3.3796,-3.3796,-3.367,-3.3796,-3.4173,-3.4298,-3.4173,-3.4298,-3.4423,-3.4047,-3.367,-3.3544,-3.3544,-3.3544,-3.3418,-3.3418,-3.3418,-3.3418,-3.3564,-3.369,-3.367,-3.369,-3.369,-3.3544,-3.3544,-3.3544,-3.3418,-3.3418,-3.3418,-3.3418,-3.3418,-3.3418,-3.3418,-3.3418,-3.3418,-3.3418,-3.3418,-3.3437,-3.3535,-3.3652,-3.4082,-3.459,-3.5039,-3.5524,-3.6068,-3.6245,-3.6499,-3.6539,-3.6539,-3.6539,-3.6423,-3.6287,-3.6152,-3.6152,-3.6152,-3.6152,-3.0266,-2.9533,-2.9953,-2.9638,-2.89,-2.89,-2.8708,-2.8301,-2.8301,-2.8301,-2.8301,-2.8301,-2.8301,-2.8301,-2.8301,-2.8301,-2.8301,-2.8301,-2.8301,-2.8301,-2.832,-2.8652,-2.918,-2.9492,-2.998,-3.0449,-3.0801,-3.0898,-3.0898,-3.0898,-3.0898,-3.0898,-3.0898,-3.0898,-3.0898,-3.0898,-3.0898,-3.0898,-3.0898,-3.0898,-3.0898,-3.0898,-3.0898,-3.0957,-3.1094,-3.1406,-3.1816,-3.2246,-3.2656,-3.3027,-3.3301,-3.3398,-3.3418,-3.3418,-3.3418,-3.3418,-3.3418,-3.3418,-3.3418,-3.3418,-3.3418,-3.3418,-3.3418,-3.3544,-3.367,-3.367,-3.3544,-3.367,-3.367,-3.3418,-3.3418,-3.3418,-3.3418,-3.3418,-3.3418,-3.3418,-3.3418,-3.3418,-3.3272,-3.3272,-3.3292,-3.3292,-3.3418,-3.3418,-3.3418,-3.3418,-3.3418,-3.3418,-3.3418,-3.3418,-3.3418,-3.3418,-3.3418,-3.3418,-3.3418,-3.3418,-3.3418,-3.3516,-3.3848,-3.4277,-3.4668,-3.5117,-3.5527,-3.5995,-3.5996,-3.6016,-3.6016,-3.6287,-3.6152,-3.6035,-3.6016,-3.6152,-3.6016,-3.6035,-3.6035,-2.9554,-2.8408,-2.9006,-2.892,-2.8408,-2.8301,-2.8301,-2.8301,-2.8301,-2.8301,-2.8301,-2.8301,-2.8301,-2.8301,-2.8301,-2.8301,-2.8301,-2.8301,-2.8301,-2.8301,-2.832,-2.873,-2.9355,-2.9668,-3.0,-3.0723,-3.0859,-3.0898,-3.0898,-3.0898,-3.0898,-3.0898,-3.0898,-3.0898,-3.0898,-3.0898,-3.0898,-3.0898,-3.0898,-3.0898,-3.0898,-3.0898,-3.0898,-3.0898,-3.0898,-3.1113,-3.1562,-3.1855,-3.2324,-3.2773,-3.3164,-3.3418,-3.3418,-3.3418,-3.3418,-3.3418,-3.3418,-3.3418,-3.3418,-3.3418,-3.3418,-3.3418,-3.3418,-3.3418,-3.3418,-3.3418,-3.3418,-3.3418,-3.3418,-3.3418,-3.3418,-3.3418,-3.3418,-3.3418,-3.3418,-3.3418,-3.3292,-3.3146,-3.2689,-3.2708,-3.2746,-3.2892,-3.3038,-3.3418,-3.3418,-3.3418,-3.3418,-3.3418,-3.3418,-3.3418,-3.3418,-3.3418,-3.3418,-3.3418,-3.3418,-3.3418,-3.3418,-3.3457,-3.3926,-3.4434,-3.4805,-3.5195,-3.5586,-3.584,-3.5996,-3.6035,-3.6035,-3.6035,-3.6035,-3.6035,-3.6035,-3.6035,-3.6016,-3.6035,-3.6035,-2.8495,-2.8281,-2.8408,-2.8388,-2.8301,-2.8301,-2.8301,-2.8301,-2.8301,-2.8301,-2.8301,-2.8301,-2.8301,-2.8301,-2.8301,-2.8301,-2.8301,-2.8301,-2.8301,-2.8301,-2.832,-2.875,-2.9473,-2.957,-3.0098,-3.0762,-3.0898,-3.0898,-3.0898,-3.0898,-3.0898,-3.0898,-3.0898,-3.0898,-3.0898,-3.0898,-3.0898,-3.0898,-3.0898,-3.0898,-3.0898,-3.0898,-3.0898,-3.0898,-3.0918,-3.1055,-3.1406,-3.1621,-3.1973,-3.2656,-3.3164,-3.3398,-3.3418,-3.3418,-3.3418,-3.3418,-3.3418,-3.3418,-3.3418,-3.3418,-3.3418,-3.3418,-3.3418,-3.3418,-3.3418,-3.3418,-3.3418,-3.3418,-3.3418,-3.3292,-3.3146,-3.3292,-3.3292,-3.3019,-3.2765,-3.2892,-3.3038,-3.1854,-3.1652,-3.1322,-3.1231,-3.1963,-3.2403,-3.2912,-3.3418,-3.3418,-3.3292,-3.3165,-3.3019,-3.2638,-3.2511,-3.2237,-3.2237,-3.2237,-3.211,-3.2365,-3.2587,-3.2823,-3.3469,-3.4046,-3.4564,-3.4931,-3.5433,-3.5743,-3.5879,-3.5743,-3.5606,-3.5743,-3.5879,-3.6035,-3.6035,-3.6016,-3.6016,-3.6016,-3.5743,-2.793,-2.7949,-2.8203,-2.8301,-2.8301,-2.8301,-2.8301,-2.8301,-2.8301,-2.8301,-2.8301,-2.8301,-2.8301,-2.8301,-2.8301,-2.8301,-2.8301,-2.8301,-2.8301,-2.8301,-2.8359,-2.875,-2.9394,-2.9629,-3.0039,-3.0664,-3.0898,-3.0898,-3.0898,-3.0898,-3.0898,-3.0898,-3.0898,-3.0898,-3.0898,-3.0898,-3.0898,-3.0898,-3.0898,-3.0898,-3.0898,-3.0898,-3.0898,-3.0898,-3.0898,-3.1016,-3.1034,-3.1445,-3.1641,-3.2226,-3.2832,-3.3281,-3.3203,-3.3262,-3.3418,-3.3418,-3.3418,-3.3418,-3.3418,-3.3418,-3.3418,-3.3418,-3.3418,-3.3418,-3.3418,-3.3418,-3.3418,-3.3418,-3.3418,-3.3019,-3.2492,-3.2237,-3.1726,-3.1451,-3.1469,-3.1341,-3.1212,-3.0678,-3.0125,-2.9795,-2.9613,-3.0236,-3.0714,-3.0825,-3.1065,-3.1341,-3.1341,-3.1065,-3.0936,-3.0549,-3.0549,-3.0678,-3.0678,-3.0678,-3.0549,-3.0567,-3.1024,-3.1262,-3.1793,-3.257,-3.3916,-3.4564,-3.4869,-3.5021,-3.4883,-3.4883,-3.504,-3.5314,-3.5606,-3.5743,-3.6035,-3.5568,-3.5256,-3.5021,-3.4746,-2.75,-2.7559,-2.8066,-2.8301,-2.8301,-2.8301,-2.8301,-2.8301,-2.8301,-2.8301,-2.8301,-2.8301,-2.8301,-2.8301,-2.8301,-2.8301,-2.8301,-2.8301,-2.8301,-2.8301,-2.8379,-2.873,-2.9219,-2.9512,-2.9961,-3.0742,-3.084,-3.0879,-3.0898,-3.0898,-3.0898,-3.0898,-3.0898,-3.0898,-3.0898,-3.0898,-3.0898,-3.0898,-3.0898,-3.0898,-3.0898,-3.0898,-3.0645,-3.0528,-3.0645,-3.0528,-3.0097,-3.0524,-3.0734,-3.0634,-3.1589,-3.1884,-3.1834,-3.1776,-3.211,-3.2256,-3.2256,-3.2384,-3.2638,-3.2892,-3.3292,-3.3418,-3.3418,-3.3418,-3.3418,-3.3418,-3.3418,-3.3418,-3.3418,-3.2638,-3.1707,-3.1304,-3.0807,-3.016,-2.9509,-2.9248,-2.9117,-2.8854,-2.8656,-2.8408,-2.8162,-2.78,-2.8114,-2.8097,-2.8477,-2.9117,-2.9248,-2.9117,-2.9117,-2.8986,-2.9248,-2.9639,-2.9639,-2.9639,-2.9639,-2.9447,-2.9636,-2.9894,-3.039,-3.1313,-3.2757,-3.3476,-3.3909,-3.3845,-3.39,-3.3937,-3.3955,-3.4646,-3.5177,-3.5177,-3.5021,-3.4496,-3.4203,-3.4001,-3.3762,-2.707,-2.7129,-2.7949,-2.8281,-2.8301,-2.8301,-2.8301,-2.8301,-2.8301,-2.8301,-2.8301,-2.8301,-2.8301,-2.8301,-2.8301,-2.8301,-2.8301,-2.8301,-2.8301,-2.8301,-2.834,-2.8594,-2.9023,-2.9434,-2.9824,-3.0312,-3.0548,-3.0762,-3.0762,-3.0411,-3.0645,-3.0898,-3.0645,-3.0762,-3.0645,-3.0411,-3.0411,-3.0411,-3.0528,-3.0528,-3.0528,-3.0528,-3.0157,-2.953,-3.002,-2.9804,-2.7624,-2.8535,-2.8901,-2.8359,-2.961,-3.0171,-3.0122,-3.0188,-3.0549,-3.0954,-3.1083,-3.1083,-3.1212,-3.2384,-3.3165,-3.3418,-3.3165,-3.2892,-3.2765,-3.3165,-3.3292,-3.3019,-3.2765,-3.2237,-3.1451,-3.1065,-2.99,-2.8854,-2.8081,-2.8213,-2.7949,-2.7419,-2.7206,-2.7046,-2.6698,-2.6486,-2.6414,-2.6651,-2.7035,-2.7684,-2.7949,-2.7949,-2.8196,-2.8196,-2.846,-2.8723,-2.8854,-2.8986,-2.8986,-2.8956,-2.8544,-2.8826,-2.9462,-3.0515,-3.1855,-3.2276,-3.2838,-3.277,-3.2824,-3.2841,-3.2719,-3.2963,-3.3224,-3.3762,-3.3863,-3.355,-3.2995,-3.2508,-3.2526,-2.6777,-2.707,-2.7676,-2.8047,-2.8301,-2.8301,-2.8301,-2.8301,-2.8301,-2.8301,-2.8301,-2.8301,-2.8301,-2.8301,-2.8301,-2.8301,-2.8301,-2.8301,-2.8301,-2.8301,-2.834,-2.8555,-2.8945,-2.9225,-2.9785,-2.9967,-3.0025,-3.002,-2.9922,-2.9549,-2.9194,-2.9194,-2.9549,-2.9431,-2.9313,-2.9313,-2.9194,-2.9194,-2.9194,-2.9057,-2.882,-2.882,-2.8801,-2.9039,-2.8224,-2.8701,-2.8086,-2.7847,-2.7591,-2.7644,-2.8429,-2.8729,-2.8916,-2.8939,-2.9492,-3.0048,-3.0065,-3.0065,-3.0325,-3.1488,-3.2384,-3.2256,-3.1873,-3.1598,-3.1744,-3.1598,-3.1469,-3.1469,-3.1488,-3.0843,-2.9378,-2.8854,-2.8081,-2.7153,-2.6769,-2.6902,-2.6769,-2.6368,-2.6218,-2.6096,-2.574,-2.5442,-2.5322,-2.5322,-2.5846,-2.6368,-2.6501,-2.6753,-2.702,-2.7153,-2.7286,-2.7419,-2.7419,-2.7286,-2.7286,-2.7232,-2.7044,-2.7781,-2.8542,-2.9605,-3.0683,-3.1268,-3.1649,-3.17,-3.1718,-3.17,-3.1418,-3.0993,-3.1401,-3.2648,-3.2927,-3.263,-3.1965,-3.1294,-3.1135,-2.6536,-2.666,-2.7303,-2.7796,-2.8281,-2.8301,-2.8301,-2.8301,-2.8301,-2.8301,-2.8301,-2.8301,-2.8301,-2.8301,-2.796,-2.8087,-2.7979,-2.7745,-2.7638,-2.7511,-2.7441,-2.7573,-2.7767,-2.8014,-2.8163,-2.8859,-2.8886,-2.8637,-2.8564,-2.7966,-2.7486,-2.7366,-2.7727,-2.7847,-2.8343,-2.7984,-2.7984,-2.7984,-2.7966,-2.7847,-2.7607,-2.7589,-2.7246,-2.7847,-2.7246,-2.6762,-2.6762,-2.6399,-2.6156,-2.6248,-2.6777,-2.7662,-2.7959,-2.8252,-2.8787,-2.9151,-2.9413,-2.9413,-2.9674,-3.0567,-3.1359,-3.1359,-3.0954,-3.0567,-3.0307,-3.029,-3.0624,-3.0455,-3.0083,-2.9185,-2.7849,-2.77,-2.7035,-2.6249,-2.5846,-2.5846,-2.5712,-2.5457,-2.5457,-2.5292,-2.5066,-2.5066,-2.5066,-2.5066,-2.5322,-2.5712,-2.5712,-2.5846,-2.5846,-2.5846,-2.5712,-2.5712,-2.5712,-2.5457,-2.5202,-2.5757,-2.6402,-2.7305,-2.7909,-2.8487,-2.9385,-3.0086,-3.0551,-3.0567,-3.0567,-3.0551,-3.0425,-3.014,-3.0835,-3.1807,-3.1666,-3.126,-3.0835,-3.0157,-2.9871,-2.634,-2.5871,-2.6598,-2.7365,-2.796,-2.8281,-2.8194,-2.8194,-2.8194,-2.8194,-2.8087,-2.8087,-2.8087,-2.796,-2.7314,-2.7314,-2.753,-2.6554,-2.6209,-2.6409,-2.6063,-2.5423,-2.536,-2.5786,-2.6548,-2.6486,-2.6789,-2.6935,-2.6987,-2.6624,-2.5896,-2.5301,-2.5668,-2.6399,-2.7727,-2.7847,-2.7847,-2.7847,-2.7607,-2.7246,-2.6866,-2.6745,-2.6156,-2.6034,-2.5912,-2.5423,-2.4933,-2.4933,-2.4579,-2.4301,-2.5187,-2.5754,-2.5942,-2.695,-2.7551,-2.7584,-2.7451,-2.7467,-2.7467,-2.9282,-2.9917,-3.0178,-2.9935,-2.9805,-3.003,-3.0107,-2.9942,-2.9543,-2.9481,-2.8841,-2.8014,-2.7169,-2.6115,-2.5592,-2.5187,-2.5066,-2.5066,-2.5066,-2.5066,-2.5066,-2.5066,-2.5066,-2.5066,-2.5052,-2.5052,-2.5187,-2.5052,-2.5066,-2.5052,-2.5066,-2.5066,-2.5066,-2.5066,-2.5066,-2.5066,-2.5066,-2.565,-2.6556,-2.7338,-2.7975,-2.8696,-2.9424,-2.9679,-2.9425,-2.9568,-2.9855,-2.9712,-2.9441,-3.014,-3.0835,-3.014,-2.9712,-2.9441,-2.9441,-2.9298,-2.3565,-2.3737,-2.3995,-2.4607,-2.5463,-2.6862,-2.7422,-2.7441,-2.7422,-2.7422,-2.7314,-2.6881,-2.6554,-2.6445,-2.6336,-2.6227,-2.6318,-2.6082,-2.5533,-2.5516,-2.4948,-2.4727,-2.4624,-2.4524,-2.5023,-2.5277,-2.5291,-2.5277,-2.5423,-2.504,-2.4317,-2.3713,-2.3837,-2.4456,-2.4949,-2.5056,-2.4687,-2.4687,-2.4687,-2.4564,-2.4317,-2.4317,-2.444,-2.4317,-2.4193,-2.3837,-2.3589,-2.3713,-2.323,-2.3039,-2.4044,-2.4728,-2.5214,-2.6292,-2.7051,-2.6934,-2.68,-2.6517,-2.6517,-2.7419,-2.8081,-2.8625,-2.8757,-2.8493,-2.823,-2.8213,-2.8213,-2.8213,-2.7998,-2.735,-2.6666,-2.6115,-2.5322,-2.5322,-2.5066,-2.5066,-2.5066,-2.5066,-2.5066,-2.5066,-2.5066,-2.5052,-2.5052,-2.4781,-2.4645,-2.4916,-2.4916,-2.4916,-2.5052,-2.5052,-2.5066,-2.5066,-2.5066,-2.5066,-2.5066,-2.4975,-2.5271,-2.6096,-2.6952,-2.7601,-2.8193,-2.8869,-2.925,-2.9441,-2.9298,-2.9298,-2.9298,-2.9298,-2.9425,-2.9568,-2.9298,-2.9298,-2.9298,-2.9298,-2.9298,-2.2084,-2.2199,-2.2468,-2.2638,-2.3231,-2.5075,-2.5863,-2.5863,-2.5863,-2.5863,-2.5753,-2.5313,-2.5093,-2.4982,-2.4778,-2.4889,-2.4872,-2.4206,-2.4078,-2.4078,-2.3631,-2.3071,-2.3038,-2.331,-2.3184,-2.356,-2.353,-2.3475,-2.3683,-2.3106,-2.2856,-2.2731,-2.2606,-2.2856,-2.323,-2.3355,-2.3355,-2.3479,-2.3464,-2.3355,-2.2981,-2.2856,-2.2966,-2.2966,-2.2856,-2.248,-2.2966,-2.2856,-2.2495,-2.2749,-2.3417,-2.4297,-2.5015,-2.5687,-2.6352,-2.6249,-2.6115,-2.5712,-2.5712,-2.5712,-2.6501,-2.7169,-2.7051,-2.72,-2.72,-2.7451,-2.7318,-2.7185,-2.6517,-2.6249,-2.5996,-2.5457,-2.5187,-2.5052,-2.5052,-2.5052,-2.5052,-2.5052,-2.5052,-2.5052,-2.4916,-2.4781,-2.4781,-2.451,-2.4238,-2.451,-2.4645,-2.4781,-2.4916,-2.4916,-2.4916,-2.4916,-2.4916,-2.4781,-2.4839,-2.4804,-2.5128,-2.5805,-2.6504,-2.7226,-2.8113,-2.8804,-2.9122,-2.9298,-2.9298,-2.9154,-2.9298,-2.9298,-2.9298,-2.9298,-2.9298,-2.9298,-2.9298,-2.9298,-2.9298,-2.1787,-2.1403,-2.1744,-2.1653,-2.1472,-2.2942,-2.371,-2.3822,-2.3822,-2.3822,-2.3822,-2.3838,-2.3615,-2.3503,-2.2846,-2.2958,-2.3391,-2.2297,-2.2199,-2.2085,-2.1858,-2.1174,-2.0831,-2.0773,-2.1336,-2.1565,-2.1761,-2.2033,-2.2145,-2.2104,-2.2104,-2.1992,-2.1614,-2.1866,-2.223,-2.248,-2.2731,-2.2606,-2.2606,-2.248,-2.223,-2.2355,-2.223,-2.223,-2.2104,-2.1978,-2.223,-2.2104,-2.2118,-2.2427,-2.305,-2.3436,-2.3882,-2.4567,-2.4785,-2.5037,-2.5037,-2.5037,-2.5037,-2.5037,-2.5172,-2.5846,-2.6383,-2.68,-2.6918,-2.6784,-2.6902,-2.6934,-2.6532,-2.6264,-2.6011,-2.5592,-2.5187,-2.5052,-2.5052,-2.5052,-2.5052,-2.5052,-2.5052,-2.4916,-2.451,-2.436,-2.4224,-2.3952,-2.383,-2.4102,-2.4238,-2.4238,-2.4374,-2.4645,-2.4645,-2.451,-2.451,-2.4495,-2.4445,-2.4573,-2.4982,-2.5519,-2.6305,-2.7027,-2.7901,-2.8388,-2.8403,-2.8563,-2.901,-2.8995,-2.8963,-2.8963,-2.901,-2.901,-2.8851,-2.9154,-2.901,-2.9298,-2.9298,-1.9269,-1.9374,-1.9682,-1.9877,-2.0026,-2.0486,-2.1828,-2.3599,-2.3167,-2.2846,-2.2846,-2.2168,-2.2055,-2.1957,-2.1729,-2.1729,-2.1616,-2.1388,-2.1174,-2.096,-2.073,-2.0385,-2.004,-1.9952,-2.0199,-2.0356,-2.0643,-2.0917,-2.1148,-2.1339,-2.1475,-2.1362,-2.1235,-2.1362,-2.1488,-2.1614,-2.174,-2.1866,-2.1853,-2.1853,-2.1727,-2.1601,-2.1614,-2.1475,-2.1475,-2.1475,-2.1475,-2.1614,-2.174,-2.1963,-2.2978,-2.3536,-2.3738,-2.4405,-2.4902,-2.436,-2.4224,-2.4224,-2.4238,-2.4238,-2.4374,-2.4781,-2.5442,-2.5442,-2.5697,-2.6069,-2.6337,-2.6368,-2.628,-2.6011,-2.5592,-2.5322,-2.4916,-2.4645,-2.4645,-2.4645,-2.4645,-2.4645,-2.4645,-2.451,-2.4224,-2.3952,-2.3816,-2.3543,-2.3406,-2.3693,-2.383,-2.3816,-2.3816,-2.4238,-2.4374,-2.4238,-2.4088,-2.4088,-2.4215,-2.4341,-2.479,-2.5383,-2.6026,-2.6617,-2.7112,-2.7535,-2.768,-2.784,-2.8114,-2.8213,-2.8295,-2.8341,-2.8274,-2.813,-2.813,-2.8563,-2.8851,-2.8851,-2.8851,-1.8103,-1.849,-1.8677,-1.8985,-1.9332,-1.9372,-2.0486,-2.1828,-2.1502,-2.1288,-2.1174,-2.0716,-2.05,-2.05,-2.05,-2.05,-2.05,-2.0486,-2.027,-2.0155,-2.0155,-1.9938,-1.9707,-1.9604,-1.978,-1.98,-2.0094,-2.051,-2.0695,-2.0949,-2.1109,-2.1109,-2.1109,-2.1109,-2.1109,-2.1235,-2.1109,-2.1235,-2.1109,-2.1109,-2.1109,-2.1109,-2.1109,-2.1109,-2.1109,-2.1109,-2.1109,-2.1362,-2.1362,-2.1402,-2.2521,-2.2786,-2.2953,-2.3736,-2.4074,-2.3543,-2.3543,-2.3543,-2.3543,-2.3543,-2.3816,-2.4088,-2.4224,-2.4224,-2.4617,-2.4993,-2.5412,-2.5562,-2.5592,-2.5472,-2.5187,-2.4781,-2.4374,-2.4102,-2.4238,-2.4374,-2.4374,-2.4374,-2.4224,-2.4088,-2.3816,-2.3543,-2.327,-2.2996,-2.2996,-2.327,-2.3406,-2.327,-2.3543,-2.3816,-2.3966,-2.3816,-2.3816,-2.383,-2.3832,-2.3998,-2.4316,-2.4932,-2.5611,-2.6025,-2.6474,-2.6808,-2.71,-2.7245,-2.7085,-2.7346,-2.762,-2.749,-2.739,-2.7245,-2.7245,-2.755,-2.784,-2.7985,-2.784,-1.7956,-1.8504,-1.8544,-1.8905,-1.9332,-1.9372,-1.9488,-1.9372,-1.9591,-1.9475,-1.9475,-1.9475,-1.9591,-1.9707,-1.9707,-1.9591,-1.9707,-1.9822,-1.9822,-1.9488,-1.9707,-1.9591,-1.9475,-1.9386,-1.9609,-1.9773,-2.0094,-2.0414,-2.0722,-2.0962,-2.1109,-2.1109,-2.1109,-2.1109,-2.1109,-2.1109,-2.1109,-2.1109,-2.1109,-2.1109,-2.1109,-2.1109,-2.1109,-2.1109,-2.1109,-2.1109,-2.1109,-2.1109,-2.1109,-2.1203,-2.1443,-2.1894,-2.2351,-2.2809,-2.2929,-2.2996,-2.3133,-2.3133,-2.3133,-2.3133,-2.2996,-2.2996,-2.2859,-2.3133,-2.3665,-2.4345,-2.4752,-2.5022,-2.4916,-2.4916,-2.4645,-2.436,-2.3952,-2.3816,-2.3816,-2.3952,-2.3952,-2.3952,-2.3816,-2.3679,-2.3406,-2.327,-2.3133,-2.2859,-2.2859,-2.2996,-2.2996,-2.2996,-2.3133,-2.3543,-2.3543,-2.3406,-2.3406,-2.3434,-2.3419,-2.3623,-2.3823,-2.4331,-2.4974,-2.5285,-2.5472,-2.6125,-2.6794,-2.6502,-2.6078,-2.656,-2.6706,-2.6546,-2.6517,-2.6663,-2.6663,-2.6663,-2.6808,-2.6969,-2.6969,-1.8156,-1.8531,-1.8971,-1.9252,-1.9359,-1.9372,-1.9372,-1.9372,-1.9372,-1.9372,-1.9372,-1.9372,-1.9372,-1.9372,-1.9372,-1.9372,-1.9475,-1.9475,-1.9475,-1.9475,-1.9475,-1.9475,-1.9372,-1.9372,-1.9426,-1.9613,-1.996,-2.0481,-2.0882,-2.1056,-2.1109,-2.1109,-2.1109,-2.1109,-2.1109,-2.1109,-2.1109,-2.1109,-2.1109,-2.1109,-2.1109,-2.1109,-2.1109,-2.1109,-2.1109,-2.1109,-2.1109,-2.1109,-2.1109,-2.1176,-2.1643,-2.2111,-2.2632,-2.2779,-2.2846,-2.2859,-2.2859,-2.2859,-2.2859,-2.2859,-2.2859,-2.2859,-2.2859,-2.2859,-2.3133,-2.3816,-2.4224,-2.436,-2.436,-2.4224,-2.4088,-2.3816,-2.3679,-2.3543,-2.3406,-2.3543,-2.3543,-2.3406,-2.3406,-2.327,-2.3133,-2.2996,-2.2859,-2.2859,-2.2859,-2.2859,-2.2859,-2.2859,-2.2859,-2.3133,-2.3133,-2.3133,-2.2996,-2.305,-2.3157,-2.3399,-2.3594,-2.3875,-2.4485,-2.458,-2.4647,-2.5222,-2.5786,-2.5359,-2.5079,-2.5681,-2.5828,-2.5373,-2.5506,-2.5786,-2.5786,-2.58,-2.5506,-2.5506,-2.58,-1.8103,-1.8544,-1.9118,-1.9372,-1.9372,-1.9372,-1.9372,-1.9372,-1.9372,-1.9372,-1.9372,-1.9372,-1.9372,-1.9372,-1.9372,-1.9372,-1.9372,-1.9372,-1.9359,-1.9372,-1.9372,-1.9372,-1.9372,-1.9372,-1.9372,-1.9519,-1.9987,-2.0494,-2.1015,-2.1109,-2.1109,-2.1109,-2.1109,-2.1109,-2.1109,-2.1109,-2.1109,-2.1109,-2.1109,-2.1109,-2.1109,-2.1109,-2.1109,-2.1109,-2.1109,-2.1109,-2.1109,-2.1109,-2.1109,-2.1256,-2.1657,-2.2111,-2.2525,-2.2752,-2.2846,-2.2859,-2.2859,-2.2859,-2.2859,-2.2859,-2.2859,-2.2859,-2.2859,-2.2859,-2.2859,-2.3406,-2.3406,-2.3543,-2.3543,-2.3543,-2.3543,-2.327,-2.327,-2.3133,-2.3133,-2.3133,-2.3133,-2.3133,-2.3133,-2.2996,-2.2996,-2.2996,-2.2859,-2.2859,-2.2859,-2.2859,-2.2859,-2.2859,-2.2859,-2.2859,-2.2859,-2.2859,-2.2859,-2.2873,-2.3063,-2.3386,-2.3661,-2.3928,-2.4128,-2.4356,-2.4649,-2.4569,-2.4636,-2.4636,-2.4784,-2.4931,-2.4931,-2.4784,-2.4784,-2.5212,-2.5065,-2.4784,-2.4488,-2.4327,-2.477,-1.8009,-1.8597,-1.9132,-1.9372,-1.9372,-1.9372,-1.9372,-1.9372,-1.9372,-1.9372,-1.9372,-1.9372,-1.9372,-1.9372,-1.9372,-1.9372,-1.9372,-1.9372,-1.9372,-1.9372,-1.9372,-1.9372,-1.9372,-1.9372,-1.9452,-1.9653,-2.0054,-2.0561,-2.1082,-2.1109,-2.1109,-2.1109,-2.1109,-2.1109,-2.1109,-2.1109,-2.1109,-2.1109,-2.1109,-2.1109,-2.1109,-2.1109,-2.1109,-2.1109,-2.1109,-2.1109,-2.1109,-2.1109,-2.1109,-2.1195,-2.1397,-2.1752,-2.1823,-2.2082,-2.1996,-2.2035,-2.1897,-2.2173,-2.2448,-2.2448,-2.2585,-2.2859,-2.2722,-2.2722,-2.2585,-2.2435,-2.2435,-2.2448,-2.2585,-2.2859,-2.2859,-2.2859,-2.2859,-2.2722,-2.2859,-2.2435,-2.2297,-2.2572,-2.2722,-2.2722,-2.2722,-2.2722,-2.2722,-2.2722,-2.2722,-2.2859,-2.2859,-2.2859,-2.2859,-2.2859,-2.2859,-2.2859,-2.2859,-2.2873,-2.2886,-2.326,-2.3701,-2.3834,-2.4048,-2.4382,-2.4636,-2.4636,-2.4636,-2.4636,-2.4636,-2.4636,-2.4636,-2.4636,-2.4636,-2.4488,-2.4636,-2.4488,-2.3587,-2.3587,-2.4031,-1.8303,-1.8865,-1.9225,-1.9372,-1.9372,-1.9372,-1.9372,-1.9372,-1.9372,-1.9372,-1.9372,-1.9372,-1.9372,-1.9372,-1.9372,-1.9372,-1.9372,-1.9372,-1.9372,-1.9372,-1.9372,-1.9372,-1.9372,-1.9386,-1.9666,-1.9933,-2.0201,-2.0561,-2.1029,-2.1109,-2.1109,-2.1109,-2.1109,-2.1109,-2.1109,-2.1109,-2.1109,-2.1109,-2.1109,-2.1109,-2.0982,-2.0982,-2.1109,-2.1109,-2.1109,-2.1109,-2.1109,-2.1109,-2.1109,-2.1014,-2.0863,-2.099,-2.1071,-2.0869,-2.0629,-2.078,-2.0641,-2.0918,-2.1333,-2.1484,-2.1622,-2.231,-2.2035,-2.1484,-2.1333,-2.0731,-2.0743,-2.0918,-2.1195,-2.2448,-2.2585,-2.2435,-2.2297,-2.2297,-2.2297,-2.1032,-2.0201,-2.1308,-2.2009,-2.1872,-2.1872,-2.2009,-2.2297,-2.2297,-2.2297,-2.2297,-2.216,-2.216,-2.2022,-2.2435,-2.2585,-2.2448,-2.2435,-2.2859,-2.2886,-2.3313,-2.3688,-2.3808,-2.3968,-2.4315,-2.4556,-2.4623,-2.4636,-2.4636,-2.4636,-2.4636,-2.4636,-2.4488,-2.4018,-2.3722,-2.4327,-2.4179,-2.3277,-2.2682,-2.298]}]]